[[{"header":{"parameterUnit":"m.s-1","parameterCategory":1,"la1":31.0,"la2":29.5877,"lo1":-88.7671,"lo2":-86.6584,"dy":0.0162,"dx":0.0185,"nx":115,"ny":88,"refTime":"2024-09-12T00:00:00:Z","depth":0,"parameterNumber":2,"parameterNumberName":"U-component_of_WINDS"},"data":[0.0,0.0,0.0,0.0,0.0,0.0,0.0,0.0,0.0,0.0,0.0,0.0,0.0,0.0,0.0,0.0,0.0,0.0,0.0,0.0,0.0,0.0,0.0,0.0,0.0,0.0,0.0,0.0,0.0,0.0,0.0,0.0,0.0,0.0,0.0,0.0,0.0,0.0,0.0,0.0,0.0,0.0,0.0,0.0,0.0,0.0,0.0,0.0,0.0,0.0,0.0,0.0,0.0,0.0,0.0,0.0,0.0,0.0,0.0,0.0,0.0,0.0,0.0,0.0,0.0,0.0,0.0,0.0,0.0,0.0,0.0,0.0,0.0,0.0,0.0,0.0,0.0,0.0,0.0,0.0,0.0,0.0,0.0,0.0,0.0,0.0,0.0,0.0,0.0,0.0,0.0,0.0,0.0,0.0,0.0,0.0,0.0,0.0,0.0,0.0,0.0,0.0,0.0,0.0,0.0,0.0,0.0,0.0,0.0,0.0,0.0,0.0,0.0,0.0,0.0,0.0,0.0,0.0,0.0,0.0,0.0,0.0,0.0,0.0,0.0,0.0,0.0,0.0,0.0,0.0,0.0,0.0,0.0,0.0,0.0,0.0,0.0,0.0,0.0,0.0,0.0,0.0,0.0,0.0,0.0,0.0,0.0,0.0,0.0,0.0,0.0,0.0,0.0,0.0,0.0,0.0,0.0,0.0,0.0,0.0,0.0,0.0,0.0,0.0,0.0,0.0,0.0,0.0,0.0,0.0,0.0,0.0,0.0,0.0,0.0,0.0,0.0,0.0,0.0,0.0,0.0,0.0,0.0,0.0,0.0,0.0,0.0,0.0,0.0,0.0,0.0,0.0,0.0,0.0,0.0,0.0,0.0,0.0,0.0,0.0,0.0,0.0,0.0,0.0,0.0,0.0,0.0,0.0,0.0,0.0,0.0,0.0,0.0,0.0,0.0,0.0,0.0,0.0,0.0,0.0,0.0,0.0,0.0,0.0,0.0,0.0,0.0,0.0,0.0,0.0,0.0,0.0,0.0,0.0,0.0,0.0,0.0,0.0,0.0,0.0,0.0,0.0,0.0,0.0,0.0,0.0,0.0,0.0,0.0,0.0,0.0,0.0,0.0,0.0,0.0,0.0,0.0,0.0,0.0,0.0,0.0,0.0,0.0,0.0,0.0,0.0,0.0,0.0,0.0,0.0,0.0,0.0,0.0,0.0,0.0,0.0,0.0,0.0,0.0,0.0,0.0,0.0,0.0,0.0,0.0,0.0,0.0,0.0,0.0,0.0,0.0,0.0,0.0,0.0,0.0,0.0,0.0,0.0,0.0,0.0,0.0,0.0,0.0,0.0,0.0,0.0,0.0,0.0,0.0,0.0,0.0,0.0,0.0,0.0,0.0,0.0,0.0,0.0,0.0,0.0,0.0,0.0,0.0,0.0,0.0,0.0,0.0,0.0,0.0,0.0,0.0,0.0,0.0,0.0,0.0,0.0,0.0,0.0,0.0,0.0,0.0,0.0,0.0,0.0,0.0,0.0,0.0,0.0,0.0,0.0,0.0,0.0,0.0,0.0,0.0,0.0,0.0,0.0,0.0,0.0,0.0,0.0,0.0,0.0,0.0,0.0,0.0,0.0,0.0,0.0,0.0,0.0,0.0,0.0,0.0,0.0,0.0,0.0,0.0,0.0,0.0,0.0,0.0,0.0,0.0,0.0,0.0,0.0,0.0,0.0,0.0,0.0,0.0,0.0,0.0,0.0,0.0,0.0,0.0,0.0,0.0,0.0,0.0,0.0,0.0,0.0,0.0,0.0,0.0,0.0,0.0,0.0,0.0,0.0,0.0,0.0,0.0,0.0,0.0,0.0,0.0,0.0,0.0,0.0,0.0,0.0,0.0,0.0,0.0,0.0,0.0,0.0,0.0,0.0,0.0,0.0,0.0,0.0,0.0,0.0,0.0,0.0,0.0,0.0,0.0,0.0,0.0,0.0,0.0,0.0,0.0,0.0,0.0,0.0,0.0,0.0,0.0,0.0,0.0,0.0,0.0,0.0,0.0,0.0,0.0,0.0,0.0,0.0,0.0,0.0,0.0,0.0,0.0,0.0,0.0,0.0,0.0,0.0,0.0,0.0,0.0,0.0,0.0,0.0,0.0,0.0,0.0,0.0,0.0,0.0,0.0,0.0,0.0,0.0,0.0,0.0,0.0,0.0,0.0,0.0,0.0,0.0,0.0,0.0,0.0,0.0,0.0,0.0,0.0,0.0,0.0,0.0,0.0,0.0,0.0,0.0,0.0,0.0,0.0,0.0,0.0,0.0,0.0,0.0,0.0,0.0,0.0,0.0,0.0,0.0,0.0,0.0,0.0,0.0,0.0,0.0,0.0,0.0,0.0,0.0,0.0,0.0,0.0,0.0,0.0,0.0,0.0,0.0,0.0,0.0,0.0,0.0,0.0,0.0,0.0,0.0,0.0,0.0,0.0,0.0,0.0,0.0,0.0,0.0,0.0,0.0,0.0,0.0,0.0,0.0,0.0,0.0,0.0,0.0,0.0,0.0,0.0,0.0,0.0,0.0,0.0,0.0,0.0,0.0,0.0,0.0,0.0,0.0,0.0,0.0,0.0,0.0,0.0,0.0,0.0,0.0,0.0,0.0,0.0,0.0,0.0,0.0,0.0,0.0,0.0,0.0,0.0,0.0,0.0,0.0,0.0,0.0,0.0,0.0,0.0,0.0,0.0,0.0,0.0,0.0,0.0,0.0,0.0,0.0,0.0,0.0,0.0,0.0,0.0,0.0,0.0,0.0,0.0,0.0,0.0,0.0,0.0,0.0,0.0,0.0,0.0,0.0,0.0,0.0,0.0,0.0,0.0,0.0,0.0,0.0,0.0,0.0,0.0,0.0,0.0,0.0,0.0,0.0,0.0,0.0,0.0,0.0,0.0,0.0,0.0,0.0,0.0,0.0,0.0,0.0,0.0,0.0,0.0,0.0,0.0,0.0,0.0,0.0,0.0,0.0,0.0,0.0,0.0,0.0,0.0,0.0,0.0,0.0,0.0,0.0,0.0,0.0,0.0,0.0,0.0,0.0,0.0,0.0,0.0,0.0,0.0,0.0,0.0,0.0,0.0,0.0,0.0,0.0,0.0,0.0,0.0,0.0,0.0,0.0,0.0,0.0,0.0,0.0,0.0,0.0,0.0,0.0,0.0,0.0,0.0,0.0,0.0,0.0,0.0,0.0,0.0,0.0,0.0,0.0,0.0,0.0,0.0,0.0,0.0,0.0,0.0,0.0,0.0,0.0,0.0,0.0,0.0,0.0,0.0,0.0,0.0,0.0,0.0,0.0,0.0,0.0,0.0,0.0,0.0,0.0,0.0,0.0,0.0,0.0,0.0,0.0,0.0,0.0,0.0,0.0,0.0,0.0,0.0,0.0,0.0,0.0,0.0,0.0,0.0,0.0,0.0,0.0,0.0,0.0,0.0,0.0,0.0,0.0,0.0,0.0,0.0,0.0,0.0,0.0,0.0,0.0,0.0,0.0,0.0,0.0,0.0,0.0,0.0,0.0,0.0,0.0,0.0,0.0,0.0,0.0,0.0,0.0,0.0,0.0,0.0,0.0,0.0,0.0,0.0,0.0,0.0,0.0,0.0,0.0,0.0,0.0,0.0,0.0,0.0,0.0,0.0,0.0,0.0,0.0,0.0,0.0,0.0,0.0,0.0,0.0,0.0,0.0,0.0,0.0,0.0,0.0,0.0,0.0,0.0,0.0,0.0,0.0,0.0,0.0,0.0,0.0,0.0,0.0,0.0,0.0,0.0,0.0,0.0,0.0,0.0,0.0,0.0,0.0,0.0,0.0,0.0,0.0,0.0,0.0,0.0,0.0,0.0,0.0,0.0,0.0,0.0,0.0,0.0,0.0,0.0,0.0,0.0,0.0,0.0,0.0,0.0,0.0,0.0,0.0,0.0,0.0,0.0,0.0,0.0,0.0,0.0,0.0,0.0,0.0,0.0,0.0,0.0,0.0,0.0,0.0,0.0,0.0,0.0,0.0,0.0,0.0,0.0,0.0,0.0,0.0,0.0,0.0,0.0,0.0,0.0,0.0,0.0,0.0,0.0,0.0,0.0,0.0,0.0,0.0,0.0,0.0,0.0,0.0,0.0,0.0,0.0,0.0,0.0,0.0,0.0,0.0,0.0,0.0,0.0,0.0,0.0,0.0,0.0,0.0,0.0,0.0,0.0,0.0,0.0,0.0,0.0,0.0,0.0,0.0,0.0,0.0,1.4392,0.0,0.0,0.0,0.0,0.0,0.0,0.0,0.0,0.0,0.0,0.0,0.0,0.0,0.0,0.0,0.0,0.0,0.0,0.0,0.0,0.0,0.0,0.0,0.0,0.0,0.0,0.0,0.0,0.0,0.0,0.0,0.0,0.0,0.0,0.0,0.0,0.0,0.0,0.0,0.0,0.0,0.0,0.0,0.0,0.0,0.0,0.0,0.0,0.0,0.0,0.0,0.0,0.0,0.0,0.0,0.0,0.0,0.0,0.0,0.0,0.0,0.0,0.0,0.0,0.0,0.0,0.0,0.0,0.0,0.0,0.0,0.0,0.0,0.0,0.0,0.0,0.0,0.0,0.0,0.0,0.0,0.0,0.0,0.0,0.0,0.0,0.0,0.0,0.0,0.0,0.0,0.0,0.0,0.0,0.0,0.0,0.0,0.0,0.0,0.0,0.0,0.0,0.0,0.0,0.0,0.0,0.0,0.0,0.0,0.0,1.7089,1.6693,1.5994,1.52,1.4353,0.0,0.0,0.0,0.0,0.0,0.0,0.0,0.0,0.0,0.0,0.0,0.0,0.0,0.0,0.0,0.0,0.0,0.0,0.0,0.0,0.0,0.0,0.0,0.0,0.0,0.0,0.0,0.0,0.0,0.0,0.0,0.0,0.0,0.0,0.0,0.0,0.0,0.0,0.0,0.0,0.0,0.0,0.0,0.0,0.0,0.0,0.0,0.0,0.0,0.0,0.0,0.0,0.0,0.0,0.0,0.0,0.0,0.0,0.0,0.0,0.0,0.0,0.0,0.0,0.0,0.0,0.0,0.0,0.0,0.0,0.0,0.0,0.0,0.0,0.0,0.0,0.0,0.0,0.0,0.0,0.0,0.0,0.0,0.0,0.0,0.0,0.0,0.0,0.0,0.0,0.0,0.0,0.0,0.0,0.0,0.0,0.0,0.0,0.0,0.0,0.0,0.0,0.0,0.0,0.0,0.0,0.0,0.0,0.0,0.0,0.0,0.0,1.6211,1.5445,1.4825,0.0,0.0,0.0,0.0,0.0,0.0,0.0,0.0,0.0,0.0,0.0,0.0,0.0,0.0,0.0,0.0,0.0,0.0,0.0,0.0,0.0,0.0,0.0,0.0,0.0,0.0,0.0,0.0,0.0,0.0,0.0,0.0,0.0,0.0,0.0,0.0,0.0,0.0,0.0,0.0,0.0,0.0,0.0,0.0,0.0,0.0,0.0,0.0,0.0,0.0,0.0,0.0,0.0,0.0,0.0,0.0,0.0,0.0,0.0,0.0,0.0,0.0,0.0,0.0,0.0,0.0,0.0,0.0,0.0,0.0,0.0,0.0,0.0,0.0,0.0,0.0,0.0,0.0,0.0,0.0,0.0,0.0,0.0,0.0,0.0,0.0,0.0,0.0,0.0,0.0,0.0,0.0,0.0,0.0,0.0,0.0,0.0,0.0,0.0,0.0,0.0,0.0,0.0,0.0,0.0,0.0,0.0,0.0,0.0,0.0,1.7726,1.8475,1.8133,0.0,1.6316,0.0,0.0,0.0,0.0,0.0,0.0,0.0,0.0,0.0,0.0,0.0,0.0,0.0,0.0,0.0,0.0,0.0,0.0,0.0,0.0,0.0,0.0,0.0,0.0,0.0,0.0,0.0,0.0,0.0,0.0,0.0,0.0,0.0,0.0,0.0,0.0,0.0,0.0,0.0,0.0,0.0,0.0,0.0,0.0,0.0,0.0,0.0,0.0,0.0,0.0,0.0,0.0,0.0,0.0,0.0,0.0,0.0,0.0,0.0,0.0,0.0,0.0,0.0,0.0,0.0,0.0,0.0,0.0,0.0,0.0,0.0,0.0,0.0,0.0,0.0,0.0,0.0,0.0,0.0,0.0,0.0,0.0,0.0,0.0,0.0,0.0,0.0,0.0,0.0,0.0,0.0,0.0,0.0,0.0,0.0,0.0,0.0,0.0,0.0,0.0,0.0,0.0,0.0,0.0,0.0,0.0,0.0,0.0,0.0,0.0,1.7234,1.7273,1.665,1.6143,0.0,0.0,0.0,0.0,0.0,0.0,0.0,0.0,0.0,0.0,0.0,0.0,0.0,0.0,0.0,0.0,0.0,0.0,0.0,0.0,0.0,0.0,0.0,0.0,0.0,0.0,0.0,0.0,0.0,0.0,0.0,0.0,0.0,0.0,0.0,0.0,0.0,0.0,0.0,0.0,0.0,0.0,0.0,0.0,0.0,0.0,0.0,0.0,0.0,0.0,0.0,0.0,0.0,0.0,0.0,0.0,0.0,0.0,0.0,0.0,0.0,0.0,0.0,0.0,0.0,0.0,0.0,0.0,0.0,0.0,0.0,0.0,0.0,0.0,0.0,0.0,0.0,0.0,0.0,0.0,0.0,0.0,0.0,0.0,0.0,0.0,0.0,0.0,0.0,0.0,0.0,0.0,0.0,0.0,0.0,0.0,0.0,0.0,0.0,0.0,0.0,0.0,0.0,0.0,0.0,0.0,0.0,0.0,0.0,0.0,1.7262,1.7151,1.6918,1.6039,1.5421,1.518,0.0,0.0,0.0,0.0,0.0,0.0,0.0,0.0,0.0,0.0,0.0,0.0,0.0,0.0,0.0,0.0,0.0,0.0,0.0,0.0,0.0,0.0,0.0,0.0,0.0,0.0,0.0,0.0,0.0,0.0,0.0,0.0,0.0,0.0,0.0,0.0,0.0,0.0,0.0,0.0,0.0,0.0,0.0,0.0,0.0,0.0,0.0,0.0,0.0,0.0,0.0,0.0,0.0,0.0,0.0,0.0,0.0,0.0,0.0,0.0,0.0,0.0,0.0,0.0,0.0,0.0,0.0,0.0,0.0,0.0,0.0,0.0,0.0,0.0,0.0,0.0,0.0,0.0,0.0,0.0,0.0,0.0,0.0,0.0,0.0,0.0,0.0,0.0,0.0,0.0,0.0,0.0,0.0,0.0,0.0,0.0,0.0,0.0,0.0,0.0,0.0,0.0,0.0,0.0,0.0,0.0,0.0,0.0,0.0,1.8717,1.7984,1.8502,1.7489,1.6284,0.0,0.0,0.0,0.0,0.0,0.0,0.0,0.0,0.0,0.0,0.0,0.0,0.0,0.0,0.0,0.0,0.0,0.0,0.0,0.0,0.0,0.0,0.0,0.0,0.0,0.0,0.0,0.0,0.0,0.0,0.0,0.0,0.0,0.0,0.0,0.0,0.0,0.0,0.0,0.0,0.0,0.0,0.0,0.0,0.0,0.0,0.0,0.0,0.0,0.0,0.0,0.0,0.0,0.0,0.0,0.0,0.0,0.0,0.0,0.0,0.0,0.0,0.0,0.0,0.0,0.0,0.0,0.0,0.0,0.0,0.0,0.0,0.0,0.0,0.0,0.0,0.0,0.0,0.0,0.0,0.0,0.0,0.0,0.0,0.0,0.0,0.0,0.0,0.0,0.0,0.0,0.0,0.0,0.0,0.0,0.0,0.0,0.0,0.0,0.0,0.0,0.0,0.0,0.0,0.0,0.0,0.0,0.0,0.0,1.6677,1.6254,1.669,1.7976,1.6351,1.543,0.0,0.0,0.0,0.0,0.0,0.0,0.0,0.0,0.0,0.0,0.0,0.0,0.0,0.0,0.0,0.0,0.0,0.0,0.0,0.0,0.0,0.0,0.0,0.0,0.0,0.0,0.0,0.0,0.0,0.0,0.0,0.0,0.0,0.0,0.0,0.0,0.0,0.0,0.0,0.0,0.0,0.0,0.0,0.0,0.0,0.0,0.0,0.0,0.0,0.0,0.0,0.0,0.0,0.0,0.0,0.0,0.0,0.0,0.0,0.0,0.0,0.0,0.0,0.0,0.0,0.0,0.0,0.0,0.0,0.0,0.0,0.0,0.0,0.0,0.0,0.0,0.0,0.0,0.0,0.0,0.0,0.0,0.0,0.0,0.0,0.0,0.0,0.0,0.0,0.0,0.0,0.0,0.0,0.0,0.0,0.0,0.0,0.0,0.0,0.0,0.0,0.0,0.0,0.0,0.0,0.0,0.0,0.0,0.0,1.5593,0.0,1.6685,0.0,1.5941,1.5025,0.0,0.0,0.0,0.0,0.0,0.0,0.0,0.0,0.0,0.0,0.0,0.0,0.0,0.0,0.0,0.0,0.0,0.0,0.0,0.0,0.0,0.0,0.0,0.0,0.0,0.0,0.0,0.0,0.0,0.0,0.0,0.0,0.0,0.0,0.0,0.0,0.0,0.0,0.0,0.0,0.0,0.0,0.0,0.0,0.0,0.0,0.0,0.0,0.0,0.0,0.0,0.0,0.0,0.0,0.0,0.0,0.0,0.0,0.0,0.0,0.0,0.0,0.0,0.0,0.0,0.0,0.0,0.0,0.0,0.0,0.0,0.0,0.0,0.0,0.0,0.0,0.0,0.0,0.0,0.0,0.0,0.0,0.0,0.0,0.0,0.0,0.0,0.0,0.0,0.0,0.0,0.0,0.0,0.0,0.0,0.0,0.0,0.0,0.0,0.0,0.0,0.0,0.0,0.0,0.0,0.0,0.0,0.0,1.6218,1.7968,1.8455,1.8118,1.7109,1.6479,1.5139,0.0,0.0,0.0,0.0,0.0,0.0,0.0,0.0,0.0,0.0,0.0,0.0,0.0,0.0,0.0,0.0,0.0,0.0,0.0,0.0,0.0,0.0,0.0,0.0,0.0,0.0,0.0,0.0,0.0,0.0,0.0,0.0,0.0,0.0,0.0,0.0,0.0,0.0,0.0,0.0,0.0,0.0,0.0,0.0,0.0,0.0,0.0,0.0,0.0,0.0,0.0,0.0,0.0,0.0,0.0,0.0,0.0,0.0,0.0,0.0,0.0,0.0,0.0,0.0,0.0,0.0,0.0,0.0,0.0,0.0,0.0,0.0,0.0,0.0,0.0,0.0,0.0,0.0,0.0,0.0,0.0,0.0,0.0,0.0,0.0,0.0,0.0,0.0,0.0,0.0,0.0,0.0,0.0,0.0,0.0,0.0,0.0,0.0,0.0,0.0,0.0,0.0,0.0,0.0,0.0,0.0,0.0,0.0,0.0,1.7126,1.7609,1.8257,1.9041,1.6892,1.5801,0.0,0.0,0.0,0.0,0.0,0.0,0.0,0.0,0.0,0.0,0.0,0.0,0.0,0.0,0.0,0.0,0.0,0.0,0.0,0.0,0.0,0.0,0.0,0.0,0.0,0.0,0.0,0.0,0.0,0.0,0.0,0.0,0.0,0.0,0.0,0.0,0.0,0.0,0.0,0.0,0.0,0.0,0.0,0.0,0.0,0.0,0.0,0.0,0.0,0.0,0.0,0.0,0.0,0.0,0.0,0.0,0.0,0.0,0.0,0.0,0.0,0.0,0.0,0.0,0.0,0.0,0.0,0.0,0.0,0.0,0.0,0.0,0.0,0.0,0.0,0.0,0.0,0.0,0.0,0.0,0.0,0.0,0.0,0.0,0.0,0.0,0.0,0.0,0.0,0.0,0.0,0.0,0.0,0.0,0.0,0.0,0.0,0.0,0.0,0.0,0.0,0.0,0.0,0.0,0.0,0.0,0.0,0.0,0.0,1.8885,1.875,1.9207,2.0323,1.7917,1.6577,1.6553,0.0,0.0,0.0,0.0,0.0,0.0,0.0,0.0,0.0,0.0,0.0,0.0,0.0,0.0,0.0,0.0,0.0,0.0,0.0,0.0,0.0,0.0,0.0,0.0,0.0,0.0,0.0,0.0,0.0,0.0,0.0,0.0,0.0,0.0,0.0,0.0,0.0,0.0,0.0,0.0,0.0,0.0,0.0,0.0,0.0,0.0,0.0,0.0,0.0,0.0,0.0,0.0,0.0,0.0,0.0,0.0,0.0,0.0,0.0,0.0,0.0,0.0,0.0,0.0,0.0,0.0,0.0,0.0,0.0,0.0,0.0,0.0,0.0,0.0,0.0,0.0,0.0,0.0,0.0,0.0,0.0,0.0,0.0,0.0,0.0,0.0,0.0,0.0,0.0,0.0,0.0,0.0,0.0,0.0,0.0,0.0,0.0,0.0,0.0,0.0,0.0,0.0,0.0,0.0,0.0,0.0,0.0,0.0,2.2655,2.1654,2.1168,2.1058,1.9417,1.7557,0.0,0.0,0.0,0.0,0.0,0.0,0.0,0.0,0.0,0.0,0.0,0.0,0.0,0.0,0.0,0.0,0.0,0.0,0.0,0.0,0.0,0.0,0.0,0.0,0.0,0.0,0.0,0.0,0.0,0.0,0.0,0.0,0.0,0.0,0.0,0.0,0.0,0.0,0.0,0.0,0.0,0.0,0.0,0.0,0.0,0.0,0.0,0.0,0.0,0.0,0.0,0.0,0.0,0.0,0.0,0.0,0.0,0.0,0.0,0.0,0.0,0.0,0.0,0.0,0.0,0.0,0.0,0.0,0.0,0.0,0.0,0.0,0.0,0.0,0.0,0.0,0.0,0.0,0.0,0.0,0.0,0.0,0.0,0.0,0.0,0.0,0.0,0.0,0.0,0.0,0.0,0.0,0.0,0.0,0.0,0.0,0.0,0.0,0.0,0.0,0.0,0.0,0.0,0.0,0.0,0.0,0.0,0.0,0.0,2.4593,2.5054,2.5156,2.4809,2.1807,1.9679,0.0,0.0,0.0,0.0,0.0,0.0,0.0,0.0,0.0,0.0,0.0,0.0,0.0,0.0,0.0,0.0,0.0,0.0,0.0,0.0,0.0,0.0,0.0,0.0,0.0,0.0,0.0,0.0,0.0,0.0,0.0,0.0,0.0,0.0,0.0,0.0,0.0,0.0,0.0,0.0,0.0,0.0,0.0,0.0,0.0,0.0,0.0,0.0,0.0,0.0,0.0,0.0,0.0,0.0,0.0,0.0,0.0,0.0,0.0,0.0,0.0,0.0,0.0,0.0,0.0,0.0,0.0,0.0,0.0,0.0,0.0,0.0,0.0,0.0,0.0,0.0,0.0,0.0,0.0,0.0,0.0,0.0,0.0,0.0,0.0,0.0,0.0,0.0,0.0,0.0,0.0,0.0,0.0,0.0,0.0,0.0,0.0,0.0,0.0,0.0,0.0,0.0,0.0,0.0,0.0,0.0,0.0,0.0,2.4004,2.6,2.792,2.8669,2.8258,2.4621,2.1801,0.0,0.0,0.0,0.0,0.0,0.0,0.0,0.0,0.0,0.0,0.0,0.0,0.0,0.0,0.0,0.0,0.0,0.0,0.0,0.0,0.0,0.0,0.0,0.0,0.0,0.0,0.0,0.0,0.0,0.0,0.0,0.0,0.0,0.0,0.0,0.0,0.0,0.0,0.0,0.0,0.0,0.0,0.0,0.0,0.0,0.0,0.0,0.0,0.0,0.0,0.0,0.0,0.0,0.0,0.0,0.0,0.0,0.0,0.0,0.0,0.0,0.0,0.0,0.0,0.0,0.0,0.0,0.0,0.0,0.0,0.0,0.0,0.0,0.0,0.0,0.0,0.0,0.0,0.0,0.0,0.0,0.0,0.0,0.0,0.0,0.0,0.0,0.0,0.0,0.0,0.0,0.0,0.0,0.0,0.0,0.0,0.0,0.0,0.0,0.0,0.0,0.0,0.0,0.0,0.0,0.0,0.0,0.0,2.5241,2.7152,3.017,3.1492,3.0879,2.7284,2.3652,0.0,0.0,0.0,0.0,0.0,0.0,0.0,0.0,0.0,0.0,0.0,0.0,0.0,0.0,0.0,0.0,0.0,0.0,0.0,0.0,0.0,0.0,0.0,0.0,0.0,0.0,0.0,0.0,0.0,0.0,0.0,0.0,0.0,0.0,0.0,0.0,0.0,0.0,0.0,0.0,0.0,0.0,0.0,0.0,0.0,0.0,0.0,0.0,0.0,0.0,0.0,0.0,0.0,0.0,0.0,0.0,0.0,0.0,0.0,0.0,0.0,0.0,0.0,0.0,0.0,0.0,0.0,0.0,0.0,0.0,0.0,0.0,0.0,0.0,0.0,0.0,0.0,0.0,0.0,0.0,0.0,0.0,0.0,0.0,0.0,0.0,0.0,0.0,0.0,0.0,0.0,0.0,0.0,0.0,0.0,0.0,0.0,0.0,0.0,0.0,0.0,0.0,0.0,0.0,0.0,0.0,0.0,0.0,2.6735,2.8763,3.1108,3.2058,3.1492,2.7476,2.4169,0.0,0.0,0.0,0.0,0.0,0.0,0.0,0.0,0.0,0.0,0.0,0.0,0.0,0.0,0.0,0.0,0.0,0.0,0.0,0.0,0.0,0.0,0.0,0.0,0.0,0.0,0.0,0.0,0.0,0.0,0.0,0.0,0.0,0.0,0.0,0.0,0.0,0.0,0.0,0.0,0.0,0.0,0.0,0.0,0.0,0.0,0.0,0.0,1.8065,0.0,0.0,0.0,0.0,0.0,0.0,0.0,0.0,0.0,0.0,0.0,0.0,0.0,0.0,0.0,0.0,0.0,0.0,0.0,0.0,0.0,0.0,0.0,0.0,0.0,0.0,0.0,0.0,0.0,0.0,0.0,0.0,0.0,0.0,0.0,0.0,0.0,0.0,0.0,0.0,0.0,0.0,0.0,0.0,0.0,0.0,0.0,0.0,0.0,0.0,0.0,0.0,0.0,0.0,0.0,0.0,0.0,0.0,0.0,2.748,2.9965,3.1889,3.2731,3.2322,2.9015,2.5733,0.0,0.0,0.0,0.0,0.0,0.0,0.0,0.0,0.0,0.0,0.0,0.0,0.0,0.0,0.0,0.0,0.0,0.0,0.0,0.0,0.0,0.0,0.0,0.0,0.0,0.0,0.0,0.0,0.0,0.0,0.0,0.0,0.0,0.0,0.0,0.0,0.0,0.0,0.0,0.0,0.0,0.0,0.0,0.0,0.0,0.0,0.0,0.0,0.0,0.0,0.0,0.0,0.0,0.0,0.0,0.0,0.0,0.0,0.0,0.0,0.0,0.0,0.0,0.0,0.0,0.0,0.0,0.0,0.0,0.0,0.0,0.0,0.0,0.0,0.0,0.0,0.0,0.0,0.0,0.0,0.0,0.0,0.0,0.0,0.0,0.0,0.0,0.0,0.0,0.0,0.0,0.0,0.0,0.0,0.0,0.0,0.0,0.0,0.0,0.0,0.0,0.0,0.0,0.0,0.0,0.0,0.0,2.4747,2.7944,3.1132,3.2659,3.3368,3.326,3.0771,2.7428,2.328,0.0,0.0,0.0,0.0,0.0,0.0,0.0,0.0,0.0,0.0,0.0,0.0,0.0,0.0,0.0,0.0,0.0,0.0,0.0,0.0,0.0,0.0,0.0,0.0,0.0,0.0,0.0,0.0,0.0,0.0,0.0,0.0,0.0,0.0,0.0,0.0,0.0,0.0,1.7887,1.8773,0.0,0.0,0.0,0.0,0.0,0.0,0.0,0.0,1.9169,0.0,0.0,0.0,0.0,0.0,0.0,0.0,0.0,0.0,0.0,0.0,0.0,0.0,0.0,0.0,0.0,0.0,0.0,0.0,0.0,0.0,0.0,0.0,0.0,0.0,0.0,0.0,0.0,0.0,0.0,0.0,0.0,0.0,0.0,0.0,0.0,0.0,0.0,0.0,0.0,0.0,0.0,0.0,0.0,0.0,0.0,0.0,0.0,0.0,0.0,0.0,0.0,0.0,0.0,0.0,0.0,2.5329,2.6033,2.8488,3.2767,3.3561,3.3717,3.3248,3.112,2.7969,2.3845,0.0,0.0,0.0,0.0,0.0,0.0,0.0,0.0,0.0,0.0,0.0,0.0,0.0,0.0,0.0,0.0,0.0,0.0,0.0,0.0,0.0,0.0,0.0,0.0,0.0,0.0,0.0,0.0,0.0,0.0,0.0,0.0,0.0,0.0,0.0,0.0,0.0,0.0,0.0,2.1194,2.1848,0.0,0.0,0.0,0.0,0.0,0.0,0.0,0.0,2.0069,0.0,0.0,0.0,0.0,0.0,0.0,0.0,0.0,0.0,0.0,0.0,0.0,0.0,0.0,0.0,0.0,0.0,0.0,0.0,0.0,0.0,0.0,0.0,0.0,0.0,0.0,0.0,0.0,0.0,0.0,0.0,0.0,0.0,0.0,0.0,0.0,0.0,0.0,0.0,0.0,0.0,0.0,0.0,0.0,0.0,0.0,0.0,0.0,0.0,0.0,0.0,0.0,0.0,0.0,0.0,2.4949,2.6928,2.9651,3.3152,3.3525,3.3537,3.3236,3.0422,2.726,0.0,0.0,0.0,0.0,0.0,0.0,0.0,0.0,0.0,0.0,0.0,0.0,0.0,0.0,0.0,0.0,0.0,0.0,0.0,0.0,0.0,0.0,0.0,0.0,0.0,0.0,0.0,0.0,0.0,0.0,0.0,0.0,0.0,0.0,0.0,0.0,0.0,0.0,0.0,0.0,2.2209,2.2947,2.4464,0.0,0.0,0.0,0.0,0.0,0.0,2.1255,2.0748,0.0,0.0,0.0,0.0,0.0,0.0,0.0,0.0,0.0,0.0,0.0,0.0,0.0,0.0,0.0,0.0,0.0,0.0,0.0,0.0,0.0,0.0,0.0,0.0,0.0,0.0,0.0,0.0,0.0,0.0,0.0,0.0,0.0,0.0,0.0,0.0,0.0,0.0,0.0,0.0,0.0,0.0,0.0,0.0,0.0,0.0,0.0,0.0,0.0,0.0,0.0,0.0,0.0,0.0,0.0,2.4108,2.7339,3.0326,3.2984,3.3236,3.3236,3.3068,2.9725,2.6586,0.0,0.0,0.0,0.0,0.0,0.0,0.0,0.0,0.0,0.0,0.0,0.0,0.0,0.0,0.0,0.0,0.0,0.0,0.0,0.0,0.0,0.0,0.0,0.0,0.0,0.0,0.0,0.0,0.0,0.0,0.0,0.0,0.0,0.0,0.0,0.0,0.0,0.0,0.0,0.0,0.0,2.4233,2.6008,2.4616,0.0,0.0,0.0,0.0,2.2936,2.2862,0.0,0.0,0.0,0.0,0.0,0.0,0.0,0.0,0.0,0.0,0.0,0.0,0.0,0.0,0.0,0.0,0.0,0.0,0.0,0.0,0.0,0.0,0.0,0.0,0.0,0.0,0.0,0.0,0.0,0.0,0.0,0.0,0.0,0.0,0.0,0.0,0.0,0.0,0.0,0.0,0.0,0.0,0.0,0.0,0.0,0.0,0.0,0.0,0.0,0.0,0.0,0.0,0.0,0.0,0.0,0.0,2.4059,2.6699,2.9494,3.243,3.3044,3.3068,3.2575,2.9869,2.6959,0.0,0.0,0.0,0.0,0.0,0.0,0.0,0.0,0.0,0.0,0.0,0.0,0.0,0.0,0.0,0.0,0.0,0.0,0.0,0.0,0.0,0.0,0.0,0.0,0.0,0.0,0.0,0.0,0.0,0.0,0.0,0.0,0.0,0.0,0.0,0.0,0.0,0.0,0.0,0.0,0.0,2.6411,2.6788,2.6029,2.5424,0.0,0.0,2.6064,2.6481,2.7233,0.0,0.0,0.0,0.0,0.0,0.0,0.0,0.0,0.0,0.0,0.0,0.0,0.0,0.0,0.0,0.0,0.0,0.0,0.0,0.0,0.0,0.0,0.0,0.0,0.0,0.0,0.0,0.0,0.0,0.0,0.0,0.0,0.0,0.0,0.0,0.0,0.0,0.0,0.0,0.0,0.0,0.0,0.0,0.0,0.0,0.0,0.0,0.0,0.0,0.0,0.0,0.0,0.0,0.0,0.0,2.121,2.4067,2.7388,3.0266,3.2394,3.2418,3.2418,3.2491,2.8739,2.5769,0.0,0.0,0.0,0.0,0.0,0.0,0.0,0.0,0.0,0.0,0.0,0.0,0.0,0.0,0.0,0.0,0.0,0.0,0.0,0.0,0.0,0.0,0.0,0.0,0.0,0.0,0.0,0.0,0.0,0.0,0.0,0.0,0.0,0.0,0.0,0.0,0.0,0.0,0.0,0.0,0.0,0.0,2.8026,2.7877,0.0,0.0,0.0,2.7433,2.731,0.0,0.0,0.0,0.0,0.0,0.0,0.0,0.0,0.0,0.0,0.0,0.0,0.0,0.0,0.0,0.0,0.0,0.0,0.0,0.0,0.0,0.0,0.0,0.0,0.0,0.0,0.0,0.0,0.0,0.0,0.0,0.0,0.0,0.0,0.0,0.0,0.0,0.0,0.0,0.0,0.0,0.0,0.0,0.0,0.0,0.0,0.0,0.0,0.0,0.0,0.0,0.0,0.0,0.0,0.0,0.0,0.0,2.4091,2.8222,3.0939,3.2226,3.1877,3.1853,3.219,2.8138,0.0,0.0,0.0,0.0,0.0,0.0,0.0,0.0,0.0,0.0,0.0,0.0,0.0,0.0,0.0,0.0,0.0,0.0,0.0,0.0,0.0,0.0,0.0,0.0,0.0,0.0,0.0,1.5922,0.0,0.0,0.0,0.0,0.0,0.0,0.0,0.0,0.0,0.0,0.0,0.0,0.0,0.0,2.7494,2.8973,2.9291,2.9321,0.0,0.0,2.8912,2.8736,2.9221,2.8512,0.0,0.0,0.0,0.0,0.0,0.0,0.0,0.0,0.0,0.0,0.0,0.0,0.0,0.0,0.0,0.0,0.0,0.0,0.0,0.0,0.0,0.0,0.0,0.0,0.0,0.0,0.0,0.0,0.0,0.0,0.0,0.0,0.0,0.0,0.0,0.0,0.0,0.0,0.0,0.0,0.0,0.0,0.0,0.0,0.0,0.0,0.0,0.0,0.0,0.0,0.0,0.0,0.0,0.0,0.0,2.4164,2.8573,3.112,3.1697,3.1685,3.1685,3.1673,2.9015,2.6358,0.0,0.0,0.0,0.0,0.0,0.0,0.0,0.0,0.0,0.0,0.0,0.0,0.0,0.0,0.0,0.0,0.0,0.0,0.0,0.0,0.0,0.0,0.0,0.0,0.0,0.0,0.0,0.0,0.0,0.0,0.0,0.0,0.0,0.0,0.0,0.0,0.0,0.0,0.0,0.0,0.0,2.8395,2.9318,2.9925,3.0773,0.0,0.0,3.1271,3.2051,3.3332,3.2611,2.7524,0.0,0.0,0.0,0.0,0.0,0.0,0.0,0.0,0.0,0.0,0.0,0.0,0.0,0.0,0.0,0.0,0.0,0.0,0.0,0.0,0.0,0.0,0.0,0.0,0.0,0.0,0.0,0.0,0.0,0.0,0.0,0.0,0.0,0.0,0.0,0.0,0.0,0.0,0.0,0.0,0.0,0.0,0.0,0.0,0.0,0.0,0.0,0.0,0.0,0.0,0.0,0.0,0.0,2.2469,2.3983,2.8855,3.1468,3.1661,3.1997,3.2022,3.1673,2.9112,2.6478,0.0,0.0,0.0,0.0,0.0,0.0,0.0,0.0,0.0,0.0,0.0,0.0,0.0,0.0,0.0,0.0,0.0,0.0,0.0,0.0,0.0,0.0,0.0,0.0,0.0,0.0,0.0,0.0,1.8245,1.8217,1.7807,0.0,0.0,0.0,0.0,0.0,0.0,0.0,0.0,0.0,0.0,3.0117,3.1756,3.1884,0.0,0.0,3.1263,3.0536,3.0227,3.0616,2.9764,2.6135,2.5147,0.0,0.0,0.0,0.0,0.0,0.0,0.0,0.0,0.0,0.0,0.0,0.0,0.0,0.0,0.0,0.0,0.0,0.0,0.0,0.0,0.0,0.0,0.0,0.0,0.0,0.0,0.0,0.0,0.0,0.0,0.0,0.0,0.0,0.0,0.0,0.0,0.0,0.0,0.0,0.0,0.0,0.0,0.0,0.0,0.0,0.0,0.0,0.0,0.0,0.0,0.0,0.0,2.2736,2.4365,2.9386,3.1997,3.2142,3.2382,3.231,3.1865,2.9653,2.7188,0.0,0.0,0.0,0.0,0.0,0.0,0.0,0.0,0.0,0.0,0.0,0.0,0.0,0.0,0.0,0.0,0.0,0.0,0.0,0.0,0.0,0.0,0.0,0.0,0.0,0.0,0.0,0.0,1.8169,1.7841,1.76,0.0,0.0,0.0,0.0,0.0,0.0,0.0,0.0,0.0,0.0,3.0886,3.2357,3.2195,3.1711,3.1283,3.0682,3.0063,2.9669,2.9442,2.8523,2.6302,0.0,0.0,0.0,0.0,0.0,0.0,0.0,0.0,0.0,0.0,0.0,0.0,0.0,0.0,0.0,0.0,0.0,0.0,0.0,0.0,0.0,0.0,0.0,0.0,0.0,0.0,0.0,0.0,0.0,0.0,1.5566,0.0,0.0,0.0,0.0,0.0,0.0,0.0,0.0,0.0,0.0,0.0,0.0,0.0,0.0,0.0,0.0,0.0,0.0,0.0,0.0,0.0,0.0,2.3325,2.5441,3.0109,3.2719,3.32,3.2767,3.2503,3.243,3.0879,2.8763,2.6069,0.0,0.0,0.0,0.0,0.0,0.0,0.0,0.0,0.0,0.0,0.0,0.0,0.0,0.0,0.0,0.0,0.0,0.0,0.0,0.0,0.0,0.0,0.0,0.0,0.0,0.0,1.7058,1.7591,1.7961,0.0,0.0,0.0,0.0,0.0,0.0,0.0,0.0,0.0,0.0,2.8904,3.0316,3.0397,3.0227,3.0125,3.0285,3.0185,3.0384,3.1288,3.112,3.0399,0.0,0.0,0.0,0.0,0.0,0.0,0.0,0.0,0.0,0.0,0.0,0.0,0.0,0.0,0.0,0.0,0.0,0.0,0.0,0.0,0.0,0.0,0.0,0.0,0.0,0.0,0.0,1.9693,1.898,0.0,0.0,0.0,0.0,0.0,0.0,0.0,0.0,0.0,0.0,0.0,2.4828,2.565,0.0,0.0,0.0,0.0,0.0,0.0,0.0,0.0,0.0,0.0,0.0,0.0,2.3634,2.5539,3.041,3.3116,3.3284,3.3116,3.2851,3.2491,3.0939,2.8667,2.5661,0.0,0.0,0.0,0.0,0.0,0.0,0.0,0.0,0.0,0.0,0.0,0.0,0.0,0.0,0.0,0.0,0.0,0.0,0.0,0.0,0.0,0.0,0.0,0.0,0.0,1.7639,0.0,0.0,0.0,0.0,0.0,0.0,0.0,0.0,0.0,0.0,0.0,2.6399,2.7215,2.8717,2.9829,3.0058,2.9535,2.9493,0.0,0.0,0.0,0.0,0.0,0.0,0.0,0.0,0.0,0.0,0.0,0.0,0.0,0.0,2.5189,2.1798,2.1553,2.2009,2.2242,0.0,0.0,0.0,0.0,0.0,0.0,0.0,0.0,0.0,0.0,0.0,0.0,0.0,0.0,2.3182,0.0,2.228,0.0,0.0,0.0,0.0,0.0,0.0,0.0,0.0,2.5679,2.7227,2.7836,2.861,2.8408,0.0,2.6964,2.4658,0.0,0.0,0.0,0.0,0.0,0.0,0.0,0.0,2.4454,2.6262,3.1023,3.3633,3.3789,3.3477,3.3128,3.2743,3.1036,2.8931,2.6502,2.4242,2.2137,0.0,0.0,0.0,0.0,0.0,0.0,0.0,0.0,0.0,0.0,0.0,0.0,0.0,0.0,0.0,0.0,0.0,0.0,0.0,0.0,0.0,0.0,0.0,1.7776,0.0,0.0,0.0,0.0,0.0,0.0,0.0,0.0,0.0,2.3341,2.5884,2.7951,2.8335,2.8899,2.9273,2.9224,0.0,0.0,0.0,0.0,0.0,0.0,0.0,2.5575,2.5268,2.5668,2.6253,2.68,2.79,2.862,2.8525,0.0,0.0,2.4555,2.4286,2.4674,2.5104,2.5594,2.6013,2.6455,2.6469,2.64,0.0,0.0,0.0,0.0,0.0,0.0,0.0,0.0,2.79,2.7662,0.0,2.6376,0.0,0.0,0.0,0.0,0.0,2.4527,0.0,0.0,3.0143,3.1659,3.1038,3.105,3.0975,3.0903,2.9881,2.8626,2.7039,2.3516,0.0,0.0,0.0,0.0,0.0,0.0,2.5648,2.7873,3.1913,3.4282,3.4763,3.3837,3.3308,3.3236,3.1252,2.9665,2.8619,2.7055,2.5023,2.245,1.9829,0.0,0.0,0.0,0.0,0.0,0.0,0.0,0.0,0.0,0.0,0.0,0.0,0.0,0.0,0.0,0.0,0.0,0.0,0.0,0.0,1.8049,0.0,0.0,0.0,0.0,0.0,0.0,0.0,0.0,0.0,0.0,2.4875,2.7222,2.9201,2.9977,0.0,0.0,0.0,0.0,2.7073,2.5928,2.6392,2.7128,2.7514,2.7823,2.8038,2.8569,0.0,0.0,2.9141,2.9088,2.9019,2.8814,2.9638,2.9923,2.8899,2.8132,2.8015,2.8774,2.8068,2.755,2.8123,2.7999,2.7611,3.3759,0.0,0.0,0.0,0.0,3.0569,3.1498,3.3151,3.2701,3.1913,3.0921,3.0377,0.0,0.0,0.0,0.0,0.0,0.0,2.7538,2.9096,3.1005,3.2335,3.3128,3.3525,3.3501,3.3116,3.2466,3.1504,3.035,2.8943,2.5594,2.056,0.0,0.0,0.0,0.0,2.7476,2.9965,3.2659,3.4294,3.4811,3.4174,3.3645,3.3296,3.1937,3.1072,3.0759,2.9593,2.7897,2.5673,2.3412,0.0,0.0,0.0,0.0,0.0,0.0,0.0,0.0,0.0,0.0,0.0,0.0,0.0,0.0,0.0,0.0,0.0,0.0,0.0,1.8449,1.8338,1.8505,0.0,0.0,0.0,0.0,0.0,0.0,0.0,0.0,0.0,2.679,2.7526,2.8218,0.0,0.0,2.661,2.6724,2.6849,2.7008,2.7435,2.7716,0.0,2.8786,2.8229,2.7701,2.8004,2.9133,3.0046,3.0204,3.0904,3.1442,3.141,3.1662,3.1736,3.1515,3.0859,3.0342,3.0518,3.0566,3.0641,3.1127,3.0698,3.0065,3.8517,3.6,3.3675,3.3185,3.3906,3.3633,3.462,3.6327,3.5634,3.4874,3.4237,3.3359,3.1583,2.917,2.7933,0.0,0.0,0.0,2.9917,3.1382,3.2313,3.3266,3.4318,3.4679,3.4655,3.4342,3.4042,3.3561,3.2899,3.1973,2.947,2.538,0.0,0.0,2.4446,2.7128,2.9376,3.118,3.3272,3.4499,3.4811,3.4306,3.3693,3.2996,3.2346,3.1889,3.1661,3.106,2.9929,2.8246,2.6166,2.3664,0.0,0.0,0.0,0.0,0.0,0.0,0.0,0.0,0.0,0.0,0.0,1.6166,1.4559,0.0,0.0,0.0,1.7926,1.8845,1.9665,1.9871,0.0,0.0,0.0,0.0,0.0,0.0,0.0,2.5979,2.7338,2.8299,2.8319,2.8083,2.7978,2.8349,2.7554,2.7052,2.7338,0.0,2.7809,2.8168,2.8242,2.8473,2.922,2.8871,2.8716,2.9333,3.0369,3.1185,3.1478,3.2258,3.2817,3.2845,3.2845,3.289,3.3055,3.2491,3.2097,3.2078,3.2088,3.2264,3.2645,3.219,3.1727,4.2348,4.1901,3.7106,3.5492,3.6003,3.6234,3.6948,3.7861,3.7181,3.6956,3.6909,3.5491,3.3532,3.1248,2.9918,0.0,3.0661,3.1655,3.2609,3.3428,3.3897,3.4354,3.4823,3.4823,3.4823,3.4811,3.4823,3.4823,3.4739,3.338,3.213,3.1048,2.9617,2.8546,2.7981,2.9845,3.118,3.1805,3.3705,3.4739,3.4823,3.4306,3.3585,3.2659,3.2539,3.225,3.1757,3.1685,3.1204,3.0158,2.8222,2.5937,2.334,0.0,0.0,0.0,0.0,0.0,0.0,0.0,0.0,0.0,0.0,0.0,0.0,0.0,0.0,0.0,2.0546,0.0,2.1765,2.232,0.0,0.0,0.0,2.3014,2.3862,2.5911,2.7355,2.7832,0.0,0.0,2.9497,2.8596,2.8505,2.9935,2.9389,2.891,2.8881,2.9053,2.8948,2.8627,2.8627,2.8792,2.9379,2.9929,3.0681,3.1643,3.2377,3.257,3.2615,3.2964,3.3248,3.3266,3.3276,3.3358,3.3743,3.3431,3.3283,3.3128,3.2947,3.2814,3.3016,3.2855,3.2459,4.1082,4.0375,3.9208,3.9202,4.0154,4.0238,3.9828,3.9133,3.8961,3.8323,3.7377,3.6674,3.5311,3.3521,3.3208,3.3032,3.3095,3.3441,3.3881,3.4451,3.4583,3.4715,3.4823,3.4823,3.4823,3.4823,3.4823,3.4823,3.4811,3.4451,3.3741,3.2743,3.2346,3.106,2.9051,3.023,3.1541,3.2899,3.3392,3.4042,3.4787,3.4318,3.3921,3.3681,3.2911,3.2442,3.2298,3.1889,3.136,3.0699,2.9436,2.7705,2.5456,2.1981,0.0,0.0,0.0,0.0,0.0,0.0,0.0,0.0,0.0,1.9095,1.587,0.0,2.0217,0.0,2.2049,2.3824,2.3996,2.4375,0.0,0.0,2.5316,2.6094,2.8224,2.8813,2.8936,2.8708,2.9353,2.9752,2.9589,2.9656,2.9947,3.0917,2.9553,2.8839,2.9757,2.9977,2.9883,2.9846,3.0259,3.0809,3.1176,3.1698,3.2093,3.2404,3.2799,3.3074,3.3074,3.3404,3.3679,3.3679,3.367,3.3725,3.3798,3.3734,3.3651,3.3679,3.3514,3.3422,3.3274,3.3074,3.2955,4.1407,4.0707,4.072,4.0454,3.9978,4.0235,3.9892,3.9216,3.8806,3.8095,3.7075,3.6303,3.5413,3.4511,3.4511,3.4481,3.4378,3.439,3.4547,3.4823,3.4823,3.4823,3.4823,3.4823,3.4823,3.4823,3.4823,3.4823,3.4823,3.4823,3.4535,3.3982,3.3696,3.2626,3.0783,3.1093,3.1673,3.2551,3.3044,3.3789,3.4763,3.4318,3.3693,3.2996,3.201,3.1049,3.0143,2.964,2.913,2.8533,2.7734,2.6554,2.4897,2.2424,2.0476,0.0,0.0,0.0,0.0,0.0,0.0,0.0,0.0,0.0,0.0,0.0,2.2338,2.2366,2.4668,2.6195,2.6408,2.6854,2.7253,2.7401,2.7597,2.8246,2.9715,3.0084,3.0058,2.984,3.0326,3.0636,3.0378,3.058,3.0956,3.157,3.0699,3.0165,3.0653,3.0959,3.1002,3.1029,3.1524,3.1992,3.2239,3.2615,3.2872,3.2909,3.3221,3.3486,3.3496,3.3661,3.3817,3.3817,3.3817,3.3817,3.3817,3.3817,3.3817,3.3817,3.3817,3.3734,3.3532,3.3477,3.3367,4.2177,4.1385,4.1385,4.0102,3.8011,3.8409,3.8469,3.8062,3.744,3.6849,3.643,3.5454,3.5028,3.5028,3.5028,3.5028,3.5028,3.5028,3.5028,3.504,3.5028,3.504,3.5028,3.504,3.4992,3.4931,3.4834,3.4798,3.4726,3.4628,3.4557,3.4437,3.3938,3.3227,3.2195,3.1758,3.1484,3.1496,3.264,3.3623,3.4486,3.3947,3.2903,3.144,3.0494,2.9129,2.7242,2.6755,2.6314,2.5671,2.526,2.466,2.3757,2.2566,2.1394,0.0,1.9565,0.0,0.0,0.0,0.0,0.0,0.0,0.0,0.0,2.4128,2.4703,2.6166,2.759,2.8548,2.8613,2.929,2.9504,2.906,2.9335,2.9667,2.984,3.0433,3.0864,3.0864,3.1212,3.146,3.1433,3.1497,3.168,3.2001,3.2001,3.1772,3.1607,3.179,3.2019,3.2084,3.2423,3.2643,3.2707,3.3019,3.3303,3.334,3.356,3.3807,3.3789,3.3807,3.3817,3.3817,3.3817,3.3817,3.3817,3.3817,3.3817,3.3817,3.3817,3.3807,3.3789,3.378,3.3697,4.1058,3.9634,3.9647,3.9047,3.8063,3.8056,3.6997,3.5224,3.5039,3.5006,3.5211,3.5873,3.6098,3.611,3.611,3.611,3.611,3.6098,3.611,3.611,3.6098,3.6098,3.611,3.611,3.5881,3.5485,3.4963,3.4551,3.4139,3.3755,3.3117,3.2317,3.221,3.1608,3.0652,0.0,0.0,0.0,3.1879,3.2783,3.2925,3.205,3.1009,2.9972,2.8993,0.0,2.6769,2.6609,2.632,2.5796,2.6062,0.0,0.0,0.0,0.0,0.0,0.0,0.0,0.0,0.0,0.0,0.0,2.4504,2.4515,2.519,2.6788,2.7869,2.8046,2.9823,3.0508,2.9515,3.0537,3.0882,3.0074,3.0322,3.0641,3.0983,3.1176,3.1267,3.1277,3.1625,3.1882,3.19,3.2157,3.2377,3.2459,3.2478,3.2459,3.2386,3.2432,3.2478,3.2514,3.2854,3.3101,3.3101,3.3431,3.3661,3.3725,3.3743,3.3817,3.3817,3.3817,3.3817,3.3817,3.3817,3.3817,3.3817,3.3817,3.3817,3.3817,3.3817,3.3817,3.3817,3.3817,3.3789,4.0351,0.0,3.9221,3.8405,0.0,3.7204,3.619,3.4658,3.5709,3.6123,3.6014,3.629,3.6411,3.6362,3.5869,3.5629,3.5605,3.51,3.5148,3.5617,3.5629,3.5905,3.6411,3.6411,3.6075,3.5622,3.5317,3.4871,3.431,3.4106,3.3639,3.3224,3.2685,3.2211,3.1615,3.1065,3.0897,3.0962,3.175,3.2355,3.2808,3.2099,3.1205,3.0217,2.932,0.0,0.0,0.0,0.0,0.0,0.0,0.0,0.0,0.0,0.0,2.595,2.5669,2.5544,2.5869,2.6335,2.7159,2.8426,2.8715,2.8419,2.719,2.8665,2.9641,2.9786,3.0847,3.1335,3.0721,3.144,3.1541,3.088,3.0965,3.1167,3.1332,3.1377,3.146,3.1662,3.1873,3.2074,3.2267,3.2459,3.268,3.2863,3.2909,3.2973,3.3129,3.3019,3.2964,3.3156,3.3358,3.3505,3.3532,3.3661,3.3817,3.3817,3.3817,3.3817,3.3817,3.3817,3.3817,3.3817,3.3817,3.3817,3.3817,3.3817,3.3817,3.3817,3.3817,3.3817,3.3817,3.3817,3.3817,3.9863,3.9161,3.9062,3.8105,3.6675,3.6675,3.6194,3.5485,0.0,0.0,0.0,3.6783,3.6675,3.6615,3.5773,3.5388,3.5328,3.4511,3.4571,3.5376,3.5388,3.5845,3.6663,3.6585,3.624,3.5756,3.5549,3.5179,3.4564,3.4448,3.4448,3.4309,3.3611,3.3179,3.2964,3.2075,3.1628,3.1644,3.1632,3.1854,3.2528,3.2082,3.1438,3.0548,2.9577,2.8433,2.7164,2.6392,2.5738,2.5018,2.5212,2.5344,2.537,2.6212,2.6918,2.725,2.8069,2.8653,2.9037,2.9515,3.0273,3.1384,3.1776,3.1184,2.9311,3.0062,3.0707,3.0943,3.1441,3.1692,3.1426,3.176,3.1898,3.1469,3.1377,3.1368,3.1377,3.1451,3.1634,3.1946,3.2139,3.234,3.2661,3.2799,3.2918,3.3239,3.3331,3.3422,3.3688,3.3514,3.3422,3.3679,3.3743,3.3798,3.3807,3.3807,3.3817,3.3817,3.3817,3.3817,3.3817,3.3817,3.3817,3.3817,3.3817,3.3817,3.3817,3.3817,3.3817,3.3817,3.3817,3.3817,3.3817,3.3817,3.3817,3.9623,3.8755,3.8391,3.8007,3.7757,3.7757,3.7673,3.7493,3.6904,3.6591,3.6567,3.7397,3.7757,3.7745,3.7601,3.7529,3.7541,3.7385,3.7409,3.7529,3.7541,3.7613,3.7757,3.7228,3.6685,3.618,3.531,3.4561,3.3978,3.3615,3.3285,3.3285,3.3208,3.2871,3.2477,3.188,3.1655,3.1614,3.1205,3.0741,3.0155,2.9891,2.953,2.897,2.8176,2.7338,2.6735,2.6594,2.6109,2.5335,2.6325,2.7006,2.7154,2.7991,2.885,2.9642,3.0209,3.0402,3.0144,3.0527,3.0881,3.1025,3.0418,3.0133,3.0691,3.1556,3.1829,3.1081,3.1609,3.1798,3.1095,3.1293,3.1551,3.1488,3.1377,3.1377,3.1405,3.1698,3.1937,3.2056,3.2643,3.3037,3.3138,3.3404,3.3587,3.3697,3.367,3.3743,3.378,3.3771,3.3752,3.3798,3.3817,3.3817,3.3817,3.3817,3.3817,3.3817,3.3817,3.3669,3.3678,3.3678,3.3678,3.3807,3.3678,3.3669,3.3678,3.3817,3.3817,3.3817,3.3807,3.3817,3.3817,3.3817,3.3817,3.9285,3.9164,3.8659,3.8599,3.8864,3.8864,3.8695,3.8407,3.7926,3.7541,3.7324,3.7781,3.7974,3.7926,3.7385,3.7028,3.6704,3.6441,3.626,3.6273,3.6519,3.6814,3.7096,3.6796,3.6356,3.5802,3.538,3.4832,3.4207,3.3506,3.3165,3.3033,3.2369,3.1782,3.1235,3.1006,3.0777,3.0526,3.0611,3.0471,3.0035,2.9521,2.9194,2.8873,2.8467,2.8171,2.7973,2.7744,2.7417,2.7013,2.7988,2.8593,2.8701,2.9282,2.9821,3.0258,3.0505,3.0452,3.0007,3.0652,3.0762,3.027,3.0055,2.9958,2.9968,3.0524,3.0648,3.0315,3.0925,3.1286,3.08,3.1148,3.1377,3.1377,3.1377,3.1469,3.1689,3.1873,3.2175,3.2597,3.2982,3.3303,3.3523,3.3707,3.3817,3.3817,3.3817,3.3817,3.3817,3.3817,3.3817,3.3817,3.3817,3.3817,3.3817,3.3817,3.3817,3.3817,3.3381,3.3242,3.3103,3.2963,3.2693,3.2684,3.2963,3.2963,3.2824,3.3251,3.353,3.3242,3.353,3.3817,3.3817,3.3817,3.3817,3.9405,3.9741,3.9224,3.9236,3.9585,3.9465,3.92,3.8827,3.8671,3.8383,3.801,3.7974,3.7974,3.789,3.7016,3.6359,3.585,3.5426,3.5078,3.5166,3.555,3.5968,3.6208,3.6157,3.5817,3.5378,3.5035,3.4602,3.4166,3.3243,3.2778,3.2727,3.1532,3.08,3.0469,3.0359,3.0138,2.9818,3.0013,3.0065,3.0068,2.9628,2.9303,2.9092,2.9071,2.9092,2.9071,2.8988,2.8712,2.8401,2.9332,2.9641,2.9353,2.987,3.0223,3.0296,3.0313,3.0209,2.9809,3.0241,3.0217,2.9526,2.984,2.9842,2.925,2.9479,2.9709,2.98,3.0595,3.0937,3.0974,3.1185,3.1414,3.1488,3.1524,3.1708,3.2065,3.2212,3.2496,3.312,3.3303,3.3486,3.3725,3.3817,3.3817,3.3817,3.3817,3.3817,3.3817,3.3817,3.3817,3.3817,3.3817,3.3817,3.3817,3.3817,3.3817,3.3807,3.3242,3.2815,3.2666,3.2114,3.17,3.17,3.2123,3.2263,3.185,3.2403,3.2963,3.2535,3.2824,3.3251,3.353,3.353,3.3669,4.027,4.0246,3.9753,3.9549,3.9585,3.9152,3.8912,3.8779,3.8298,3.8034,3.7986,3.7974,3.7974,3.7868,3.7311,3.6932,3.6836,3.6348,3.611,3.6071,3.6236,3.6294,3.6145,3.5708,3.5488,3.5256,3.4022,3.347,3.3243,3.2322,3.1862,3.1812,3.1315,3.098,3.088,3.0418,3.0299,3.0249,2.9564,2.9153,2.9248,2.9953,2.9963,2.9092,2.9102,2.9092,2.9006,2.9807,2.9482,2.8193,2.9367,2.9577,2.8349,2.9152,2.9715,2.9725,3.0058,3.0115,2.9698,2.9357,2.9139,2.9039,2.9194,2.926,2.9479,2.9892,3.0149,3.0259,3.0864,3.1277,3.1322,3.1359,3.1524,3.1854,3.1909,3.2102,3.2487,3.2881,3.3156,3.3202,3.3532,3.378,3.3798,3.3817,3.3817,3.3817,3.3817,3.3817,3.3817,3.3678,3.3669,3.3678,3.3817,3.3669,3.3669,3.3817,3.3669,3.3669,3.3103,3.2666,3.2246,3.1973,3.1559,3.1143,3.1559,3.1559,3.1568,3.17,3.1841,3.1841,3.1841,3.2131,3.2535,3.2815,3.2954,4.0583,4.0812,4.0294,4.0258,4.0439,3.997,3.9573,3.9236,3.837,3.7738,3.7465,3.7131,3.7131,3.7453,3.6916,3.6483,3.6145,3.6266,3.5938,3.529,3.5598,3.5609,3.5168,3.4947,3.4836,3.4836,3.3695,3.313,3.2892,3.1642,3.0723,3.0128,2.9966,2.9764,2.9861,2.9593,2.9613,2.9809,2.9572,2.9283,2.9092,2.8914,2.8694,2.8353,2.8353,2.8229,2.8019,2.8327,2.8218,2.7572,2.8633,2.8967,2.8574,2.8969,2.9277,2.9307,2.9247,2.9212,2.9278,2.912,2.8984,2.8984,2.9204,2.9415,2.958,3.0158,3.0552,3.0616,3.1057,3.1377,3.1377,3.1377,3.1552,3.1918,3.2019,3.2258,3.2909,3.312,3.3294,3.3523,3.3716,3.3817,3.3817,3.3817,3.3817,3.3817,3.3817,3.3678,3.3807,3.3381,3.3103,3.3094,3.2824,3.2684,3.2963,3.2684,3.2544,3.2403,3.1824,3.1392,3.1251,3.0701,3.0291,3.0291,3.0567,3.0701,3.0291,3.0409,3.0534,3.0685,3.1418,3.1709,3.1982,3.2123,3.2114,4.0836,4.11,4.0775,4.0824,4.1124,4.0619,4.0174,3.963,3.8422,3.7575,3.6886,3.6093,3.5697,3.5893,3.5916,3.5829,3.5488,3.5708,3.5389,3.4524,3.4725,3.448,3.4166,3.3818,3.3717,3.3593,3.2789,3.2207,3.1862,3.0713,2.9686,2.9103,2.8984,2.8984,2.8984,2.8984,2.9183,2.9361,2.9448,2.9306,2.8927,2.8431,2.7994,2.7792,2.7756,2.7627,2.7361,2.7558,2.7558,2.7446,2.8087,2.8544,2.8634,2.8776,2.888,2.9013,2.8719,2.8682,2.8966,2.8984,2.8984,2.9021,2.9342,2.9626,2.9837,3.0387,3.0818,3.0965,3.1212,3.1377,3.1377,3.1377,3.1607,3.2074,3.2166,3.2505,3.3257,3.3386,3.3505,3.3762,3.3798,3.3817,3.3817,3.3669,3.3391,3.3391,3.3251,3.3251,3.3112,3.2684,3.2395,3.2386,3.1833,3.1692,3.2254,3.2123,3.1568,3.0985,3.0543,2.9822,2.9679,2.8979,2.8555,2.8395,2.9401,2.9401,2.8539,2.866,2.8939,2.9242,2.9679,3.0107,2.9957,3.025,3.0099,4.116,4.1184,4.116,4.1148,4.1136,4.0631,4.0379,4.011,3.8587,3.7409,3.6362,3.4889,3.3663,3.318,3.4681,3.5367,3.5268,3.4725,3.4513,3.4289,3.3572,3.3233,3.3119,3.2322,3.1977,3.2092,3.1189,3.0265,2.944,2.9213,2.9103,2.8984,2.8984,2.8984,2.8984,2.8984,2.8975,2.903,2.902,2.903,2.9011,2.9011,2.8517,2.7911,2.7783,2.7811,2.7851,2.8521,2.8521,2.7851,2.8521,2.8653,2.8048,2.8284,2.8634,2.8956,2.892,2.8948,2.8975,2.9003,2.9021,2.9058,2.9424,2.9764,3.0149,3.058,3.0956,3.1304,3.1341,3.1377,3.1377,3.1377,3.1708,3.2414,3.2551,3.2909,3.367,3.3725,3.378,3.3807,3.3817,3.3817,3.3807,3.3242,3.2954,3.2815,3.2254,3.1841,3.1841,3.1709,3.17,3.1409,3.1127,3.0693,3.1418,3.1277,3.0835,3.0116,2.925,2.8516,2.7795,2.7223,2.6787,2.6794,2.8099,2.8099,2.6787,2.6495,2.6787,2.6932,2.6779,2.7063,2.7932,2.7346,2.7346,4.1184,4.1184,4.1184,4.1184,4.1124,4.0619,4.0153,3.9616,3.8369,3.7198,3.6095,3.4664,3.3517,3.2985,3.2995,3.3109,3.3109,3.2892,3.2778,3.2789,3.2426,3.2311,3.2197,3.1977,3.1747,3.1632,3.085,2.9922,2.9103,2.8984,2.8984,2.8984,2.8984,2.8984,2.8984,2.8984,2.8984,2.8984,2.8984,2.8984,2.8984,2.8984,2.8828,2.8572,2.8544,2.8425,2.8177,2.8514,2.8505,2.8168,2.8505,2.8626,2.8643,2.8682,2.8819,2.8957,2.8984,2.8984,2.9012,2.9223,2.936,2.9406,2.9984,3.0378,3.0598,3.0928,3.1231,3.1341,3.1377,3.1377,3.1377,3.1377,3.1708,3.2414,3.2606,3.2909,3.3587,3.3817,3.3817,3.3817,3.3817,3.3817,3.3817,3.353,3.3242,3.2815,3.2395,3.2123,3.1559,3.1127,3.0843,3.0701,3.0275,2.9863,3.0006,3.0148,2.9704,2.8835,2.7962,2.7368,2.6641,2.6349,2.6057,2.5765,2.6794,2.7077,2.5911,2.5618,2.5772,2.5185,2.4884,2.5325,2.6196,2.5904,2.5751,4.1184,4.1184,4.1184,4.1184,4.1136,4.08,4.0164,3.9278,3.8103,3.6753,3.528,3.3609,3.2601,3.1958,3.1228,3.0937,3.0937,3.1516,3.1747,3.1747,3.1526,3.1295,3.1295,3.1053,3.0937,3.082,3.0255,2.9558,2.9103,2.8984,2.8984,2.8984,2.8984,2.8984,2.8984,2.8984,2.8984,2.8984,2.8984,2.8984,2.8984,2.8984,2.8984,2.8984,2.8984,2.8865,2.859,2.8581,2.8581,2.8581,2.8581,2.8709,2.8948,2.8984,2.8984,2.8984,2.8984,2.9039,2.9177,2.9424,2.9626,2.9791,3.0369,3.0781,3.0809,3.1157,3.1341,3.1377,3.1377,3.1377,3.1377,3.1377,3.1708,3.2414,3.2597,3.2927,3.3679,3.3807,3.3817,3.3817,3.3817,3.3817,3.3817,3.353,3.3242,3.2666,3.2377,3.1683,3.126,3.0559,2.9838,2.9544,2.8987,2.8411,2.8259,2.8099,2.8099,2.723,2.6939,2.6357,2.5478,2.5185,2.5185,2.5031,2.5031,2.5325,2.5325,2.4891,2.4455,2.3722,2.3722,2.4012,2.4455,2.4596,2.4449,4.1184,4.1057,4.1184,4.0942,4.0803,4.0755,4.0292,3.8843,3.7624,3.5929,3.3911,3.1985,3.1094,2.9981,2.9673,2.9131,2.9615,3.085,3.1516,3.1401,3.0723,3.0392,3.0382,2.9677,2.9331,2.9331,2.9122,2.9112,2.8984,2.8984,2.8984,2.8984,2.8984,2.8984,2.8984,2.8984,2.8984,2.8984,2.8984,2.8984,2.8984,2.8984,2.8984,2.8984,2.8984,2.8975,2.8948,2.8957,2.8938,2.8948,2.8938,2.8975,2.8975,2.8984,2.8984,2.8993,2.8993,2.9186,2.9489,2.9617,2.9883,3.0167,3.0589,3.0855,3.0919,3.1176,3.1377,3.1377,3.1377,3.1377,3.1377,3.1377,3.1708,3.2441,3.2597,3.2936,3.3587,3.3817,3.3817,3.3817,3.3817,3.3817,3.3669,3.3381,3.2954,3.2535,3.1534,3.0534,3.0258,2.9704,2.8851,2.8122,2.7977,2.8122,2.6939,2.5911,2.5904,2.5758,2.5758,2.5325,2.416,2.3574,2.3722,2.3574,2.4153,2.4449,2.416,2.3722,2.329,2.2701,2.285,2.285,2.3141,2.329,2.2999,3.9838,3.9709,3.8873,3.8387,3.8257,3.8387,3.7779,3.6682,3.6553,3.5481,3.3709,3.2716,3.1709,3.0888,2.9925,2.9388,2.9481,2.9817,2.9903,2.9903,2.9558,2.9459,2.9459,2.9103,2.8984,2.903,2.9269,2.9241,2.903,2.8984,2.8984,2.8984,2.8984,2.8984,2.8984,2.8984,2.8984,2.8984,2.8984,2.8984,2.8984,2.8984,2.8984,2.8984,2.8984,2.8984,2.8984,2.8984,2.8984,2.8984,2.8984,2.8984,2.8984,2.8984,2.8984,2.9012,2.925,2.9415,2.9617,3.0094,3.0433,3.0644,3.0974,3.1167,3.1194,3.1295,3.1377,3.1377,3.1377,3.1377,3.1377,3.1377,3.1753,3.2505,3.2606,3.2918,3.3642,3.3817,3.3817,3.3817,3.3817,3.3817,3.3817,3.353,3.3242,3.2675,3.1243,3.0099,2.9385,2.8827,2.7977,2.7543,2.7833,2.7825,2.6648,2.5625,2.5332,2.5178,2.4884,2.4449,2.3283,2.2551,2.2551,2.2701,2.3283,2.3426,2.2992,2.2701,2.2414,2.2265,2.2558,2.2408,2.2414,2.2265,2.2265,3.9592,3.9098,3.8376,3.7539,3.7045,3.7177,3.6449,3.5355,3.5489,3.4594,3.3142,3.2334,3.1751,3.1172,3.0063,2.958,2.9525,2.9159,2.8984,2.9021,2.9159,2.9195,2.9204,2.9204,2.9204,2.9204,2.9305,2.9314,2.9204,2.9058,2.8984,2.8984,2.8984,2.8984,2.8984,2.8984,2.8984,2.8984,2.8984,2.8984,2.8984,2.8984,2.8984,2.8984,2.8984,2.8984,2.8984,2.8984,2.8984,2.8984,2.8984,2.8984,2.8984,2.8984,2.9048,2.9223,2.9434,2.969,3.0011,3.0488,3.0873,3.102,3.124,3.1368,3.1377,3.1377,3.1377,3.1377,3.1377,3.1377,3.1387,3.1533,3.1909,3.2514,3.2597,3.2964,3.3624,3.3817,3.3817,3.3817,3.3817,3.3817,3.3817,3.3817,3.3669,3.2954,3.1815,3.0384,2.9528,2.8683,2.7817,2.6947,2.6364,2.6218,2.6064,2.5485,2.5045,2.4603,2.4153,2.3574,2.2701,2.2408,2.2414,2.2414,2.285,2.285,2.2558,2.2558,2.2265,2.2265,2.2265,2.2265,2.2265,2.2265,2.2265,4.0083,3.911,3.8862,3.7899,3.6814,3.6814,3.5848,3.4746,3.4373,3.3379,3.2044,3.1401,3.0981,3.0779,3.0085,2.9745,2.9544,2.9241,2.903,2.9122,2.936,2.9562,2.9424,2.9525,2.958,2.9479,2.9287,2.9296,2.9479,2.9223,2.9003,2.8984,2.9039,2.903,2.9076,2.903,2.9067,2.9076,2.9012,2.8984,2.8984,2.8984,2.8984,2.8993,2.9039,2.9067,2.9076,2.9085,2.903,2.8993,2.9021,2.9076,2.9039,2.903,2.9296,2.9589,2.9626,3.0057,3.058,3.0809,3.0992,3.1286,3.1341,3.1377,3.1377,3.1377,3.1377,3.1377,3.1377,3.1377,3.1442,3.1717,3.2148,3.2551,3.2771,3.3138,3.3679,3.3817,3.3817,3.3817,3.3817,3.3817,3.3817,3.3817,3.3669,3.353,3.2666,3.1101,3.025,2.8668,2.7215,2.6349,2.5625,2.5185,2.5325,2.4897,2.4314,2.3729,2.3432,2.2992,2.2558,2.2414,2.2265,2.2265,2.2265,2.2265,2.2265,2.2265,2.2265,2.2265,2.2265,2.2265,2.2265,2.2265,2.2265,3.6703,3.6338,3.5355,3.4632,3.4143,3.4007,3.365,3.2775,3.2912,3.2403,3.1607,3.1551,3.1468,3.1148,3.0681,3.0314,2.9984,2.9599,2.9232,2.9131,2.9736,2.9626,2.9397,2.9764,2.9883,2.9663,2.9745,2.9773,2.958,2.9489,2.9287,2.9003,2.9305,2.9424,2.9415,2.9424,2.9415,2.9369,2.9113,2.8993,2.8984,2.8984,2.8984,2.9012,2.9259,2.9388,2.9415,2.9415,2.9269,2.903,2.9278,2.9406,2.9443,2.9672,2.9874,3.003,3.0296,3.0525,3.0781,3.1057,3.1258,3.135,3.1377,3.1377,3.1377,3.1377,3.1377,3.1377,3.1377,3.1377,3.1442,3.1772,3.2294,3.2955,3.3257,3.3514,3.3734,3.3817,3.3817,3.3817,3.3817,3.3817,3.3678,3.3391,3.3233,3.3103,3.1807,3.0091,2.9671,2.8372,2.6779,2.6196,2.5618,2.4884,2.4442,2.4012,2.358,2.285,2.2701,2.2707,2.2414,2.2414,2.2265,2.2265,2.2265,2.2265,2.2265,2.2265,2.2265,2.2265,2.2265,2.2265,2.2265,2.2265,2.2265,3.5725,3.5129,3.4153,3.3408,3.2667,3.2676,3.2422,3.2047,3.2038,3.1901,3.1515,3.1644,3.1644,3.1332,3.0956,3.0671,3.0406,3.002,2.9727,2.9654,3.0158,3.0167,2.9965,3.0286,3.0314,3.0112,3.0158,3.0158,3.0075,2.9929,2.9709,2.9599,2.9718,2.9837,2.9837,2.9828,2.9736,2.9571,2.9333,2.9168,2.9003,2.8984,2.9104,2.9204,2.947,2.9626,2.9791,2.9837,2.9654,2.9379,2.9452,2.9644,2.9837,3.0057,3.0268,3.0433,3.0681,3.0837,3.1038,3.1258,3.1359,3.1377,3.1377,3.1377,3.1377,3.1377,3.1377,3.1377,3.1377,3.1377,3.1478,3.19,3.2606,3.3321,3.3679,3.3817,3.3817,3.3817,3.3817,3.3817,3.3817,3.3669,3.3391,3.2954,3.2815,3.2544,3.1542,3.0392,2.9528,2.7795,2.6488,2.6057,2.5325,2.4449,2.4005,2.3574,2.3426,2.2843,2.2408,2.2265,2.2265,2.2265,2.2265,2.2265,2.2265,2.2265,2.2265,2.2265,2.2265,2.2265,2.2265,2.2265,2.2265,2.2265,2.2265,3.5715,3.4642,3.4248,3.3515,3.2549,3.2294,3.2175,3.1919,3.1919,3.1653,3.1506,3.1377,3.1377,3.1359,3.1066,3.0827,3.0745,3.0406,3.0296,3.0305,3.058,3.069,3.0745,3.0662,3.0699,3.0626,3.0396,3.0479,3.0525,3.0369,3.0231,3.014,3.0185,3.0259,3.0259,3.025,3.0057,2.9837,2.9709,2.9516,2.9305,2.9269,2.9397,2.9617,2.9773,2.9975,3.0185,3.0241,3.0094,2.9727,2.969,2.9938,3.0231,3.0286,3.0506,3.0772,3.0901,3.1038,3.1286,3.135,3.1377,3.1377,3.1377,3.1377,3.1377,3.1377,3.1377,3.1377,3.1377,3.1451,3.1708,3.2239,3.2936,3.3587,3.3798,3.3807,3.3817,3.3817,3.3817,3.3817,3.3817,3.353,3.3094,3.2666,3.2395,3.2395,3.126,3.0266,2.925,2.7939,2.6787,2.5918,2.4891,2.3864,2.3426,2.3135,2.3129,2.2986,2.2551,2.2259,2.2265,2.2265,2.2265,2.2265,2.2265,2.2265,2.2265,2.2265,2.2265,2.2265,2.2265,2.2265,2.2265,2.2265,2.2265,3.3155,3.2912,3.2912,3.2667,3.2422,3.2175,3.1919,3.1919,3.1644,3.1506,3.1377,3.1377,3.1377,3.1377,3.1249,3.1093,3.0846,3.0708,3.0662,3.0671,3.0717,3.0992,3.1102,3.0965,3.0809,3.0781,3.0717,3.0717,3.0745,3.0717,3.0506,3.0305,3.0552,3.0671,3.0662,3.0653,3.0635,3.0479,3.0222,3.0011,2.9901,2.9865,2.992,3.0085,3.0341,3.0543,3.0635,3.0662,3.0607,3.0543,3.0516,3.0543,3.0681,3.091,3.1084,3.1157,3.1222,3.1277,3.1359,3.1377,3.1377,3.1377,3.1377,3.1377,3.1377,3.1396,3.1396,3.1377,3.1387,3.1708,3.2239,3.2771,3.3257,3.367,3.3817,3.3817,3.3817,3.3817,3.3817,3.3817,3.3817,3.3669,3.3391,3.2263,3.1973,3.2114,3.126,3.0132,2.8971,2.7795,2.6779,2.5625,2.4897,2.4012,2.3283,2.2986,2.2986,2.3135,2.2694,2.2259,2.2265,2.2265,2.2265,2.2265,2.2265,2.2265,2.2265,2.2265,2.2265,2.2265,2.2265,2.2265,2.2265,2.2265,2.2265,3.2303,3.2175,3.2029,3.1901,3.1901,3.1772,3.1653,3.1653,3.1515,3.1377,3.1377,3.1377,3.1377,3.1377,3.1368,3.124,3.1112,3.1057,3.1057,3.1066,3.1075,3.1176,3.1295,3.1194,3.1066,3.1066,3.1066,3.1057,3.1066,3.1047,3.0974,3.0781,3.0956,3.1057,3.1066,3.1047,3.0947,3.0763,3.0598,3.0396,3.0231,3.0204,3.0332,3.0516,3.0846,3.1066,3.1066,3.1066,3.1066,3.1066,3.1057,3.1057,3.1075,3.1249,3.1359,3.1377,3.1377,3.1377,3.1377,3.1377,3.1377,3.1377,3.1377,3.1377,3.1451,3.1543,3.1671,3.1717,3.1882,3.223,3.2808,3.3037,3.3404,3.3707,3.3817,3.3817,3.3817,3.3817,3.3669,3.3391,3.3242,3.2815,3.2254,3.1833,3.0693,3.04,2.983,2.8691,2.7665,2.6488,2.605,2.5185,2.4743,2.4012,2.3283,2.2843,2.2843,2.2843,2.2843,2.2408,2.2265,2.2265,2.2265,2.2265,2.2265,2.2265,2.2265,2.2265,2.2265,2.2265,2.2265,2.2265,2.2265,2.2265,2.2265,3.2166,3.1919,3.1644,3.1506,3.1377,3.1377,3.1377,3.1377,3.1377,3.1377,3.1377,3.1377,3.1377,3.1377,3.1377,3.1377,3.1359,3.135,3.1304,3.1304,3.1304,3.1332,3.1359,3.1341,3.1322,3.1368,3.1332,3.1332,3.1332,3.1368,3.1277,3.1332,3.135,3.1313,3.135,3.1359,3.1212,3.0956,3.0901,3.0772,3.0525,3.0479,3.0635,3.0882,3.113,3.1313,3.1313,3.1322,3.135,3.1377,3.1377,3.1377,3.1377,3.1377,3.1377,3.1377,3.1377,3.1377,3.1377,3.1377,3.1377,3.1377,3.1469,3.1488,3.1579,3.1854,3.2056,3.2221,3.2404,3.2771,3.3175,3.3331,3.3496,3.3725,3.3817,3.3817,3.3817,3.3817,3.353,3.3242,3.3242,3.2954,3.2105,3.1542,2.9965,2.8683,2.8259,2.7535,2.6648,2.5911,2.5618,2.4737,2.4308,2.3722,2.2843,2.3283,2.3141,2.3432,2.3283,2.3135,2.2999,2.3438,2.358,2.2414,2.2265,2.2414,2.2414,2.2265,2.2265,2.2265,2.2265,2.2265,2.2265,2.2265,2.2414,3.2175,3.1919,3.1791,3.1653,3.1377,3.1377,3.1377,3.1377,3.1377,3.1377,3.1377,3.1377,3.1377,3.1377,3.1377,3.1377,3.1377,3.1377,3.1377,3.1377,3.1377,3.1377,3.1377,3.1377,3.1377,3.1377,3.1377,3.1377,3.1377,3.1377,3.1377,3.1377,3.1377,3.1377,3.1377,3.1368,3.135,3.1222,3.1212,3.1139,3.1084,3.1066,3.1084,3.1222,3.1332,3.1368,3.1377,3.1377,3.1377,3.1377,3.1377,3.1377,3.1377,3.1377,3.1377,3.1377,3.1377,3.1377,3.1377,3.1405,3.1387,3.1451,3.1708,3.1891,3.1992,3.2258,3.2496,3.2643,3.2863,3.3166,3.3221,3.3486,3.3688,3.3807,3.3817,3.3817,3.3817,3.3817,3.3807,3.353,3.353,3.3251,3.2395,3.1683,3.0826,2.9965,2.9393,2.8532,2.7505,2.6627,2.6189,2.5024,2.3864,2.3135,2.2402,2.3283,2.3722,2.416,2.4308,2.4596,2.4596,2.5185,2.4897,2.3729,2.285,2.2558,2.2558,2.2408,2.2265,2.2265,2.2265,2.2265,2.2265,2.2414,2.2701,3.191,3.1644,3.1644,3.1515,3.1377,3.1377,3.1377,3.1377,3.1377,3.1377,3.1377,3.1377,3.1377,3.1377,3.1377,3.1377,3.1377,3.1377,3.1377,3.1377,3.1377,3.1377,3.1377,3.1377,3.1377,3.1377,3.1377,3.1377,3.1377,3.1377,3.1377,3.1377,3.1377,3.1377,3.1377,3.1377,3.1377,3.1377,3.1377,3.1377,3.1377,3.1377,3.1377,3.1377,3.1377,3.1377,3.1377,3.1377,3.1377,3.1377,3.1377,3.1377,3.1377,3.1377,3.1377,3.1377,3.1377,3.1377,3.1433,3.1543,3.1708,3.1763,3.2084,3.2285,3.2414,3.2661,3.2982,3.3202,3.3321,3.3532,3.3551,3.3716,3.3789,3.3817,3.3817,3.3817,3.3817,3.3817,3.3817,3.3817,3.3381,3.2963,3.2412,3.1833,3.1683,3.1251,3.0676,2.952,2.8364,2.7353,2.6627,2.4884,2.3722,2.358,2.2992,2.3283,2.4308,2.4891,2.5038,2.5325,2.5618,2.5772,2.5478,2.4743,2.4018,2.3432,2.2992,2.2992,2.2707,2.2414,2.2558,2.2558,2.2414,2.2408,2.2992,3.1782,3.1515,3.1506,3.1506,3.1377,3.1377,3.1377,3.1377,3.1377,3.1377,3.1377,3.1377,3.1377,3.1377,3.1377,3.1377,3.1377,3.1377,3.1377,3.1377,3.1377,3.1377,3.1377,3.1377,3.1377,3.1377,3.1377,3.1377,3.1377,3.1377,3.1377,3.1377,3.1377,3.1377,3.1377,3.1377,3.1377,3.1377,3.1377,3.1377,3.1377,3.1377,3.1377,3.1377,3.1377,3.1377,3.1377,3.1377,3.1377,3.1377,3.1377,3.1377,3.1377,3.1377,3.1377,3.1377,3.1377,3.1405,3.1579,3.1763,3.1983,3.212,3.2496,3.267,3.2817,3.3092,3.345,3.3743,3.3798,3.378,3.3752,3.3807,3.3817,3.3817,3.3817,3.3817,3.3817,3.3817,3.3817,3.353,3.3103,3.2535,3.1973,3.1824,3.1666,3.1666,3.1101,3.0233,2.9075,2.7787,2.6627,2.4737,2.387,2.4166,2.3877,2.3283,2.4449,2.5618,2.5478,2.5332,2.5772,2.6064,2.5772,2.5918,2.5478,2.5045,2.4308,2.3722,2.387,2.3722,2.3283,2.3135,2.358,2.3432,2.3432,3.2166,3.1791,3.1791,3.1644,3.1377,3.1377,3.1377,3.1377,3.1377,3.1377,3.1377,3.1377,3.1377,3.1377,3.1377,3.1377,3.1377,3.1377,3.1377,3.1377,3.1377,3.1377,3.1377,3.1377,3.1377,3.1377,3.1377,3.1377,3.1377,3.1377,3.1377,3.1377,3.1377,3.1377,3.1377,3.1377,3.1377,3.1377,3.1377,3.1377,3.1377,3.1377,3.1377,3.1377,3.1377,3.1377,3.1377,3.1377,3.1377,3.1377,3.1377,3.1377,3.1377,3.1377,3.1377,3.1377,3.1414,3.1533,3.1836,3.2019,3.2239,3.2524,3.2909,3.3101,3.3239,3.3441,3.3716,3.378,3.3817,3.3817,3.3817,3.3817,3.3817,3.3817,3.3817,3.3817,3.3817,3.3817,3.3817,3.3391,3.2815,3.2237,3.1525,3.1516,3.1508,3.1657,3.1516,3.0651,2.9655,2.8372,2.7215,2.5472,2.4449,2.475,2.4904,2.4455,2.5038,2.6495,2.5911,2.5625,2.621,2.6801,2.7245,2.7245,2.6801,2.6357,2.5625,2.5325,2.5325,2.5031,2.4449,2.4891,2.5472,2.4891,2.416,3.2511,3.1653,3.1644,3.1515,3.1377,3.1377,3.1377,3.1377,3.1377,3.1377,3.1377,3.1377,3.1377,3.1377,3.1377,3.1377,3.1377,3.1377,3.1377,3.1377,3.1377,3.1377,3.1377,3.1377,3.1377,3.1377,3.1377,3.1377,3.1377,3.1377,3.1377,3.1377,3.1377,3.1377,3.1377,3.1377,3.1377,3.1377,3.1377,3.1377,3.1377,3.1377,3.1377,3.1377,3.1377,3.1377,3.1377,3.1377,3.1377,3.1377,3.1377,3.1377,3.1377,3.1377,3.1377,3.1396,3.1625,3.1818,3.2001,3.2212,3.2542,3.2918,3.3294,3.3551,3.3596,3.3688,3.3817,3.3817,3.3817,3.3817,3.3817,3.3817,3.3817,3.3817,3.3817,3.3817,3.3817,3.3817,3.3678,3.3103,3.2535,3.1675,3.1243,3.1525,3.1516,3.1525,3.1392,3.0676,2.9822,2.8819,2.7665,2.6648,2.5772,2.5332,2.5625,2.5632,2.6364,2.7092,2.6203,2.6203,2.6947,2.7535,2.7825,2.739,2.6357,2.621,2.6502,2.6203,2.5618,2.5618,2.5765,2.6057,2.6203,2.5911,2.5178,3.2492,3.1377,3.1515,3.1515,3.1515,3.1515,3.1506,3.1377,3.1377,3.1377,3.1377,3.1377,3.1377,3.1377,3.1377,3.1377,3.1377,3.1377,3.1377,3.1377,3.1377,3.1377,3.1377,3.1377,3.1377,3.1377,3.1377,3.1377,3.1377,3.1377,3.1377,3.1377,3.1377,3.1377,3.1377,3.1377,3.1377,3.1377,3.1377,3.1377,3.1377,3.1377,3.1377,3.1377,3.1377,3.1377,3.1377,3.1377,3.1377,3.1377,3.1377,3.1377,3.1377,3.1377,3.1377,3.146,3.1708,3.2029,3.2258,3.2542,3.2936,3.3312,3.3578,3.3762,3.378,3.3817,3.3817,3.3817,3.3817,3.3817,3.3817,3.3817,3.3817,3.3817,3.3817,3.3817,3.3678,3.353,3.3251,3.2963,3.2105,3.0977,3.0826,3.1392,3.1675,3.1534,3.126,3.0843,2.9981,2.8979,2.8259,2.7237,2.6794,2.621,2.5918,2.6502,2.739,2.768,2.6794,2.6794,2.768,2.7535,2.739,2.6801,2.621,2.6648,2.7237,2.6502,2.5911,2.6349,2.6648,2.6641,2.6641,2.6342,2.6057,3.1497,3.1377,3.1782,3.1791,3.1791,3.1919,3.1644,3.1377,3.1377,3.1377,3.1377,3.1377,3.1377,3.1377,3.1377,3.1377,3.1377,3.1377,3.1377,3.1377,3.1377,3.1377,3.1377,3.1377,3.1377,3.1377,3.1377,3.1377,3.1377,3.1377,3.1377,3.1377,3.1377,3.1377,3.1377,3.1377,3.1377,3.1377,3.1377,3.1377,3.1377,3.1377,3.1377,3.1377,3.1377,3.1377,3.1377,3.1377,3.1377,3.1377,3.1377,3.1377,3.1377,3.1377,3.1377,3.1561,3.1873,3.223,3.2551,3.2881,3.3321,3.3633,3.3789,3.3817,3.3817,3.3817,3.3817,3.3678,3.353,3.353,3.3669,3.3817,3.3391,3.3391,3.3112,3.2954,3.2954,3.2824,3.2684,3.2535,3.1824,3.0693,3.0124,3.0693,3.0968,3.0826,3.0968,3.0409,2.9855,2.9138,2.8563,2.7977,2.768,2.7092,2.6203,2.6648,2.768,2.797,2.7383,2.768,2.8418,2.7977,2.7245,2.7237,2.7085,2.7535,2.7688,2.6648,2.6203,2.7092,2.7237,2.6787,2.7215,2.7505,2.6925,3.3,3.3126,3.2284,3.1782,3.1644,3.1644,3.1515,3.1377,3.1377,3.1377,3.1377,3.1377,3.1377,3.1377,3.1377,3.1377,3.1377,3.1377,3.1377,3.1377,3.1377,3.1377,3.1377,3.1377,3.1377,3.1377,3.1377,3.1377,3.1377,3.1377,3.1377,3.1377,3.1377,3.1377,3.1377,3.1377,3.1377,3.1377,3.1377,3.1377,3.1377,3.1377,3.1377,3.1377,3.1377,3.1377,3.1377,3.1377,3.1377,3.1377,3.1377,3.1377,3.1377,3.1377,3.1497,3.1735,3.2111,3.2514,3.2863,3.3147,3.3395,3.3707,3.3817,3.3817,3.3669,3.3381,3.3242,3.2963,3.2824,3.2684,3.2403,3.2403,3.2403,3.2403,3.2395,3.2246,3.1956,3.1965,3.1392,3.096,3.0968,3.0409,2.9989,2.9704,2.9989,3.0124,3.0116,3.0116,2.9712,2.9298,2.8859,2.857,2.8418,2.8411,2.7528,2.7673,2.797,2.797,2.797,2.8411,2.8715,2.7985,2.739,2.768,2.7673,2.7528,2.7092,2.6349,2.6349,2.6794,2.6794,2.6495,2.7215,2.8228,2.7658,3.347,3.3381,3.2043,3.1441,3.1497,3.1515,3.1506,3.1377,3.1377,3.1377,3.1377,3.1377,3.1377,3.1377,3.1377,3.1377,3.1377,3.1377,3.1377,3.1377,3.1377,3.1377,3.1377,3.1377,3.1377,3.1377,3.1377,3.1377,3.1377,3.1377,3.1377,3.1377,3.1377,3.1377,3.1377,3.1377,3.1377,3.1377,3.1377,3.1377,3.1377,3.1377,3.1377,3.1377,3.1377,3.1377,3.1377,3.1377,3.1377,3.1377,3.1377,3.1377,3.1377,3.1433,3.1607,3.1974,3.2386,3.278,3.312,3.3386,3.3367,3.3345,3.3381,3.3251,3.3103,3.2675,3.2403,3.2395,3.1841,3.1559,3.1559,3.17,3.1841,3.1982,3.1982,3.1692,3.1251,3.096,3.0099,2.9385,2.9107,2.8668,2.8676,2.8395,2.913,2.9417,2.9704,2.9704,2.9568,2.9298,2.9298,2.9146,2.9002,2.9146,2.9146,2.8851,2.8563,2.8707,2.8707,2.8563,2.8563,2.813,2.7977,2.8266,2.797,2.7383,2.6947,2.6794,2.6648,2.6502,2.6495,2.6488,2.6641,2.7513,2.781,3.2046,3.1549,3.0621,3.0951,3.1707,3.1891,3.1598,3.1249,3.1267,3.1258,3.124,3.1267,3.1277,3.1267,3.1185,3.1212,3.1277,3.1304,3.1341,3.1359,3.1377,3.1377,3.1377,3.1377,3.1377,3.1377,3.1377,3.1377,3.1377,3.1377,3.1377,3.1377,3.1377,3.1377,3.1377,3.1377,3.1377,3.1377,3.1377,3.1377,3.1377,3.1377,3.1377,3.1377,3.1377,3.1377,3.1377,3.1377,3.1377,3.1377,3.1377,3.1377,3.1377,3.1377,3.1607,3.2047,3.2404,3.2799,3.3211,3.3578,3.3466,3.2806,3.2684,3.2544,3.1982,3.17,3.1559,3.1551,3.1418,3.1418,3.1418,3.1418,3.1277,3.1277,3.1135,3.0843,3.0258,3.0116,2.9401,2.8676,2.7215,2.6196,2.6495,2.7085,2.8114,2.8707,2.9146,2.9298,2.9298,2.9298,2.9298,2.9298,2.9298,2.9298,2.9298,2.9298,2.9146,2.9298,2.9298,2.9002,2.9002,2.8859,2.8859,2.8859,2.8707,2.8266,2.7825,2.7535,2.7245,2.7092,2.6925,2.6917,2.6925,2.7223,2.8091,3.0801,3.067,3.0318,3.0632,3.1055,3.0834,3.0733,3.0598,3.0598,3.0607,3.0598,3.0598,3.0598,3.0598,3.0671,3.0772,3.0965,3.0992,3.1047,3.1359,3.1368,3.1377,3.1377,3.1377,3.1377,3.1377,3.1377,3.1377,3.1377,3.1377,3.1377,3.1377,3.1377,3.1377,3.1377,3.1377,3.1377,3.1377,3.1377,3.1377,3.1377,3.1377,3.1377,3.1377,3.1377,3.1377,3.1377,3.1377,3.1377,3.1377,3.1377,3.1377,3.1377,3.1377,3.1698,3.2194,3.2615,3.2927,3.3404,3.3623,3.3242,3.2403,3.2114,3.1982,3.1568,3.0985,3.0835,3.0693,3.0567,3.0425,3.0006,3.0006,3.0006,3.0006,2.9855,2.9274,2.8835,2.9274,2.8995,2.8547,2.7383,2.7528,2.7673,2.7092,2.7825,2.8411,2.8851,2.9146,2.9146,2.929,2.929,2.9298,2.9298,2.9298,2.9298,2.9298,2.9298,2.9298,2.9298,2.9298,2.9298,2.9298,2.9298,2.9146,2.9146,2.9146,2.8707,2.8274,2.7977,2.7825,2.7802,2.7353,2.7208,2.8076,2.9512,3.0382,3.027,2.9904,2.992,3.0158,3.0185,3.0204,3.0204,3.0204,3.0204,3.0213,3.0213,3.0222,3.0222,3.0231,3.0286,3.0598,3.0754,3.0837,3.1194,3.1341,3.1359,3.1377,3.1368,3.1377,3.1377,3.1377,3.1377,3.1377,3.1377,3.1377,3.1377,3.1377,3.1377,3.1377,3.1377,3.1377,3.1377,3.1377,3.1377,3.1377,3.1377,3.1377,3.1377,3.1377,3.1377,3.1377,3.1377,3.1377,3.1377,3.1377,3.1377,3.1377,3.1469,3.1808,3.234,3.2964,3.3121,3.3237,3.3372,3.2684,3.185,3.1841,3.1841,3.17,3.1268,3.0985,3.0701,2.9997,2.9855,2.972,2.9568,2.929,2.929,2.9146,2.8699,2.8707,2.9002,2.8707,2.8122,2.7825,2.8122,2.8418,2.7977,2.7535,2.8122,2.8563,2.8707,2.8859,2.9002,2.9146,2.9298,2.9298,2.9298,2.9298,2.9298,2.9298,2.9298,2.9298,2.9298,2.9298,2.9298,2.9298,2.9298,2.9298,2.9298,2.9298,2.9002,2.8707,2.8699,2.8683,2.8236,2.765,2.8508,2.9655,3.0748,3.0294,2.9331,2.9039,2.9168,2.9855,3.014,3.014,3.0158,3.0158,3.0158,3.0167,3.0158,3.0158,3.0158,3.0195,3.025,3.0552,3.0717,3.0892,3.1139,3.124,3.1313,3.135,3.1368,3.1377,3.1377,3.1377,3.1377,3.1377,3.1377,3.1377,3.1377,3.1377,3.1377,3.1377,3.1377,3.1377,3.1377,3.1377,3.1377,3.1377,3.1377,3.1377,3.1377,3.1377,3.1377,3.1377,3.1377,3.1377,3.1377,3.1377,3.1377,3.1377,3.1891,3.2496,3.3239,3.3146,3.2986,3.3004,3.2824,3.2263,3.2395,3.2114,3.17,3.1277,3.0985,3.0843,3.0417,3.0266,3.0124,2.956,2.9146,2.9146,2.9146,2.8995,2.9002,2.8715,2.8274,2.7688,2.7237,2.7237,2.7528,2.7237,2.7535,2.7535,2.7977,2.797,2.8122,2.8418,2.8707,2.9298,2.9298,2.9298,2.9298,2.9298,2.9298,2.9298,2.9298,2.9298,2.9298,2.9298,2.9298,2.9298,2.9298,2.9298,2.9298,2.9298,2.9154,2.9282,2.9266,2.8963,2.8228,2.7939,2.8652,2.9552,2.9331,2.9103,2.914,2.9415,2.9654,2.9599,2.9388,2.9608,2.9755,2.9773,3.0075,2.9984,2.9773,2.9755,2.9938,3.003,3.0112,3.0378,3.0626,3.0882,3.0937,3.1057,3.1212,3.1322,3.1377,3.1377,3.1377,3.1377,3.1377,3.1377,3.1377,3.1377,3.1377,3.1377,3.1377,3.1377,3.1377,3.1377,3.1377,3.1377,3.1377,3.1377,3.1377,3.1377,3.1377,3.1377,3.1377,3.1377,3.1377,3.1377,3.1377,3.1377,3.1396,3.168,3.2157,3.2854,3.3249,3.3157,3.3375,3.3251,3.2824,3.2815,3.2254,3.17,3.1277,3.0985,3.0843,3.0417,3.0132,2.9695,2.913,2.8995,2.9146,2.8851,2.8563,2.8563,2.8707,2.813,2.768,2.7237,2.7237,2.7383,2.7237,2.7535,2.739,2.739,2.7383,2.768,2.7977,2.8563,2.9146,2.9298,2.9298,2.9298,2.9298,2.9298,2.9298,2.9298,2.9298,2.9298,2.9298,2.9298,2.9298,2.9298,2.9298,2.9298,2.929,2.9577,2.9425,2.9274,2.9115,2.8963,2.8812,2.866,2.8984,2.8984,2.8984,2.9122,2.9314,2.9342,2.9186,2.9058,2.9241,2.9342,2.9369,2.958,2.958,2.9379,2.936,2.9544,2.9892,2.9782,2.9965,3.0378,3.0552,3.069,3.0846,3.102,3.1203,3.1295,3.1368,3.1377,3.1377,3.1377,3.1377,3.1377,3.1377,3.1377,3.1377,3.1377,3.1377,3.1377,3.1377,3.1377,3.1377,3.1377,3.1377,3.1377,3.1377,3.1377,3.1377,3.1377,3.1377,3.1377,3.1377,3.1377,3.1433,3.1515,3.1671,3.2166,3.278,3.3184,3.3185,3.3477,3.3605,3.3381,3.2945,3.2403,3.1841,3.1277,3.1127,3.0985,3.0275,2.9704,2.9122,2.8691,2.8851,2.9146,2.8563,2.7977,2.8122,2.8418,2.8266,2.797,2.7825,2.7825,2.7833,2.7535,2.7535,2.739,2.7535,2.7825,2.7833,2.813,2.857,2.9154,2.9298,2.9298,2.9298,2.9298,2.9298,2.9298,2.9298,2.9298,2.9298,2.9298,2.9298,2.9298,2.9298,2.9433,2.9568,2.9712,2.9847,2.9847,2.9847,2.983,2.9965,3.0242,3.0091,2.8984,2.8984,2.8984,2.8993,2.8984,2.9012,2.8993,2.8984,2.9012,2.9021,2.9076,2.9122,2.9223,2.9241,2.9223,2.9351,2.9553,2.9534,2.9654,3.014,3.0149,3.0268,3.0488,3.0772,3.1011,3.1231,3.1359,3.1377,3.1377,3.1377,3.1377,3.1377,3.1377,3.1377,3.1377,3.1377,3.1377,3.1377,3.1377,3.1377,3.1377,3.1377,3.1377,3.1377,3.1377,3.1377,3.1377,3.1377,3.1377,3.1377,3.1377,3.1377,3.1488,3.1625,3.1836,3.1943,3.2436,3.2547,3.2648,3.2956,3.2914,3.2726,3.2508,3.1965,3.1409,3.1127,3.0985,3.0843,3.0132,2.9855,2.9274,2.8403,2.8266,2.8563,2.8418,2.7833,2.7833,2.768,2.7237,2.6939,2.7085,2.7092,2.6939,2.6648,2.6794,2.7092,2.7245,2.7535,2.768,2.7688,2.8418,2.8859,2.9154,2.9298,2.9298,2.9298,2.9298,2.9298,2.9298,2.9298,2.9298,2.9298,2.9298,2.9298,2.9298,2.9712,2.9989,3.0132,3.0417,3.0843,3.0843,3.0685,3.0818,3.1384,3.0801,2.8984,2.8984,2.8984,2.8984,2.8984,2.8984,2.8984,2.8984,2.8984,2.914,2.9443,2.969,2.9663,2.9351,2.9333,2.9443,2.9489,2.9333,2.9415,2.9635,2.9745,2.9828,3.002,3.0442,3.0763,3.0992,3.1167,3.1341,3.1377,3.1377,3.1377,3.1377,3.1377,3.1377,3.1377,3.1377,3.1377,3.1377,3.1377,3.1377,3.1377,3.1377,3.1377,3.1377,3.1377,3.1377,3.1377,3.1377,3.1377,3.1377,3.1377,3.1377,3.1387,3.1497,3.1533,3.1504,3.1679,3.1675,3.1774,3.1868,3.1755,3.1496,3.1162,3.0901,3.0693,3.0685,3.0543,3.04,3.0132,2.9855,2.9282,2.8411,2.7833,2.813,2.8274,2.7833,2.739,2.6801,2.621,2.6057,2.6203,2.6057,2.5904,2.5911,2.6203,2.6203,2.6203,2.6349,2.6357,2.6648,2.7535,2.8266,2.901,2.9154,2.9154,2.9298,2.9298,2.9298,2.9298,2.9298,2.9298,2.9298,2.9298,2.9298,2.9433,2.9712,3.0132,3.0266,3.0701,3.1551,3.1841,3.1683,3.1956,3.2517,3.1367,2.9213,2.9568,2.9222,2.8984,2.8984,2.8984,2.8984,2.8984,2.8984,2.9104,2.9296,2.9525,2.9525,2.9314,2.9314,2.9461,2.9452,2.9159,2.9314,2.9461,2.9415,2.947,2.9736,3.0066,3.0296,3.0552,3.0919,3.1148,3.1313,3.1377,3.1377,3.1377,3.1377,3.1377,3.1377,3.1377,3.1377,3.1377,3.1377,3.1377,3.1377,3.1377,3.1377,3.1377,3.1377,3.1377,3.1377,3.1377,3.1377,3.1377,3.1377,3.1377,3.1377,3.1405,3.1396,3.1377,3.124,3.0946,3.0972,3.0733,3.0574,3.0279,3.019,3.0004,2.9412,2.942,2.9571,2.947,2.9679,2.9433,2.9146,2.8418,2.8418,2.8563,2.813,2.7688,2.6808,2.6071,2.5772,2.5911,2.5911,2.5911,2.5911,2.5911,2.5911,2.5765,2.5618,2.5618,2.5618,2.5709,2.675,2.7468,2.8159,2.8524,2.8266,2.8707,2.9298,2.9298,2.9298,2.9298,2.9298,2.9298,2.9298,2.9298,2.9433,2.9712,2.9989,3.0359,3.1243,3.2105,3.2395,3.2675,3.3085,3.3215,3.2508,2.9459,3.003,2.9331,2.8984,2.8984,2.8984,2.8984,2.8984,2.8984,2.8984,2.9012,2.903,2.8984,2.8984,2.9003,2.9232,2.9296,2.9094,2.9241,2.9278,2.9149,2.9223,2.9379,2.9608,2.9938,3.025,3.058,3.0937,3.1222,3.1231,3.124,3.1341,3.1377,3.1377,3.1377,3.1377,3.1377,3.1377,3.1377,3.1377,3.1377,3.1377,3.1377,3.1377,3.1377,3.1377,3.1377,3.1377,3.1377,3.1377,3.1377,3.1377,3.1377,3.1377,3.1249,3.1081,3.0713,3.0496,3.0371,2.996,2.9604,2.9286,2.9294,2.9053,2.8371,2.8376,2.8662,2.8821,2.9028,2.9012,2.8725,2.8613,2.8757,2.8827,2.8099,2.7468,2.6583,2.5576,2.559,2.573,2.5723,2.5723,2.5911,2.5911,2.5604,2.5465,2.5318,2.5318,2.5444,2.5486,2.6018,2.6539,2.7056,2.7296,2.762,2.8099,2.8971,2.9298,2.9298,2.9298,2.9298,2.9298,2.9298,2.9298,2.9433,2.9671,3.0026,3.0518,3.1414,3.2219,3.2506,3.2601,3.3227,3.3375,3.3354,2.9103,2.9222,2.9094,2.8984,2.8984,2.8984,2.8984,2.8984,2.8984,2.8984,2.8984,2.8984,2.8984,2.8984,2.8984,2.9085,2.9131,2.9003,2.9003,2.903,2.903,2.9067,2.9168,2.9397,2.98,3.0075,3.0286,3.0543,3.0956,3.0983,3.1084,3.1359,3.1377,3.1377,3.1377,3.1377,3.1377,3.1377,3.1377,3.1377,3.1377,3.1377,3.1377,3.1377,3.1377,3.1377,3.1377,3.1377,3.1377,3.1377,3.1377,3.1377,3.1377,3.1249,3.0991,3.062,3.0119,2.9602,2.9226,2.901,2.8611,2.8524,2.8461,2.864,2.8236,2.8114,2.8281,2.8281,2.8464,2.849,2.8405,2.8239,2.8294,2.8496,2.8144,2.7704,2.6897,2.612,2.5756,2.5735,2.5569,2.5937,2.6203,2.6029,2.5688,2.5535,2.5222,2.5222,2.5068,2.5264,2.527,2.5475,2.5813,2.6905,2.7408,2.7742,2.8341,2.8819,2.9298,2.9298,2.9298,2.9298,2.9298,2.9298,2.9361,2.944,2.9919,3.0194,3.083,3.1469,3.2014,3.2489,3.3001,3.3331,3.3386]},{"header":{"parameterUnit":"m.s-1","parameterCategory":1,"la1":31.0,"la2":29.5877,"lo1":-88.7671,"lo2":-86.6584,"dy":0.0162,"dx":0.0185,"nx":115,"ny":88,"refTime":"2024-09-12T00:00:00:Z","depth":0,"parameterNumber":3,"parameterNumberName":"V-component_of_WINDS"},"data":[0.0,0.0,0.0,0.0,0.0,0.0,0.0,0.0,0.0,0.0,0.0,0.0,0.0,0.0,0.0,0.0,0.0,0.0,0.0,0.0,0.0,0.0,0.0,0.0,0.0,0.0,0.0,0.0,0.0,0.0,0.0,0.0,0.0,0.0,0.0,0.0,0.0,0.0,0.0,0.0,0.0,0.0,0.0,0.0,0.0,0.0,0.0,0.0,0.0,0.0,0.0,0.0,0.0,0.0,0.0,0.0,0.0,0.0,0.0,0.0,0.0,0.0,0.0,0.0,0.0,0.0,0.0,0.0,0.0,0.0,0.0,0.0,0.0,0.0,0.0,0.0,0.0,0.0,0.0,0.0,0.0,0.0,0.0,0.0,0.0,0.0,0.0,0.0,0.0,0.0,0.0,0.0,0.0,0.0,0.0,0.0,0.0,0.0,0.0,0.0,0.0,0.0,0.0,0.0,0.0,0.0,0.0,0.0,0.0,0.0,0.0,0.0,0.0,0.0,0.0,0.0,0.0,0.0,0.0,0.0,0.0,0.0,0.0,0.0,0.0,0.0,0.0,0.0,0.0,0.0,0.0,0.0,0.0,0.0,0.0,0.0,0.0,0.0,0.0,0.0,0.0,0.0,0.0,0.0,0.0,0.0,0.0,0.0,0.0,0.0,0.0,0.0,0.0,0.0,0.0,0.0,0.0,0.0,0.0,0.0,0.0,0.0,0.0,0.0,0.0,0.0,0.0,0.0,0.0,0.0,0.0,0.0,0.0,0.0,0.0,0.0,0.0,0.0,0.0,0.0,0.0,0.0,0.0,0.0,0.0,0.0,0.0,0.0,0.0,0.0,0.0,0.0,0.0,0.0,0.0,0.0,0.0,0.0,0.0,0.0,0.0,0.0,0.0,0.0,0.0,0.0,0.0,0.0,0.0,0.0,0.0,0.0,0.0,0.0,0.0,0.0,0.0,0.0,0.0,0.0,0.0,0.0,0.0,0.0,0.0,0.0,0.0,0.0,0.0,0.0,0.0,0.0,0.0,0.0,0.0,0.0,0.0,0.0,0.0,0.0,0.0,0.0,0.0,0.0,0.0,0.0,0.0,0.0,0.0,0.0,0.0,0.0,0.0,0.0,0.0,0.0,0.0,0.0,0.0,0.0,0.0,0.0,0.0,0.0,0.0,0.0,0.0,0.0,0.0,0.0,0.0,0.0,0.0,0.0,0.0,0.0,0.0,0.0,0.0,0.0,0.0,0.0,0.0,0.0,0.0,0.0,0.0,0.0,0.0,0.0,0.0,0.0,0.0,0.0,0.0,0.0,0.0,0.0,0.0,0.0,0.0,0.0,0.0,0.0,0.0,0.0,0.0,0.0,0.0,0.0,0.0,0.0,0.0,0.0,0.0,0.0,0.0,0.0,0.0,0.0,0.0,0.0,0.0,0.0,0.0,0.0,0.0,0.0,0.0,0.0,0.0,0.0,0.0,0.0,0.0,0.0,0.0,0.0,0.0,0.0,0.0,0.0,0.0,0.0,0.0,0.0,0.0,0.0,0.0,0.0,0.0,0.0,0.0,0.0,0.0,0.0,0.0,0.0,0.0,0.0,0.0,0.0,0.0,0.0,0.0,0.0,0.0,0.0,0.0,0.0,0.0,0.0,0.0,0.0,0.0,0.0,0.0,0.0,0.0,0.0,0.0,0.0,0.0,0.0,0.0,0.0,0.0,0.0,0.0,0.0,0.0,0.0,0.0,0.0,0.0,0.0,0.0,0.0,0.0,0.0,0.0,0.0,0.0,0.0,0.0,0.0,0.0,0.0,0.0,0.0,0.0,0.0,0.0,0.0,0.0,0.0,0.0,0.0,0.0,0.0,0.0,0.0,0.0,0.0,0.0,0.0,0.0,0.0,0.0,0.0,0.0,0.0,0.0,0.0,0.0,0.0,0.0,0.0,0.0,0.0,0.0,0.0,0.0,0.0,0.0,0.0,0.0,0.0,0.0,0.0,0.0,0.0,0.0,0.0,0.0,0.0,0.0,0.0,0.0,0.0,0.0,0.0,0.0,0.0,0.0,0.0,0.0,0.0,0.0,0.0,0.0,0.0,0.0,0.0,0.0,0.0,0.0,0.0,0.0,0.0,0.0,0.0,0.0,0.0,0.0,0.0,0.0,0.0,0.0,0.0,0.0,0.0,0.0,0.0,0.0,0.0,0.0,0.0,0.0,0.0,0.0,0.0,0.0,0.0,0.0,0.0,0.0,0.0,0.0,0.0,0.0,0.0,0.0,0.0,0.0,0.0,0.0,0.0,0.0,0.0,0.0,0.0,0.0,0.0,0.0,0.0,0.0,0.0,0.0,0.0,0.0,0.0,0.0,0.0,0.0,0.0,0.0,0.0,0.0,0.0,0.0,0.0,0.0,0.0,0.0,0.0,0.0,0.0,0.0,0.0,0.0,0.0,0.0,0.0,0.0,0.0,0.0,0.0,0.0,0.0,0.0,0.0,0.0,0.0,0.0,0.0,0.0,0.0,0.0,0.0,0.0,0.0,0.0,0.0,0.0,0.0,0.0,0.0,0.0,0.0,0.0,0.0,0.0,0.0,0.0,0.0,0.0,0.0,0.0,0.0,0.0,0.0,0.0,0.0,0.0,0.0,0.0,0.0,0.0,0.0,0.0,0.0,0.0,0.0,0.0,0.0,0.0,0.0,0.0,0.0,0.0,0.0,0.0,0.0,0.0,0.0,0.0,0.0,0.0,0.0,0.0,0.0,0.0,0.0,0.0,0.0,0.0,0.0,0.0,0.0,0.0,0.0,0.0,0.0,0.0,0.0,0.0,0.0,0.0,0.0,0.0,0.0,0.0,0.0,0.0,0.0,0.0,0.0,0.0,0.0,0.0,0.0,0.0,0.0,0.0,0.0,0.0,0.0,0.0,0.0,0.0,0.0,0.0,0.0,0.0,0.0,0.0,0.0,0.0,0.0,0.0,0.0,0.0,0.0,0.0,0.0,0.0,0.0,0.0,0.0,0.0,0.0,0.0,0.0,0.0,0.0,0.0,0.0,0.0,0.0,0.0,0.0,0.0,0.0,0.0,0.0,0.0,0.0,0.0,0.0,0.0,0.0,0.0,0.0,0.0,0.0,0.0,0.0,0.0,0.0,0.0,0.0,0.0,0.0,0.0,0.0,0.0,0.0,0.0,0.0,0.0,0.0,0.0,0.0,0.0,0.0,0.0,0.0,0.0,0.0,0.0,0.0,0.0,0.0,0.0,0.0,0.0,0.0,0.0,0.0,0.0,0.0,0.0,0.0,0.0,0.0,0.0,0.0,0.0,0.0,0.0,0.0,0.0,0.0,0.0,0.0,0.0,0.0,0.0,0.0,0.0,0.0,0.0,0.0,0.0,0.0,0.0,0.0,0.0,0.0,0.0,0.0,0.0,0.0,0.0,0.0,0.0,0.0,0.0,0.0,0.0,0.0,0.0,0.0,0.0,0.0,0.0,0.0,0.0,0.0,0.0,0.0,0.0,0.0,0.0,0.0,0.0,0.0,0.0,0.0,0.0,0.0,0.0,0.0,0.0,0.0,0.0,0.0,0.0,0.0,0.0,0.0,0.0,0.0,0.0,0.0,0.0,0.0,0.0,0.0,0.0,0.0,0.0,0.0,0.0,0.0,0.0,0.0,0.0,0.0,0.0,0.0,0.0,0.0,0.0,0.0,0.0,0.0,0.0,0.0,0.0,0.0,0.0,0.0,0.0,0.0,0.0,0.0,0.0,0.0,0.0,0.0,0.0,0.0,0.0,0.0,0.0,0.0,0.0,0.0,0.0,0.0,0.0,0.0,0.0,0.0,0.0,0.0,0.0,0.0,0.0,0.0,0.0,0.0,0.0,0.0,0.0,0.0,0.0,0.0,0.0,0.0,0.0,0.0,0.0,0.0,0.0,0.0,0.0,0.0,0.0,0.0,0.0,0.0,0.0,0.0,0.0,0.0,0.0,0.0,0.0,0.0,0.0,0.0,0.0,0.0,0.0,0.0,0.0,0.0,0.0,0.0,0.0,0.0,0.0,0.0,0.0,0.0,0.0,0.0,0.0,0.0,0.0,0.0,0.0,0.0,0.0,0.0,0.0,0.0,0.0,0.0,0.0,0.0,0.0,0.0,0.0,0.0,0.0,0.0,0.0,0.0,0.0,0.0,0.0,0.0,0.0,0.0,0.0,0.0,0.0,0.0,0.0,0.0,0.0,0.0,0.0,0.0,0.0,0.0,0.0,0.0,0.0,0.0,0.0,0.0,1.8175,0.0,0.0,0.0,0.0,0.0,0.0,0.0,0.0,0.0,0.0,0.0,0.0,0.0,0.0,0.0,0.0,0.0,0.0,0.0,0.0,0.0,0.0,0.0,0.0,0.0,0.0,0.0,0.0,0.0,0.0,0.0,0.0,0.0,0.0,0.0,0.0,0.0,0.0,0.0,0.0,0.0,0.0,0.0,0.0,0.0,0.0,0.0,0.0,0.0,0.0,0.0,0.0,0.0,0.0,0.0,0.0,0.0,0.0,0.0,0.0,0.0,0.0,0.0,0.0,0.0,0.0,0.0,0.0,0.0,0.0,0.0,0.0,0.0,0.0,0.0,0.0,0.0,0.0,0.0,0.0,0.0,0.0,0.0,0.0,0.0,0.0,0.0,0.0,0.0,0.0,0.0,0.0,0.0,0.0,0.0,0.0,0.0,0.0,0.0,0.0,0.0,0.0,0.0,0.0,0.0,0.0,0.0,0.0,0.0,0.0,1.9147,1.9545,1.9061,1.8604,1.8206,0.0,0.0,0.0,0.0,0.0,0.0,0.0,0.0,0.0,0.0,0.0,0.0,0.0,0.0,0.0,0.0,0.0,0.0,0.0,0.0,0.0,0.0,0.0,0.0,0.0,0.0,0.0,0.0,0.0,0.0,0.0,0.0,0.0,0.0,0.0,0.0,0.0,0.0,0.0,0.0,0.0,0.0,0.0,0.0,0.0,0.0,0.0,0.0,0.0,0.0,0.0,0.0,0.0,0.0,0.0,0.0,0.0,0.0,0.0,0.0,0.0,0.0,0.0,0.0,0.0,0.0,0.0,0.0,0.0,0.0,0.0,0.0,0.0,0.0,0.0,0.0,0.0,0.0,0.0,0.0,0.0,0.0,0.0,0.0,0.0,0.0,0.0,0.0,0.0,0.0,0.0,0.0,0.0,0.0,0.0,0.0,0.0,0.0,0.0,0.0,0.0,0.0,0.0,0.0,0.0,0.0,0.0,0.0,0.0,0.0,0.0,0.0,1.9491,1.9159,1.8555,0.0,0.0,0.0,0.0,0.0,0.0,0.0,0.0,0.0,0.0,0.0,0.0,0.0,0.0,0.0,0.0,0.0,0.0,0.0,0.0,0.0,0.0,0.0,0.0,0.0,0.0,0.0,0.0,0.0,0.0,0.0,0.0,0.0,0.0,0.0,0.0,0.0,0.0,0.0,0.0,0.0,0.0,0.0,0.0,0.0,0.0,0.0,0.0,0.0,0.0,0.0,0.0,0.0,0.0,0.0,0.0,0.0,0.0,0.0,0.0,0.0,0.0,0.0,0.0,0.0,0.0,0.0,0.0,0.0,0.0,0.0,0.0,0.0,0.0,0.0,0.0,0.0,0.0,0.0,0.0,0.0,0.0,0.0,0.0,0.0,0.0,0.0,0.0,0.0,0.0,0.0,0.0,0.0,0.0,0.0,0.0,0.0,0.0,0.0,0.0,0.0,0.0,0.0,0.0,0.0,0.0,0.0,0.0,0.0,0.0,1.796,1.9383,1.9703,0.0,1.9531,0.0,0.0,0.0,0.0,0.0,0.0,0.0,0.0,0.0,0.0,0.0,0.0,0.0,0.0,0.0,0.0,0.0,0.0,0.0,0.0,0.0,0.0,0.0,0.0,0.0,0.0,0.0,0.0,0.0,0.0,0.0,0.0,0.0,0.0,0.0,0.0,0.0,0.0,0.0,0.0,0.0,0.0,0.0,0.0,0.0,0.0,0.0,0.0,0.0,0.0,0.0,0.0,0.0,0.0,0.0,0.0,0.0,0.0,0.0,0.0,0.0,0.0,0.0,0.0,0.0,0.0,0.0,0.0,0.0,0.0,0.0,0.0,0.0,0.0,0.0,0.0,0.0,0.0,0.0,0.0,0.0,0.0,0.0,0.0,0.0,0.0,0.0,0.0,0.0,0.0,0.0,0.0,0.0,0.0,0.0,0.0,0.0,0.0,0.0,0.0,0.0,0.0,0.0,0.0,0.0,0.0,0.0,0.0,0.0,0.0,1.8726,1.961,1.9581,1.9497,0.0,0.0,0.0,0.0,0.0,0.0,0.0,0.0,0.0,0.0,0.0,0.0,0.0,0.0,0.0,0.0,0.0,0.0,0.0,0.0,0.0,0.0,0.0,0.0,0.0,0.0,0.0,0.0,0.0,0.0,0.0,0.0,0.0,0.0,0.0,0.0,0.0,0.0,0.0,0.0,0.0,0.0,0.0,0.0,0.0,0.0,0.0,0.0,0.0,0.0,0.0,0.0,0.0,0.0,0.0,0.0,0.0,0.0,0.0,0.0,0.0,0.0,0.0,0.0,0.0,0.0,0.0,0.0,0.0,0.0,0.0,0.0,0.0,0.0,0.0,0.0,0.0,0.0,0.0,0.0,0.0,0.0,0.0,0.0,0.0,0.0,0.0,0.0,0.0,0.0,0.0,0.0,0.0,0.0,0.0,0.0,0.0,0.0,0.0,0.0,0.0,0.0,0.0,0.0,0.0,0.0,0.0,0.0,0.0,0.0,1.8111,1.8881,1.9634,1.9456,1.9128,1.8746,0.0,0.0,0.0,0.0,0.0,0.0,0.0,0.0,0.0,0.0,0.0,0.0,0.0,0.0,0.0,0.0,0.0,0.0,0.0,0.0,0.0,0.0,0.0,0.0,0.0,0.0,0.0,0.0,0.0,0.0,0.0,0.0,0.0,0.0,0.0,0.0,0.0,0.0,0.0,0.0,0.0,0.0,0.0,0.0,0.0,0.0,0.0,0.0,0.0,0.0,0.0,0.0,0.0,0.0,0.0,0.0,0.0,0.0,0.0,0.0,0.0,0.0,0.0,0.0,0.0,0.0,0.0,0.0,0.0,0.0,0.0,0.0,0.0,0.0,0.0,0.0,0.0,0.0,0.0,0.0,0.0,0.0,0.0,0.0,0.0,0.0,0.0,0.0,0.0,0.0,0.0,0.0,0.0,0.0,0.0,0.0,0.0,0.0,0.0,0.0,0.0,0.0,0.0,0.0,0.0,0.0,0.0,0.0,0.0,1.753,1.7673,1.9412,1.9339,1.8815,0.0,0.0,0.0,0.0,0.0,0.0,0.0,0.0,0.0,0.0,0.0,0.0,0.0,0.0,0.0,0.0,0.0,0.0,0.0,0.0,0.0,0.0,0.0,0.0,0.0,0.0,0.0,0.0,0.0,0.0,0.0,0.0,0.0,0.0,0.0,0.0,0.0,0.0,0.0,0.0,0.0,0.0,0.0,0.0,0.0,0.0,0.0,0.0,0.0,0.0,0.0,0.0,0.0,0.0,0.0,0.0,0.0,0.0,0.0,0.0,0.0,0.0,0.0,0.0,0.0,0.0,0.0,0.0,0.0,0.0,0.0,0.0,0.0,0.0,0.0,0.0,0.0,0.0,0.0,0.0,0.0,0.0,0.0,0.0,0.0,0.0,0.0,0.0,0.0,0.0,0.0,0.0,0.0,0.0,0.0,0.0,0.0,0.0,0.0,0.0,0.0,0.0,0.0,0.0,0.0,0.0,0.0,0.0,0.0,1.6105,1.6831,1.8455,2.0863,1.94,1.8718,0.0,0.0,0.0,0.0,0.0,0.0,0.0,0.0,0.0,0.0,0.0,0.0,0.0,0.0,0.0,0.0,0.0,0.0,0.0,0.0,0.0,0.0,0.0,0.0,0.0,0.0,0.0,0.0,0.0,0.0,0.0,0.0,0.0,0.0,0.0,0.0,0.0,0.0,0.0,0.0,0.0,0.0,0.0,0.0,0.0,0.0,0.0,0.0,0.0,0.0,0.0,0.0,0.0,0.0,0.0,0.0,0.0,0.0,0.0,0.0,0.0,0.0,0.0,0.0,0.0,0.0,0.0,0.0,0.0,0.0,0.0,0.0,0.0,0.0,0.0,0.0,0.0,0.0,0.0,0.0,0.0,0.0,0.0,0.0,0.0,0.0,0.0,0.0,0.0,0.0,0.0,0.0,0.0,0.0,0.0,0.0,0.0,0.0,0.0,0.0,0.0,0.0,0.0,0.0,0.0,0.0,0.0,0.0,0.0,1.5729,0.0,1.9449,0.0,1.9511,1.872,0.0,0.0,0.0,0.0,0.0,0.0,0.0,0.0,0.0,0.0,0.0,0.0,0.0,0.0,0.0,0.0,0.0,0.0,0.0,0.0,0.0,0.0,0.0,0.0,0.0,0.0,0.0,0.0,0.0,0.0,0.0,0.0,0.0,0.0,0.0,0.0,0.0,0.0,0.0,0.0,0.0,0.0,0.0,0.0,0.0,0.0,0.0,0.0,0.0,0.0,0.0,0.0,0.0,0.0,0.0,0.0,0.0,0.0,0.0,0.0,0.0,0.0,0.0,0.0,0.0,0.0,0.0,0.0,0.0,0.0,0.0,0.0,0.0,0.0,0.0,0.0,0.0,0.0,0.0,0.0,0.0,0.0,0.0,0.0,0.0,0.0,0.0,0.0,0.0,0.0,0.0,0.0,0.0,0.0,0.0,0.0,0.0,0.0,0.0,0.0,0.0,0.0,0.0,0.0,0.0,0.0,0.0,0.0,1.5256,1.7968,1.9964,2.0479,1.9338,1.9726,1.8779,0.0,0.0,0.0,0.0,0.0,0.0,0.0,0.0,0.0,0.0,0.0,0.0,0.0,0.0,0.0,0.0,0.0,0.0,0.0,0.0,0.0,0.0,0.0,0.0,0.0,0.0,0.0,0.0,0.0,0.0,0.0,0.0,0.0,0.0,0.0,0.0,0.0,0.0,0.0,0.0,0.0,0.0,0.0,0.0,0.0,0.0,0.0,0.0,0.0,0.0,0.0,0.0,0.0,0.0,0.0,0.0,0.0,0.0,0.0,0.0,0.0,0.0,0.0,0.0,0.0,0.0,0.0,0.0,0.0,0.0,0.0,0.0,0.0,0.0,0.0,0.0,0.0,0.0,0.0,0.0,0.0,0.0,0.0,0.0,0.0,0.0,0.0,0.0,0.0,0.0,0.0,0.0,0.0,0.0,0.0,0.0,0.0,0.0,0.0,0.0,0.0,0.0,0.0,0.0,0.0,0.0,0.0,0.0,0.0,1.789,1.973,2.1188,2.1904,2.022,1.96,0.0,0.0,0.0,0.0,0.0,0.0,0.0,0.0,0.0,0.0,0.0,0.0,0.0,0.0,0.0,0.0,0.0,0.0,0.0,0.0,0.0,0.0,0.0,0.0,0.0,0.0,0.0,0.0,0.0,0.0,0.0,0.0,0.0,0.0,0.0,0.0,0.0,0.0,0.0,0.0,0.0,0.0,0.0,0.0,0.0,0.0,0.0,0.0,0.0,0.0,0.0,0.0,0.0,0.0,0.0,0.0,0.0,0.0,0.0,0.0,0.0,0.0,0.0,0.0,0.0,0.0,0.0,0.0,0.0,0.0,0.0,0.0,0.0,0.0,0.0,0.0,0.0,0.0,0.0,0.0,0.0,0.0,0.0,0.0,0.0,0.0,0.0,0.0,0.0,0.0,0.0,0.0,0.0,0.0,0.0,0.0,0.0,0.0,0.0,0.0,0.0,0.0,0.0,0.0,0.0,0.0,0.0,0.0,0.0,2.0973,2.2051,2.3197,2.4327,2.1831,2.0655,2.0998,0.0,0.0,0.0,0.0,0.0,0.0,0.0,0.0,0.0,0.0,0.0,0.0,0.0,0.0,0.0,0.0,0.0,0.0,0.0,0.0,0.0,0.0,0.0,0.0,0.0,0.0,0.0,0.0,0.0,0.0,0.0,0.0,0.0,0.0,0.0,0.0,0.0,0.0,0.0,0.0,0.0,0.0,0.0,0.0,0.0,0.0,0.0,0.0,0.0,0.0,0.0,0.0,0.0,0.0,0.0,0.0,0.0,0.0,0.0,0.0,0.0,0.0,0.0,0.0,0.0,0.0,0.0,0.0,0.0,0.0,0.0,0.0,0.0,0.0,0.0,0.0,0.0,0.0,0.0,0.0,0.0,0.0,0.0,0.0,0.0,0.0,0.0,0.0,0.0,0.0,0.0,0.0,0.0,0.0,0.0,0.0,0.0,0.0,0.0,0.0,0.0,0.0,0.0,0.0,0.0,0.0,0.0,0.0,2.6525,2.6622,2.6612,2.6474,2.4411,2.2072,0.0,0.0,0.0,0.0,0.0,0.0,0.0,0.0,0.0,0.0,0.0,0.0,0.0,0.0,0.0,0.0,0.0,0.0,0.0,0.0,0.0,0.0,0.0,0.0,0.0,0.0,0.0,0.0,0.0,0.0,0.0,0.0,0.0,0.0,0.0,0.0,0.0,0.0,0.0,0.0,0.0,0.0,0.0,0.0,0.0,0.0,0.0,0.0,0.0,0.0,0.0,0.0,0.0,0.0,0.0,0.0,0.0,0.0,0.0,0.0,0.0,0.0,0.0,0.0,0.0,0.0,0.0,0.0,0.0,0.0,0.0,0.0,0.0,0.0,0.0,0.0,0.0,0.0,0.0,0.0,0.0,0.0,0.0,0.0,0.0,0.0,0.0,0.0,0.0,0.0,0.0,0.0,0.0,0.0,0.0,0.0,0.0,0.0,0.0,0.0,0.0,0.0,0.0,0.0,0.0,0.0,0.0,0.0,0.0,2.9439,3.1357,3.1625,3.0096,2.705,2.4851,0.0,0.0,0.0,0.0,0.0,0.0,0.0,0.0,0.0,0.0,0.0,0.0,0.0,0.0,0.0,0.0,0.0,0.0,0.0,0.0,0.0,0.0,0.0,0.0,0.0,0.0,0.0,0.0,0.0,0.0,0.0,0.0,0.0,0.0,0.0,0.0,0.0,0.0,0.0,0.0,0.0,0.0,0.0,0.0,0.0,0.0,0.0,0.0,0.0,0.0,0.0,0.0,0.0,0.0,0.0,0.0,0.0,0.0,0.0,0.0,0.0,0.0,0.0,0.0,0.0,0.0,0.0,0.0,0.0,0.0,0.0,0.0,0.0,0.0,0.0,0.0,0.0,0.0,0.0,0.0,0.0,0.0,0.0,0.0,0.0,0.0,0.0,0.0,0.0,0.0,0.0,0.0,0.0,0.0,0.0,0.0,0.0,0.0,0.0,0.0,0.0,0.0,0.0,0.0,0.0,0.0,0.0,0.0,2.8734,3.2251,3.5416,3.6367,3.4896,3.0953,2.7655,0.0,0.0,0.0,0.0,0.0,0.0,0.0,0.0,0.0,0.0,0.0,0.0,0.0,0.0,0.0,0.0,0.0,0.0,0.0,0.0,0.0,0.0,0.0,0.0,0.0,0.0,0.0,0.0,0.0,0.0,0.0,0.0,0.0,0.0,0.0,0.0,0.0,0.0,0.0,0.0,0.0,0.0,0.0,0.0,0.0,0.0,0.0,0.0,0.0,0.0,0.0,0.0,0.0,0.0,0.0,0.0,0.0,0.0,0.0,0.0,0.0,0.0,0.0,0.0,0.0,0.0,0.0,0.0,0.0,0.0,0.0,0.0,0.0,0.0,0.0,0.0,0.0,0.0,0.0,0.0,0.0,0.0,0.0,0.0,0.0,0.0,0.0,0.0,0.0,0.0,0.0,0.0,0.0,0.0,0.0,0.0,0.0,0.0,0.0,0.0,0.0,0.0,0.0,0.0,0.0,0.0,0.0,0.0,3.1732,3.4752,3.8616,4.0309,3.9524,3.4922,3.0274,0.0,0.0,0.0,0.0,0.0,0.0,0.0,0.0,0.0,0.0,0.0,0.0,0.0,0.0,0.0,0.0,0.0,0.0,0.0,0.0,0.0,0.0,0.0,0.0,0.0,0.0,0.0,0.0,0.0,0.0,0.0,0.0,0.0,0.0,0.0,0.0,0.0,0.0,0.0,0.0,0.0,0.0,0.0,0.0,0.0,0.0,0.0,0.0,0.0,0.0,0.0,0.0,0.0,0.0,0.0,0.0,0.0,0.0,0.0,0.0,0.0,0.0,0.0,0.0,0.0,0.0,0.0,0.0,0.0,0.0,0.0,0.0,0.0,0.0,0.0,0.0,0.0,0.0,0.0,0.0,0.0,0.0,0.0,0.0,0.0,0.0,0.0,0.0,0.0,0.0,0.0,0.0,0.0,0.0,0.0,0.0,0.0,0.0,0.0,0.0,0.0,0.0,0.0,0.0,0.0,0.0,0.0,0.0,3.3163,3.6815,3.9816,4.1032,4.0309,3.5168,3.0936,0.0,0.0,0.0,0.0,0.0,0.0,0.0,0.0,0.0,0.0,0.0,0.0,0.0,0.0,0.0,0.0,0.0,0.0,0.0,0.0,0.0,0.0,0.0,0.0,0.0,0.0,0.0,0.0,0.0,0.0,0.0,0.0,0.0,0.0,0.0,0.0,0.0,0.0,0.0,0.0,0.0,0.0,0.0,0.0,0.0,0.0,0.0,0.0,2.2013,0.0,0.0,0.0,0.0,0.0,0.0,0.0,0.0,0.0,0.0,0.0,0.0,0.0,0.0,0.0,0.0,0.0,0.0,0.0,0.0,0.0,0.0,0.0,0.0,0.0,0.0,0.0,0.0,0.0,0.0,0.0,0.0,0.0,0.0,0.0,0.0,0.0,0.0,0.0,0.0,0.0,0.0,0.0,0.0,0.0,0.0,0.0,0.0,0.0,0.0,0.0,0.0,0.0,0.0,0.0,0.0,0.0,0.0,0.0,3.4393,3.8354,4.0816,4.1894,4.137,3.7138,3.2936,0.0,0.0,0.0,0.0,0.0,0.0,0.0,0.0,0.0,0.0,0.0,0.0,0.0,0.0,0.0,0.0,0.0,0.0,0.0,0.0,0.0,0.0,0.0,0.0,0.0,0.0,0.0,0.0,0.0,0.0,0.0,0.0,0.0,0.0,0.0,0.0,0.0,0.0,0.0,0.0,0.0,0.0,0.0,0.0,0.0,0.0,0.0,0.0,0.0,0.0,0.0,0.0,0.0,0.0,0.0,0.0,0.0,0.0,0.0,0.0,0.0,0.0,0.0,0.0,0.0,0.0,0.0,0.0,0.0,0.0,0.0,0.0,0.0,0.0,0.0,0.0,0.0,0.0,0.0,0.0,0.0,0.0,0.0,0.0,0.0,0.0,0.0,0.0,0.0,0.0,0.0,0.0,0.0,0.0,0.0,0.0,0.0,0.0,0.0,0.0,0.0,0.0,0.0,0.0,0.0,0.0,0.0,3.1251,3.5447,3.9847,4.1801,4.2709,4.2571,3.9385,3.5106,2.9797,0.0,0.0,0.0,0.0,0.0,0.0,0.0,0.0,0.0,0.0,0.0,0.0,0.0,0.0,0.0,0.0,0.0,0.0,0.0,0.0,0.0,0.0,0.0,0.0,0.0,0.0,0.0,0.0,0.0,0.0,0.0,0.0,0.0,0.0,0.0,0.0,0.0,0.0,1.9953,2.198,0.0,0.0,0.0,0.0,0.0,0.0,0.0,0.0,2.3254,0.0,0.0,0.0,0.0,0.0,0.0,0.0,0.0,0.0,0.0,0.0,0.0,0.0,0.0,0.0,0.0,0.0,0.0,0.0,0.0,0.0,0.0,0.0,0.0,0.0,0.0,0.0,0.0,0.0,0.0,0.0,0.0,0.0,0.0,0.0,0.0,0.0,0.0,0.0,0.0,0.0,0.0,0.0,0.0,0.0,0.0,0.0,0.0,0.0,0.0,0.0,0.0,0.0,0.0,0.0,0.0,3.1986,3.2874,3.6137,4.194,4.2956,4.3156,4.2556,3.9831,3.5799,3.052,0.0,0.0,0.0,0.0,0.0,0.0,0.0,0.0,0.0,0.0,0.0,0.0,0.0,0.0,0.0,0.0,0.0,0.0,0.0,0.0,0.0,0.0,0.0,0.0,0.0,0.0,0.0,0.0,0.0,0.0,0.0,0.0,0.0,0.0,0.0,0.0,0.0,0.0,0.0,2.5483,2.6387,0.0,0.0,0.0,0.0,0.0,0.0,0.0,0.0,2.4563,0.0,0.0,0.0,0.0,0.0,0.0,0.0,0.0,0.0,0.0,0.0,0.0,0.0,0.0,0.0,0.0,0.0,0.0,0.0,0.0,0.0,0.0,0.0,0.0,0.0,0.0,0.0,0.0,0.0,0.0,0.0,0.0,0.0,0.0,0.0,0.0,0.0,0.0,0.0,0.0,0.0,0.0,0.0,0.0,0.0,0.0,0.0,0.0,0.0,0.0,0.0,0.0,0.0,0.0,0.0,3.1365,3.4158,3.7781,4.2432,4.291,4.2925,4.254,3.8939,3.4891,0.0,0.0,0.0,0.0,0.0,0.0,0.0,0.0,0.0,0.0,0.0,0.0,0.0,0.0,0.0,0.0,0.0,0.0,0.0,0.0,0.0,0.0,0.0,0.0,0.0,0.0,0.0,0.0,0.0,0.0,0.0,0.0,0.0,0.0,0.0,0.0,0.0,0.0,0.0,0.0,2.6823,2.7961,2.9546,0.0,0.0,0.0,0.0,0.0,0.0,2.6015,2.5395,0.0,0.0,0.0,0.0,0.0,0.0,0.0,0.0,0.0,0.0,0.0,0.0,0.0,0.0,0.0,0.0,0.0,0.0,0.0,0.0,0.0,0.0,0.0,0.0,0.0,0.0,0.0,0.0,0.0,0.0,0.0,0.0,0.0,0.0,0.0,0.0,0.0,0.0,0.0,0.0,0.0,0.0,0.0,0.0,0.0,0.0,0.0,0.0,0.0,0.0,0.0,0.0,0.0,0.0,0.0,3.0038,3.468,3.8816,4.2217,4.254,4.254,4.2325,3.8046,3.4029,0.0,0.0,0.0,0.0,0.0,0.0,0.0,0.0,0.0,0.0,0.0,0.0,0.0,0.0,0.0,0.0,0.0,0.0,0.0,0.0,0.0,0.0,0.0,0.0,0.0,0.0,0.0,0.0,0.0,0.0,0.0,0.0,0.0,0.0,0.0,0.0,0.0,0.0,0.0,0.0,0.0,2.966,3.169,3.0129,0.0,0.0,0.0,0.0,2.8197,2.8106,0.0,0.0,0.0,0.0,0.0,0.0,0.0,0.0,0.0,0.0,0.0,0.0,0.0,0.0,0.0,0.0,0.0,0.0,0.0,0.0,0.0,0.0,0.0,0.0,0.0,0.0,0.0,0.0,0.0,0.0,0.0,0.0,0.0,0.0,0.0,0.0,0.0,0.0,0.0,0.0,0.0,0.0,0.0,0.0,0.0,0.0,0.0,0.0,0.0,0.0,0.0,0.0,0.0,0.0,0.0,0.0,2.9977,3.3717,3.7582,4.1509,4.2294,4.2325,4.1694,3.8231,3.4506,0.0,0.0,0.0,0.0,0.0,0.0,0.0,0.0,0.0,0.0,0.0,0.0,0.0,0.0,0.0,0.0,0.0,0.0,0.0,0.0,0.0,0.0,0.0,0.0,0.0,0.0,0.0,0.0,0.0,0.0,0.0,0.0,0.0,0.0,0.0,0.0,0.0,0.0,0.0,0.0,0.0,3.247,3.2641,3.2,3.1536,0.0,0.0,3.2475,3.3291,3.439,0.0,0.0,0.0,0.0,0.0,0.0,0.0,0.0,0.0,0.0,0.0,0.0,0.0,0.0,0.0,0.0,0.0,0.0,0.0,0.0,0.0,0.0,0.0,0.0,0.0,0.0,0.0,0.0,0.0,0.0,0.0,0.0,0.0,0.0,0.0,0.0,0.0,0.0,0.0,0.0,0.0,0.0,0.0,0.0,0.0,0.0,0.0,0.0,0.0,0.0,0.0,0.0,0.0,0.0,0.0,2.6076,3.0121,3.4741,3.8565,4.1463,4.1494,4.1494,4.1586,3.6784,3.2982,0.0,0.0,0.0,0.0,0.0,0.0,0.0,0.0,0.0,0.0,0.0,0.0,0.0,0.0,0.0,0.0,0.0,0.0,0.0,0.0,0.0,0.0,0.0,0.0,0.0,0.0,0.0,0.0,0.0,0.0,0.0,0.0,0.0,0.0,0.0,0.0,0.0,0.0,0.0,0.0,0.0,0.0,3.4455,3.4425,0.0,0.0,0.0,3.4181,3.418,0.0,0.0,0.0,0.0,0.0,0.0,0.0,0.0,0.0,0.0,0.0,0.0,0.0,0.0,0.0,0.0,0.0,0.0,0.0,0.0,0.0,0.0,0.0,0.0,0.0,0.0,0.0,0.0,0.0,0.0,0.0,0.0,0.0,0.0,0.0,0.0,0.0,0.0,0.0,0.0,0.0,0.0,0.0,0.0,0.0,0.0,0.0,0.0,0.0,0.0,0.0,0.0,0.0,0.0,0.0,0.0,0.0,3.0151,3.5799,3.9601,4.1247,4.0801,4.077,4.1201,3.6014,0.0,0.0,0.0,0.0,0.0,0.0,0.0,0.0,0.0,0.0,0.0,0.0,0.0,0.0,0.0,0.0,0.0,0.0,0.0,0.0,0.0,0.0,0.0,0.0,0.0,0.0,0.0,1.4337,0.0,0.0,0.0,0.0,0.0,0.0,0.0,0.0,0.0,0.0,0.0,0.0,0.0,0.0,3.4257,3.61,3.6496,3.6697,0.0,0.0,3.6024,3.5965,3.6901,3.6167,0.0,0.0,0.0,0.0,0.0,0.0,0.0,0.0,0.0,0.0,0.0,0.0,0.0,0.0,0.0,0.0,0.0,0.0,0.0,0.0,0.0,0.0,0.0,0.0,0.0,0.0,0.0,0.0,0.0,0.0,0.0,0.0,0.0,0.0,0.0,0.0,0.0,0.0,0.0,0.0,0.0,0.0,0.0,0.0,0.0,0.0,0.0,0.0,0.0,0.0,0.0,0.0,0.0,0.0,0.0,3.0243,3.6244,3.9831,4.057,4.0555,4.0555,4.0539,3.7138,3.3737,0.0,0.0,0.0,0.0,0.0,0.0,0.0,0.0,0.0,0.0,0.0,0.0,0.0,0.0,0.0,0.0,0.0,0.0,0.0,0.0,0.0,0.0,0.0,0.0,0.0,0.0,0.0,0.0,0.0,0.0,0.0,0.0,0.0,0.0,0.0,0.0,0.0,0.0,0.0,0.0,0.0,3.5538,3.7024,3.7789,3.8861,0.0,0.0,3.9489,4.0839,4.2663,4.174,3.523,0.0,0.0,0.0,0.0,0.0,0.0,0.0,0.0,0.0,0.0,0.0,0.0,0.0,0.0,0.0,0.0,0.0,0.0,0.0,0.0,0.0,0.0,0.0,0.0,0.0,0.0,0.0,0.0,0.0,0.0,0.0,0.0,0.0,0.0,0.0,0.0,0.0,0.0,0.0,0.0,0.0,0.0,0.0,0.0,0.0,0.0,0.0,0.0,0.0,0.0,0.0,0.0,0.0,2.8122,3.0287,3.6767,4.0278,4.0524,4.0955,4.0986,4.0539,3.7261,3.3891,0.0,0.0,0.0,0.0,0.0,0.0,0.0,0.0,0.0,0.0,0.0,0.0,0.0,0.0,0.0,0.0,0.0,0.0,0.0,0.0,0.0,0.0,0.0,0.0,0.0,0.0,0.0,0.0,1.8325,1.9197,1.9604,0.0,0.0,0.0,0.0,0.0,0.0,0.0,0.0,0.0,0.0,3.7862,4.0102,4.1365,0.0,0.0,4.2638,4.2417,4.2182,4.1755,3.9859,3.5159,3.2772,0.0,0.0,0.0,0.0,0.0,0.0,0.0,0.0,0.0,0.0,0.0,0.0,0.0,0.0,0.0,0.0,0.0,0.0,0.0,0.0,0.0,0.0,0.0,0.0,0.0,0.0,0.0,0.0,0.0,0.0,0.0,0.0,0.0,0.0,0.0,0.0,0.0,0.0,0.0,0.0,0.0,0.0,0.0,0.0,0.0,0.0,0.0,0.0,0.0,0.0,0.0,0.0,2.8583,3.0906,3.7443,4.0955,4.114,4.1447,4.1355,4.0786,3.7954,3.4799,0.0,0.0,0.0,0.0,0.0,0.0,0.0,0.0,0.0,0.0,0.0,0.0,0.0,0.0,0.0,0.0,0.0,0.0,0.0,0.0,0.0,0.0,0.0,0.0,0.0,0.0,0.0,0.0,1.9484,2.0255,2.0516,0.0,0.0,0.0,0.0,0.0,0.0,0.0,0.0,0.0,0.0,3.989,4.1789,4.2919,4.3447,4.3058,4.2817,4.2539,4.198,4.1087,3.9439,3.6368,0.0,0.0,0.0,0.0,0.0,0.0,0.0,0.0,0.0,0.0,0.0,0.0,0.0,0.0,0.0,0.0,0.0,0.0,0.0,0.0,0.0,0.0,0.0,0.0,0.0,0.0,0.0,0.0,0.0,0.0,1.3531,0.0,0.0,0.0,0.0,0.0,0.0,0.0,0.0,0.0,0.0,0.0,0.0,0.0,0.0,0.0,0.0,0.0,0.0,0.0,0.0,0.0,0.0,2.9587,3.2272,3.8365,4.1878,4.2494,4.194,4.1601,4.1509,3.9524,3.6815,3.3367,0.0,0.0,0.0,0.0,0.0,0.0,0.0,0.0,0.0,0.0,0.0,0.0,0.0,0.0,0.0,0.0,0.0,0.0,0.0,0.0,0.0,0.0,0.0,0.0,0.0,0.0,1.7819,1.9114,2.0123,0.0,0.0,0.0,0.0,0.0,0.0,0.0,0.0,0.0,0.0,3.8356,4.1346,4.1456,4.1604,4.1847,4.1683,4.0056,3.9241,4.0591,4.1674,4.1841,0.0,0.0,0.0,0.0,0.0,0.0,0.0,0.0,0.0,0.0,0.0,0.0,0.0,0.0,0.0,0.0,0.0,0.0,0.0,0.0,0.0,0.0,0.0,0.0,0.0,0.0,0.0,1.7119,1.6718,0.0,0.0,0.0,0.0,0.0,0.0,0.0,0.0,0.0,0.0,0.0,2.8311,2.99,0.0,0.0,0.0,0.0,0.0,0.0,0.0,0.0,0.0,0.0,0.0,0.0,3.0114,3.2542,3.8923,4.2386,4.2602,4.2386,4.2048,4.1586,3.9601,3.6692,3.2844,0.0,0.0,0.0,0.0,0.0,0.0,0.0,0.0,0.0,0.0,0.0,0.0,0.0,0.0,0.0,0.0,0.0,0.0,0.0,0.0,0.0,0.0,0.0,0.0,0.0,1.9677,0.0,0.0,0.0,0.0,0.0,0.0,0.0,0.0,0.0,0.0,0.0,3.4249,3.7805,3.9708,4.1435,4.3329,4.3994,4.4772,0.0,0.0,0.0,0.0,0.0,0.0,0.0,0.0,0.0,0.0,0.0,0.0,0.0,0.0,4.3192,3.5571,3.4159,3.4216,3.4414,0.0,0.0,0.0,0.0,0.0,0.0,0.0,0.0,0.0,0.0,0.0,0.0,0.0,0.0,2.0781,0.0,1.9973,0.0,0.0,0.0,0.0,0.0,0.0,0.0,0.0,2.954,3.202,3.3321,3.4861,3.4925,0.0,3.242,2.9256,0.0,0.0,0.0,0.0,0.0,0.0,0.0,0.0,3.1159,3.3614,3.9708,4.3048,4.3248,4.2848,4.2402,4.1909,3.9724,3.703,3.3921,3.1028,2.8334,0.0,0.0,0.0,0.0,0.0,0.0,0.0,0.0,0.0,0.0,0.0,0.0,0.0,0.0,0.0,0.0,0.0,0.0,0.0,0.0,0.0,0.0,0.0,2.0905,0.0,0.0,0.0,0.0,0.0,0.0,0.0,0.0,0.0,3.2724,3.498,3.7946,4.1811,4.2844,4.3605,4.4575,0.0,0.0,0.0,0.0,0.0,0.0,0.0,4.2987,4.2896,4.2931,4.3263,4.4165,4.7602,5.0074,4.9407,0.0,0.0,4.2317,4.0822,4.0863,4.0967,4.1766,4.2449,4.2543,4.3406,4.4155,0.0,0.0,0.0,0.0,0.0,0.0,0.0,0.0,2.5232,2.5348,0.0,2.4063,0.0,0.0,0.0,0.0,0.0,2.6533,0.0,0.0,3.739,3.9979,3.9548,3.9564,3.9647,3.9554,3.8246,3.6475,3.4145,2.8783,0.0,0.0,0.0,0.0,0.0,0.0,3.2829,3.5676,4.0847,4.3879,4.4495,4.331,4.2633,4.254,4.0001,3.7969,3.663,3.4629,3.2028,2.8735,2.5379,0.0,0.0,0.0,0.0,0.0,0.0,0.0,0.0,0.0,0.0,0.0,0.0,0.0,0.0,0.0,0.0,0.0,0.0,0.0,0.0,2.1798,0.0,0.0,0.0,0.0,0.0,0.0,0.0,0.0,0.0,0.0,3.6535,3.8878,4.2093,4.5506,0.0,0.0,0.0,0.0,4.5732,4.3799,4.2858,4.2789,4.3608,4.5851,4.7838,4.85,0.0,0.0,5.0473,5.1941,5.2895,5.0929,5.3468,5.4826,5.2404,4.9722,4.8281,4.8606,4.7888,4.7241,4.7743,4.8989,4.9812,2.9606,0.0,0.0,0.0,0.0,2.634,2.7623,2.9849,2.9444,2.8861,2.821,2.808,0.0,0.0,0.0,0.0,0.0,0.0,3.196,3.5296,3.7948,4.0289,4.2402,4.291,4.2879,4.2386,4.1555,4.0324,3.8673,3.6549,3.2176,2.5847,0.0,0.0,0.0,0.0,3.5168,3.8354,4.1801,4.3895,4.4556,4.3741,4.3063,4.2617,4.0878,3.977,3.937,3.7877,3.5707,3.2859,2.9966,0.0,0.0,0.0,0.0,0.0,0.0,0.0,0.0,0.0,0.0,0.0,0.0,0.0,0.0,0.0,0.0,0.0,0.0,0.0,2.238,2.2747,2.3264,0.0,0.0,0.0,0.0,0.0,0.0,0.0,0.0,0.0,4.4148,4.3207,4.3039,0.0,0.0,4.4507,4.4257,4.627,4.8226,4.924,4.9239,0.0,5.0878,5.0407,5.0231,5.1045,5.3656,5.5627,5.563,5.7516,5.8823,5.8153,5.8927,5.9375,5.8651,5.6541,5.502,5.5056,5.5142,5.5279,5.5298,5.5381,5.5372,3.6075,3.2843,3.0056,2.9489,3.0529,3.0684,3.1863,3.3728,3.3668,3.3531,3.3207,3.3069,3.2,3.0207,2.9954,0.0,0.0,0.0,3.5654,3.9101,4.0081,4.1821,4.3925,4.4387,4.4356,4.3956,4.3571,4.2956,4.2109,4.0924,3.7551,3.2195,0.0,0.0,3.1289,3.4722,3.76,3.9908,4.2586,4.4156,4.4556,4.391,4.3125,4.2232,4.1401,4.0816,4.0524,3.9754,3.8308,3.6153,3.349,3.0289,0.0,0.0,0.0,0.0,0.0,0.0,0.0,0.0,0.0,0.0,0.0,2.0879,1.8888,0.0,0.0,0.0,2.3468,2.456,2.5284,2.6013,0.0,0.0,0.0,0.0,0.0,0.0,0.0,3.9064,4.3119,4.6636,4.8804,4.7676,4.7261,4.8855,4.8209,4.7573,4.759,0.0,5.1218,5.2423,5.2561,5.2991,5.4097,5.3731,5.3725,5.5167,5.7116,5.865,5.9202,6.0668,6.172,6.1772,6.1772,6.1858,6.2168,6.0787,5.9425,5.908,5.9407,5.9734,5.9504,5.9286,5.9047,4.1254,4.0818,3.5521,3.3534,3.4017,3.4991,3.5993,3.7044,3.7671,3.8436,3.9235,3.8394,3.7405,3.6265,3.4265,0.0,3.7195,3.84,4.0269,4.2786,4.3387,4.3972,4.4572,4.4572,4.4572,4.4556,4.4572,4.4572,4.4464,4.2725,4.1124,3.9739,3.7908,3.6538,3.5814,3.82,3.9908,4.0709,4.314,4.4464,4.4572,4.391,4.2987,4.1801,4.1648,4.1278,4.0647,4.0555,3.9939,3.86,3.6122,3.3198,2.9874,0.0,0.0,0.0,0.0,0.0,0.0,0.0,0.0,0.0,0.0,0.0,0.0,0.0,0.0,0.0,2.8672,0.0,2.9548,3.1005,0.0,0.0,0.0,3.6124,3.875,4.2076,4.4421,4.4976,0.0,0.0,5.1349,5.2124,5.3329,5.542,5.4982,5.4086,5.3192,5.3788,5.4443,5.3839,5.3839,5.4149,5.5253,5.6288,5.7702,5.9513,6.0892,6.1254,6.1341,6.1996,6.253,6.2565,6.2582,6.2737,6.3462,6.2875,6.2268,6.1332,6.1318,6.139,6.1126,6.1146,6.1047,4.2542,4.292,4.1497,4.0067,3.8607,3.8857,3.9139,3.9476,3.9647,3.9858,4.0082,4.0198,4.0264,4.0304,3.9751,4.0429,4.1981,4.223,4.2978,4.4095,4.4264,4.4433,4.4572,4.4572,4.4572,4.4572,4.4572,4.4572,4.4556,4.4095,4.3187,4.1909,4.1401,3.9754,3.7184,3.8692,4.037,4.2109,4.274,4.3571,4.4526,4.3925,4.3417,4.311,4.2125,4.1524,4.134,4.0816,4.0139,3.9293,3.7677,3.546,3.2582,2.8134,0.0,0.0,0.0,0.0,0.0,0.0,0.0,0.0,0.0,2.5571,2.1447,0.0,2.6707,0.0,3.0911,3.3866,3.5243,3.6307,0.0,0.0,4.0514,4.1962,4.5168,4.7718,4.9123,4.8736,5.1881,5.423,5.4497,5.5193,5.6322,5.7842,5.5581,5.3393,5.2595,5.4641,5.6202,5.6133,5.6909,5.7943,5.8633,5.9616,6.0358,6.0944,6.1685,6.2203,6.2203,6.2824,6.3341,6.3341,6.3324,6.3427,6.3565,6.3444,6.3289,6.3009,6.3031,6.2858,6.2251,6.2203,6.1979,4.3825,4.4424,4.4438,4.3381,4.1762,4.203,4.2221,4.2238,4.2536,4.2495,4.2276,4.2505,4.2769,4.3,4.3,4.3349,4.4002,4.4018,4.4218,4.4572,4.4572,4.4572,4.4572,4.4572,4.4572,4.4572,4.4572,4.4572,4.4572,4.4572,4.4202,4.3494,4.3716,4.2519,4.0117,3.9976,4.0539,4.1663,4.2294,4.3248,4.4495,4.3925,4.3125,4.2232,4.1341,4.0282,3.9106,3.8803,3.8135,3.7018,3.5981,3.445,3.23,2.9224,2.6927,0.0,0.0,0.0,0.0,0.0,0.0,0.0,0.0,0.0,0.0,0.0,3.0605,3.1356,3.523,3.8472,4.0279,4.155,4.3403,4.6286,4.6851,4.8192,5.0953,5.2904,5.3949,5.3557,5.5564,5.7017,5.7133,5.7512,5.8219,5.9375,5.7736,5.6139,5.5585,5.702,5.8305,5.8357,5.9288,6.0168,6.0634,6.1341,6.1823,6.1892,6.2479,6.2979,6.2996,6.3307,6.36,6.36,6.36,6.36,6.36,6.36,6.36,6.36,6.36,6.3444,6.3065,6.2962,6.2755,4.5032,4.5761,4.5761,4.5128,4.4309,4.4971,4.4842,4.4368,4.4817,4.4901,4.4588,4.4772,4.4833,4.4833,4.4833,4.4833,4.4833,4.4833,4.4833,4.4849,4.4833,4.4849,4.4833,4.4849,4.4787,4.471,4.4786,4.474,4.4648,4.4723,4.4631,4.4476,4.4834,4.4294,4.2919,4.1388,4.0662,4.0677,4.1965,4.3229,4.4339,4.3646,4.2304,4.0423,3.992,3.848,3.5988,3.6158,3.5561,3.4067,3.3521,3.2725,3.167,3.0219,2.9045,0.0,2.7429,0.0,0.0,0.0,0.0,0.0,0.0,0.0,0.0,3.5106,3.5776,3.7543,4.0712,4.3336,4.5131,4.6874,4.9103,5.189,5.2921,5.4076,5.5826,5.7236,5.8047,5.8047,5.8702,5.9168,5.9116,5.9237,5.9582,6.0185,6.0185,5.9754,5.9444,5.9789,6.022,6.034,6.0978,6.1392,6.1513,6.2099,6.2634,6.2703,6.3117,6.3582,6.3548,6.3582,6.36,6.36,6.36,6.36,6.36,6.36,6.36,6.36,6.36,6.3582,6.3548,6.3531,6.3375,4.6002,4.7234,4.7249,4.7367,4.7638,4.7843,4.5688,4.2164,4.2318,4.3229,4.4665,4.5709,4.6203,4.6219,4.6219,4.6219,4.6219,4.6203,4.6219,4.6219,4.6203,4.6203,4.6219,4.6219,4.5926,4.5418,4.5772,4.5643,4.5098,4.541,4.4959,4.3874,4.3929,4.3305,4.1996,0.0,0.0,0.0,4.2497,4.3111,4.3298,4.2148,4.0779,3.9237,3.8826,0.0,3.6342,3.629,3.5896,3.5021,3.5383,0.0,0.0,0.0,0.0,0.0,0.0,0.0,0.0,0.0,0.0,0.0,3.5487,3.5503,3.6651,3.9344,4.1513,4.2778,4.6143,4.9061,5.0865,5.2892,5.4584,5.5678,5.6432,5.7325,5.8271,5.8633,5.8806,5.8823,5.9478,5.9961,5.9995,6.0478,6.0892,6.1047,6.1082,6.1047,6.0909,6.0996,6.1082,6.1151,6.1789,6.2255,6.2255,6.2875,6.3307,6.3427,6.3462,6.36,6.36,6.36,6.36,6.36,6.36,6.36,6.36,6.36,6.36,6.36,6.36,6.36,6.36,6.36,6.3548,4.6624,0.0,4.7578,4.7638,0.0,4.7619,4.5907,4.3183,4.4493,4.5413,4.6095,4.6449,4.6603,4.6542,4.5911,4.5603,4.5572,4.4926,4.4987,4.5588,4.5603,4.5957,4.6603,4.6603,4.6592,4.6423,4.6656,4.6698,4.6579,4.6728,4.6513,4.5728,4.5611,4.5158,4.4527,4.4365,4.3719,4.2616,4.3104,4.3725,4.4338,4.338,4.2171,4.0836,4.0356,0.0,0.0,0.0,0.0,0.0,0.0,0.0,0.0,0.0,0.0,3.7407,3.7175,3.7166,3.7464,3.8139,3.9516,4.1749,4.3179,4.3141,4.1471,4.4565,4.6977,4.79,5.0092,5.215,5.4024,5.557,5.6901,5.7773,5.8236,5.8616,5.8926,5.9012,5.9168,5.9547,5.9944,6.0323,6.0685,6.1047,6.1461,6.1806,6.1892,6.2013,6.2306,6.2099,6.1996,6.2358,6.2737,6.3013,6.3065,6.3307,6.36,6.36,6.36,6.36,6.36,6.36,6.36,6.36,6.36,6.36,6.36,6.36,6.36,6.36,6.36,6.36,6.36,6.36,6.36,4.7297,4.7931,4.781,4.7478,4.6942,4.6942,4.6326,4.5418,0.0,0.0,0.0,4.708,4.6942,4.6865,4.5788,4.5295,4.5218,4.4172,4.4249,4.528,4.5295,4.588,4.6927,4.7037,4.7229,4.745,4.7606,4.7759,4.8013,4.8072,4.8072,4.8099,4.778,4.7606,4.7517,4.7109,4.6019,4.4363,4.3939,4.4452,4.5603,4.477,4.367,4.2433,4.2045,4.0986,3.9157,3.8762,3.7979,3.6744,3.6683,3.6876,3.7261,3.8318,3.935,4.0399,4.1614,4.268,4.3457,4.4172,4.5521,4.7642,4.9879,4.9906,4.6908,4.9541,5.1615,5.227,5.311,5.4344,5.6116,5.7003,5.7842,5.8875,5.9012,5.8995,5.9012,5.915,5.9495,6.0082,6.0444,6.0823,6.1427,6.1685,6.191,6.2513,6.2686,6.2858,6.3358,6.3031,6.2858,6.3341,6.3462,6.3565,6.3582,6.3582,6.36,6.36,6.36,6.36,6.36,6.36,6.36,6.36,6.36,6.36,6.36,6.36,6.36,6.36,6.36,6.36,6.36,6.36,6.36,4.8713,4.9382,4.8699,4.8429,4.8327,4.8327,4.8219,4.7989,4.7234,4.6834,4.6803,4.7865,4.8327,4.8312,4.8127,4.8035,4.805,4.785,4.7881,4.8035,4.805,4.8142,4.8327,4.8736,4.8682,4.8231,4.8823,4.8903,4.8525,4.8682,4.8885,4.8885,4.8772,4.8505,4.7923,4.7265,4.671,4.6431,4.4982,4.4519,4.513,4.3492,4.2173,4.1373,4.0997,4.034,3.9451,3.9428,3.9447,3.9578,3.9772,4.0609,4.2216,4.2089,4.2571,4.3945,4.4787,4.5716,4.6865,4.7687,4.8943,5.0876,5.1899,5.193,5.1078,5.2518,5.3766,5.4381,5.5586,5.678,5.7569,5.8238,5.872,5.8909,5.9012,5.9012,5.9064,5.9616,6.0064,6.0289,6.1392,6.2134,6.2324,6.2824,6.3169,6.3375,6.3324,6.3462,6.3531,6.3513,6.3479,6.3565,6.36,6.36,6.36,6.36,6.36,6.36,6.36,6.3656,6.3673,6.3673,6.3673,6.3582,6.3673,6.3656,6.3673,6.36,6.36,6.36,6.3582,6.36,6.36,6.36,6.36,4.961,5.0128,4.9481,4.9404,4.9743,4.9743,4.9528,4.9158,4.8543,4.805,4.7773,4.8358,4.8604,4.8543,4.785,4.7608,4.7834,4.6852,4.7042,4.8136,4.8024,4.8413,4.9228,4.9501,4.9584,4.9504,4.983,4.9977,5.0005,5.0384,5.0585,5.0625,5.0566,5.0129,4.9505,4.9141,4.8778,4.8381,4.6912,4.6256,4.6471,4.5896,4.5386,4.5105,4.49,4.4648,4.4335,4.3971,4.3876,4.4081,4.3932,4.424,4.5052,4.5306,4.5701,4.6372,4.7654,4.8498,4.8728,4.9776,5.0944,5.2166,5.2853,5.3222,5.3239,5.4226,5.5007,5.5258,5.6661,5.7621,5.7926,5.8581,5.9012,5.9012,5.9012,5.9185,5.9599,5.9944,6.0513,6.1306,6.203,6.2634,6.3048,6.3393,6.36,6.36,6.36,6.36,6.36,6.36,6.36,6.36,6.36,6.36,6.36,6.36,6.36,6.36,6.3785,6.3858,6.393,6.4002,6.4163,6.4145,6.4002,6.4002,6.4074,6.3875,6.3729,6.3858,6.3729,6.36,6.36,6.36,6.36,5.0436,5.0867,5.0205,5.022,5.0667,5.0513,5.0174,4.9697,4.9497,4.9127,4.865,4.8604,4.8604,4.8496,4.7592,4.7384,4.7575,4.6377,4.6762,4.818,4.8043,4.8608,4.9837,4.9995,5.0214,5.0525,5.0739,5.1059,5.1376,5.1931,5.2203,5.212,5.1962,5.1514,5.0961,5.0776,5.0408,4.9871,4.8977,4.8348,4.7886,4.8113,4.8289,4.8416,4.8383,4.8416,4.8383,4.7771,4.755,4.7737,4.717,4.6977,4.7204,4.7802,4.8134,4.8249,4.9709,5.0525,5.0354,5.1595,5.2603,5.2994,5.3557,5.4114,5.4724,5.5443,5.5874,5.6046,5.7239,5.8185,5.8254,5.865,5.9081,5.9219,5.9288,5.9633,6.0306,6.0582,6.1116,6.2289,6.2634,6.2979,6.3427,6.36,6.36,6.36,6.36,6.36,6.36,6.36,6.36,6.36,6.36,6.36,6.36,6.36,6.36,6.3582,6.3858,6.4057,6.4111,6.4411,6.4637,6.4637,6.4428,6.4358,6.4585,6.4287,6.4002,6.4199,6.4074,6.3875,6.3729,6.3729,6.3656,5.1544,5.1513,5.0882,5.062,5.0667,5.0112,4.9805,4.9635,4.902,4.8681,4.862,4.8604,4.8604,4.8687,4.8845,4.901,4.9106,4.9347,4.9474,4.9647,4.9647,4.9726,4.9979,5.0292,5.0448,5.0586,5.1401,5.1786,5.1931,5.2487,5.2767,5.2683,5.2116,5.1816,5.1648,5.1128,5.0676,5.0592,5.095,5.024,4.8436,4.7934,4.7951,4.8416,4.8433,4.8416,4.8513,4.7933,4.8111,4.8832,4.8158,4.803,4.8855,4.9244,4.9454,4.9471,5.0273,5.1125,5.2225,5.3511,5.423,5.4328,5.4333,5.4741,5.5443,5.6219,5.6702,5.6909,5.8047,5.8823,5.8909,5.8978,5.9288,5.9909,6.0013,6.0375,6.1099,6.1841,6.2358,6.2444,6.3065,6.3531,6.3565,6.36,6.36,6.36,6.36,6.36,6.36,6.3673,6.3656,6.3673,6.36,6.3656,6.3656,6.36,6.3656,6.3656,6.393,6.4111,6.4323,6.4481,6.4706,6.4929,6.4706,6.4706,6.4724,6.4637,6.4568,6.4568,6.4568,6.4446,6.4199,6.4057,6.3985,5.1944,5.2236,5.1575,5.1528,5.1759,5.1159,5.0651,5.022,4.978,4.9404,4.9047,4.9275,4.9275,4.9031,4.9437,4.9757,4.9979,4.9916,5.0152,5.0634,5.037,5.0386,5.0695,5.0848,5.0924,5.0924,5.1639,5.2004,5.2131,5.2922,5.3483,5.3798,5.3508,5.342,5.3321,5.3113,5.2609,5.1891,5.2004,5.1494,5.0388,5.0333,5.0459,5.0629,5.0629,5.0407,5.0032,4.9814,4.9875,5.0258,4.9593,4.967,5.0504,5.0684,5.071,5.076,5.1694,5.2699,5.3644,5.4195,5.4512,5.4512,5.4925,5.5322,5.5632,5.6719,5.746,5.7581,5.8409,5.9012,5.9012,5.9012,5.934,6.003,6.022,6.0668,6.1892,6.2289,6.2617,6.3048,6.341,6.36,6.36,6.36,6.36,6.36,6.36,6.3673,6.3582,6.3785,6.393,6.3913,6.4074,6.4145,6.4002,6.4145,6.4217,6.4287,6.4533,6.4722,6.479,6.5096,6.5331,6.5331,6.518,6.5096,6.5331,6.5212,6.511,6.5061,6.4775,6.4655,6.4498,6.4428,6.4411,5.2267,5.2606,5.219,5.2252,5.2637,5.199,5.1421,5.0953,5.0527,5.009,4.9848,5.0137,5.0276,5.0088,5.012,5.023,5.0448,5.0292,5.0541,5.1183,5.1,5.1118,5.1376,5.1582,5.1672,5.1729,5.2219,5.2557,5.2767,5.3466,5.411,5.4448,5.4512,5.4512,5.4512,5.4512,5.4029,5.3242,5.3126,5.287,5.2455,5.2637,5.2649,5.227,5.2201,5.1959,5.1459,5.1288,5.1288,5.1348,5.0933,5.0969,5.1657,5.1913,5.2101,5.234,5.3169,5.3942,5.4477,5.4512,5.4512,5.4581,5.5184,5.5719,5.6115,5.715,5.7961,5.8236,5.8702,5.9012,5.9012,5.9012,5.9444,6.0323,6.0496,6.1134,6.2548,6.2789,6.3013,6.3496,6.3565,6.36,6.36,6.3656,6.3802,6.3802,6.3875,6.3875,6.3947,6.4145,6.427,6.4252,6.455,6.4619,6.434,6.4428,6.4724,6.4961,6.5127,6.5439,6.5504,6.5859,6.6066,6.6092,6.565,6.565,6.603,6.5914,6.577,6.5679,6.5504,6.5308,6.5356,6.5242,6.529,5.2683,5.2713,5.2683,5.2667,5.2652,5.2006,5.1682,5.157,5.0745,5.0555,5.0978,5.1242,5.159,5.1832,5.0935,5.0509,5.0602,5.1,5.1167,5.1317,5.1696,5.1915,5.1987,5.2487,5.2697,5.2627,5.3213,5.3766,5.4222,5.4367,5.4448,5.4512,5.4512,5.4512,5.4512,5.4512,5.4494,5.431,5.4293,5.431,5.4276,5.4276,5.3632,5.2494,5.2252,5.2304,5.2106,5.1719,5.1719,5.2106,5.1719,5.1691,5.22,5.2915,5.357,5.4173,5.4391,5.4443,5.4494,5.4546,5.4581,5.4649,5.5339,5.5977,5.6702,5.7512,5.8219,5.8875,5.8944,5.9012,5.9012,5.9012,5.9633,6.0961,6.122,6.1892,6.3324,6.3427,6.3531,6.3582,6.36,6.36,6.3582,6.3858,6.3985,6.4057,6.434,6.4568,6.4568,6.4655,6.4637,6.4757,6.4894,6.5078,6.4775,6.4843,6.5011,6.5326,6.5697,6.5976,6.6283,6.6541,6.6718,6.6736,6.6197,6.6197,6.6718,6.6834,6.6718,6.6659,6.67,6.6564,6.6204,6.6427,6.6427,5.2713,5.2713,5.2713,5.2713,5.2637,5.199,5.1858,5.2098,5.1617,5.1435,5.1549,5.2124,5.2359,5.2026,5.2043,5.1971,5.1971,5.2131,5.2203,5.2219,5.24,5.247,5.254,5.2697,5.2836,5.2905,5.3433,5.398,5.4448,5.4512,5.4512,5.4512,5.4512,5.4512,5.4512,5.4512,5.4512,5.4512,5.4512,5.4512,5.4512,5.4512,5.4218,5.3736,5.3684,5.346,5.2994,5.2791,5.2774,5.2977,5.2774,5.2997,5.3587,5.3942,5.4201,5.446,5.4512,5.4512,5.4563,5.496,5.5219,5.5305,5.6391,5.7133,5.7547,5.8167,5.8737,5.8944,5.9012,5.9012,5.9012,5.9012,5.9633,6.0961,6.1323,6.1892,6.3169,6.36,6.36,6.36,6.36,6.36,6.36,6.3729,6.3858,6.4057,6.427,6.4428,6.4706,6.4894,6.5029,6.5096,6.5295,6.5528,6.5462,6.5397,6.5557,6.5922,6.6276,6.6482,6.6776,6.6892,6.7006,6.7119,6.6736,6.66,6.7063,6.7175,6.7137,6.736,6.7451,6.7286,6.6931,6.7045,6.7083,5.2713,5.2713,5.2713,5.2713,5.2652,5.2221,5.2343,5.284,5.2685,5.2733,5.3051,5.3526,5.3461,5.3188,5.328,5.3315,5.3315,5.2974,5.2836,5.2836,5.2991,5.3128,5.3128,5.3247,5.3315,5.3382,5.3749,5.4158,5.4448,5.4512,5.4512,5.4512,5.4512,5.4512,5.4512,5.4512,5.4512,5.4512,5.4512,5.4512,5.4512,5.4512,5.4512,5.4512,5.4512,5.4287,5.377,5.3753,5.3753,5.3753,5.3753,5.3994,5.4443,5.4512,5.4512,5.4512,5.4512,5.4615,5.4874,5.5339,5.5719,5.6029,5.7116,5.7892,5.7943,5.8599,5.8944,5.9012,5.9012,5.9012,5.9012,5.9012,5.9633,6.0961,6.1306,6.1927,6.3341,6.3582,6.36,6.36,6.36,6.36,6.36,6.3729,6.3858,6.4111,6.4235,6.4602,6.4808,6.5163,6.5474,6.5586,6.5877,6.6128,6.6172,6.6197,6.6197,6.6559,6.6677,6.691,6.7249,6.736,6.736,6.7396,6.7396,6.7286,6.7286,6.7469,6.7649,6.793,6.793,6.7807,6.7649,6.7577,6.763,5.2713,5.2788,5.2713,5.2877,5.2935,5.2874,5.3227,5.3957,5.3983,5.4542,5.5338,5.5122,5.4958,5.5218,5.4651,5.45,5.4261,5.3433,5.2974,5.3043,5.3483,5.3717,5.37,5.4093,5.4303,5.4303,5.4483,5.4465,5.4512,5.4512,5.4512,5.4512,5.4512,5.4512,5.4512,5.4512,5.4512,5.4512,5.4512,5.4512,5.4512,5.4512,5.4512,5.4512,5.4512,5.4494,5.4443,5.446,5.4425,5.4443,5.4425,5.4494,5.4494,5.4512,5.4512,5.4529,5.4529,5.4891,5.546,5.5701,5.6202,5.6736,5.7529,5.803,5.815,5.8633,5.9012,5.9012,5.9012,5.9012,5.9012,5.9012,5.9633,6.1013,6.1306,6.1944,6.3169,6.36,6.36,6.36,6.36,6.36,6.3656,6.3785,6.3985,6.4199,6.4653,6.511,6.526,6.5557,6.5958,6.6251,6.6312,6.6251,6.6677,6.7063,6.7045,6.7101,6.7101,6.7286,6.7755,6.7982,6.793,6.7982,6.7736,6.763,6.7755,6.793,6.8121,6.834,6.829,6.829,6.8171,6.8121,6.824,5.3593,5.3664,5.4248,5.4569,5.4637,5.4569,5.4968,5.5683,5.5488,5.5693,5.6101,5.6099,5.6046,5.5723,5.5403,5.527,5.5154,5.435,5.3946,5.3946,5.4158,5.4257,5.4257,5.4448,5.4512,5.4598,5.5046,5.4994,5.4598,5.4512,5.4512,5.4512,5.4512,5.4512,5.4512,5.4512,5.4512,5.4512,5.4512,5.4512,5.4512,5.4512,5.4512,5.4512,5.4512,5.4512,5.4512,5.4512,5.4512,5.4512,5.4512,5.4512,5.4512,5.4512,5.4512,5.4563,5.5012,5.5322,5.5701,5.6598,5.7236,5.7633,5.8254,5.8616,5.8668,5.8857,5.9012,5.9012,5.9012,5.9012,5.9012,5.9012,5.972,6.1134,6.1323,6.191,6.3272,6.36,6.36,6.36,6.36,6.36,6.36,6.3729,6.3858,6.4128,6.4773,6.529,6.5615,6.5905,6.6312,6.6494,6.6373,6.6355,6.6794,6.7193,6.7305,6.7341,6.7451,6.763,6.8102,6.8389,6.8389,6.834,6.8102,6.8033,6.8222,6.834,6.8475,6.8524,6.8408,6.8457,6.8475,6.8524,6.8524,5.375,5.4062,5.4553,5.5133,5.5442,5.5377,5.5859,5.6581,5.652,5.6729,5.7116,5.7151,5.6986,5.6525,5.595,5.5632,5.5529,5.4839,5.4512,5.4581,5.4839,5.4908,5.4925,5.4925,5.4925,5.4925,5.5115,5.5132,5.4925,5.4649,5.4512,5.4512,5.4512,5.4512,5.4512,5.4512,5.4512,5.4512,5.4512,5.4512,5.4512,5.4512,5.4512,5.4512,5.4512,5.4512,5.4512,5.4512,5.4512,5.4512,5.4512,5.4512,5.4512,5.4512,5.4632,5.496,5.5357,5.5839,5.6443,5.734,5.8064,5.834,5.8754,5.8995,5.9012,5.9012,5.9012,5.9012,5.9012,5.9012,5.903,5.9306,6.0013,6.1151,6.1306,6.1996,6.3238,6.36,6.36,6.36,6.36,6.36,6.36,6.36,6.3656,6.3985,6.4515,6.5158,6.5551,6.5967,6.6337,6.6696,6.6928,6.6985,6.7024,6.7267,6.7433,6.7595,6.7736,6.7982,6.834,6.8457,6.8475,6.8475,6.829,6.829,6.8408,6.8408,6.8524,6.8524,6.8524,6.8524,6.8524,6.8524,6.8524,5.3434,5.4078,5.4232,5.4886,5.5619,5.5619,5.627,5.698,5.7206,5.7814,5.8408,5.8136,5.7962,5.7583,5.6581,5.5943,5.5563,5.4994,5.4598,5.477,5.5219,5.5598,5.5339,5.5529,5.5632,5.5443,5.5081,5.5098,5.5443,5.496,5.4546,5.4512,5.4615,5.4598,5.4684,5.4598,5.4667,5.4684,5.4563,5.4512,5.4512,5.4512,5.4512,5.4529,5.4615,5.4667,5.4684,5.4701,5.4598,5.4529,5.4581,5.4684,5.4615,5.4598,5.5098,5.565,5.5719,5.6529,5.7512,5.7943,5.8288,5.884,5.8944,5.9012,5.9012,5.9012,5.9012,5.9012,5.9012,5.9012,5.9133,5.9651,6.0461,6.122,6.1634,6.2324,6.3341,6.36,6.36,6.36,6.36,6.36,6.36,6.36,6.3656,6.3729,6.4111,6.4841,6.5242,6.5931,6.6523,6.6892,6.7193,6.736,6.7286,6.7487,6.772,6.7948,6.8051,6.8222,6.8408,6.8475,6.8524,6.8524,6.8524,6.8524,6.8524,6.8524,6.8524,6.8524,6.8524,6.8524,6.8524,6.8524,6.8524,5.5716,5.5955,5.6581,5.7072,5.7389,5.7446,5.7701,5.8226,5.8171,5.8456,5.8823,5.872,5.8565,5.8581,5.7702,5.7012,5.6391,5.5667,5.4977,5.4787,5.5926,5.5719,5.5288,5.5977,5.6202,5.5788,5.5943,5.5995,5.5632,5.546,5.5081,5.4546,5.5115,5.5339,5.5322,5.5339,5.5322,5.5236,5.4753,5.4529,5.4512,5.4512,5.4512,5.4563,5.5029,5.527,5.5322,5.5322,5.5046,5.4598,5.5063,5.5305,5.5374,5.5805,5.6184,5.6477,5.6978,5.7409,5.7892,5.8409,5.8788,5.8961,5.9012,5.9012,5.9012,5.9012,5.9012,5.9012,5.9012,5.9012,5.9133,5.9754,6.0737,6.1979,6.2548,6.3031,6.3444,6.36,6.36,6.36,6.36,6.36,6.3673,6.3802,6.384,6.393,6.4498,6.5273,6.5486,6.6038,6.67,6.6931,6.7175,6.7451,6.7612,6.7807,6.8,6.829,6.834,6.8358,6.8475,6.8475,6.8524,6.8524,6.8524,6.8524,6.8524,6.8524,6.8524,6.8524,6.8524,6.8524,6.8524,6.8524,6.8524,5.6348,5.6768,5.7406,5.7865,5.8331,5.8348,5.849,5.8718,5.8701,5.8754,5.8961,5.8892,5.8892,5.8926,5.8219,5.7685,5.7185,5.646,5.5908,5.577,5.6719,5.6736,5.6357,5.696,5.7012,5.6633,5.6719,5.6719,5.6564,5.6288,5.5874,5.5667,5.5891,5.6115,5.6115,5.6098,5.5926,5.5615,5.5167,5.4856,5.4546,5.4512,5.4736,5.4925,5.5426,5.5719,5.6029,5.6115,5.577,5.5253,5.5391,5.5753,5.6115,5.6529,5.6926,5.7236,5.7702,5.7995,5.8374,5.8788,5.8978,5.9012,5.9012,5.9012,5.9012,5.9012,5.9012,5.9012,5.9012,5.9012,5.9202,5.9995,6.1323,6.2668,6.3341,6.36,6.36,6.36,6.36,6.36,6.36,6.3656,6.3802,6.3985,6.4057,6.4217,6.4671,6.5176,6.5551,6.6283,6.6816,6.7006,6.7286,6.763,6.7789,6.7982,6.8033,6.8272,6.8457,6.8524,6.8524,6.8524,6.8524,6.8524,6.8524,6.8524,6.8524,6.8524,6.8524,6.8524,6.8524,6.8524,6.8524,6.8524,6.8524,5.6331,5.7089,5.7281,5.7758,5.8419,5.8561,5.8648,5.8788,5.8788,5.8909,5.8944,5.9012,5.9012,5.8978,5.8426,5.7978,5.7823,5.7185,5.6978,5.6995,5.7512,5.7719,5.7823,5.7667,5.7736,5.7598,5.7167,5.7322,5.7409,5.7116,5.6857,5.6684,5.6771,5.6909,5.6909,5.6891,5.6529,5.6115,5.5874,5.5512,5.5115,5.5046,5.5288,5.5701,5.5995,5.6374,5.6771,5.6874,5.6598,5.5908,5.5839,5.6305,5.6857,5.696,5.7374,5.7874,5.8116,5.8374,5.884,5.8961,5.9012,5.9012,5.9012,5.9012,5.9012,5.9012,5.9012,5.9012,5.9012,5.915,5.9633,6.0634,6.1944,6.3169,6.3565,6.3582,6.36,6.36,6.36,6.36,6.36,6.3729,6.3913,6.4111,6.427,6.427,6.4808,6.5278,6.5697,6.6222,6.6718,6.7081,6.7469,6.786,6.8033,6.8153,6.8134,6.8203,6.8389,6.8506,6.8524,6.8524,6.8524,6.8524,6.8524,6.8524,6.8524,6.8524,6.8524,6.8524,6.8524,6.8524,6.8524,6.8524,6.8524,5.801,5.8171,5.8171,5.8331,5.849,5.8648,5.8788,5.8788,5.8892,5.8944,5.9012,5.9012,5.9012,5.9012,5.8771,5.8478,5.8012,5.7754,5.7667,5.7685,5.7771,5.8288,5.8495,5.8236,5.7943,5.7892,5.7771,5.7771,5.7823,5.7771,5.7374,5.6995,5.746,5.7685,5.7667,5.765,5.7616,5.7322,5.684,5.6443,5.6236,5.6167,5.6271,5.6581,5.7064,5.7443,5.7616,5.7667,5.7564,5.7443,5.7391,5.7443,5.7702,5.8133,5.8461,5.8599,5.8719,5.8823,5.8978,5.9012,5.9012,5.9012,5.9012,5.9012,5.9012,5.9047,5.9047,5.9012,5.903,5.9633,6.0634,6.1634,6.2548,6.3324,6.36,6.36,6.36,6.36,6.36,6.36,6.36,6.3656,6.3802,6.4358,6.4481,6.4411,6.4808,6.5361,6.5841,6.6283,6.67,6.7193,6.7487,6.7807,6.8102,6.8203,6.8203,6.8153,6.8321,6.8506,6.8524,6.8524,6.8524,6.8524,6.8524,6.8524,6.8524,6.8524,6.8524,6.8524,6.8524,6.8524,6.8524,6.8524,6.8524,5.8578,5.8648,5.8684,5.8754,5.8754,5.8823,5.8909,5.8909,5.8961,5.9012,5.9012,5.9012,5.9012,5.9012,5.8995,5.8754,5.8512,5.8409,5.8409,5.8426,5.8443,5.8633,5.8857,5.8668,5.8426,5.8426,5.8426,5.8409,5.8426,5.8392,5.8254,5.7892,5.8219,5.8409,5.8426,5.8392,5.8202,5.7857,5.7547,5.7167,5.6857,5.6805,5.7047,5.7391,5.8012,5.8426,5.8426,5.8426,5.8426,5.8426,5.8409,5.8409,5.8443,5.8771,5.8978,5.9012,5.9012,5.9012,5.9012,5.9012,5.9012,5.9012,5.9012,5.9012,5.915,5.9323,5.9564,5.9651,5.9961,6.0616,6.1703,6.2134,6.2824,6.3393,6.36,6.36,6.36,6.36,6.3656,6.3802,6.3858,6.4057,6.434,6.455,6.5078,6.5194,6.5457,6.5985,6.638,6.6816,6.6988,6.736,6.7523,6.7807,6.8102,6.8272,6.8272,6.8272,6.8272,6.8457,6.8524,6.8524,6.8524,6.8524,6.8524,6.8524,6.8524,6.8524,6.8524,6.8524,6.8524,6.8524,6.8524,6.8524,6.8524,5.8631,5.8788,5.8892,5.8944,5.9012,5.9012,5.9012,5.9012,5.9012,5.9012,5.9012,5.9012,5.9012,5.9012,5.9012,5.9012,5.8978,5.8961,5.8875,5.8875,5.8875,5.8926,5.8978,5.8944,5.8909,5.8995,5.8926,5.8926,5.8926,5.8995,5.8823,5.8926,5.8961,5.8892,5.8961,5.8978,5.8702,5.8219,5.8116,5.7874,5.7409,5.7322,5.7616,5.8081,5.8547,5.8892,5.8892,5.8909,5.8961,5.9012,5.9012,5.9012,5.9012,5.9012,5.9012,5.9012,5.9012,5.9012,5.9012,5.9012,5.9012,5.9012,5.9185,5.9219,5.9392,5.9909,6.0289,6.0599,6.0944,6.1634,6.2393,6.2686,6.2996,6.3427,6.36,6.36,6.36,6.36,6.3729,6.3858,6.3858,6.3985,6.4393,6.4671,6.5374,6.5967,6.6172,6.6476,6.6794,6.7063,6.7175,6.7505,6.7702,6.793,6.8272,6.8102,6.8171,6.8051,6.8102,6.8153,6.824,6.807,6.8,6.8475,6.8524,6.8475,6.8475,6.8524,6.8524,6.8524,6.8524,6.8524,6.8524,6.8524,6.8475,5.8648,5.8788,5.8857,5.8909,5.9012,5.9012,5.9012,5.9012,5.9012,5.9012,5.9012,5.9012,5.9012,5.9012,5.9012,5.9012,5.9012,5.9012,5.9012,5.9012,5.9012,5.9012,5.9012,5.9012,5.9012,5.9012,5.9012,5.9012,5.9012,5.9012,5.9012,5.9012,5.9012,5.9012,5.9012,5.8995,5.8961,5.8719,5.8702,5.8564,5.8461,5.8426,5.8461,5.8719,5.8926,5.8995,5.9012,5.9012,5.9012,5.9012,5.9012,5.9012,5.9012,5.9012,5.9012,5.9012,5.9012,5.9012,5.9012,5.9064,5.903,5.915,5.9633,5.9978,6.0168,6.0668,6.1116,6.1392,6.1806,6.2375,6.2479,6.2979,6.3358,6.3582,6.36,6.36,6.36,6.36,6.3582,6.3729,6.3729,6.3875,6.427,6.4602,6.4993,6.5374,6.5633,6.6012,6.6404,6.674,6.6913,6.7378,6.786,6.8153,6.8438,6.8102,6.793,6.7755,6.7702,6.7577,6.7577,6.736,6.7487,6.7948,6.829,6.8408,6.8408,6.8457,6.8524,6.8524,6.8524,6.8524,6.8524,6.8475,6.834,5.8771,5.8892,5.8892,5.8961,5.9012,5.9012,5.9012,5.9012,5.9012,5.9012,5.9012,5.9012,5.9012,5.9012,5.9012,5.9012,5.9012,5.9012,5.9012,5.9012,5.9012,5.9012,5.9012,5.9012,5.9012,5.9012,5.9012,5.9012,5.9012,5.9012,5.9012,5.9012,5.9012,5.9012,5.9012,5.9012,5.9012,5.9012,5.9012,5.9012,5.9012,5.9012,5.9012,5.9012,5.9012,5.9012,5.9012,5.9012,5.9012,5.9012,5.9012,5.9012,5.9012,5.9012,5.9012,5.9012,5.9012,5.9012,5.9116,5.9323,5.9633,5.9737,6.034,6.072,6.0961,6.1427,6.203,6.2444,6.2668,6.3065,6.31,6.341,6.3548,6.36,6.36,6.36,6.36,6.36,6.36,6.36,6.3785,6.4002,6.4305,6.455,6.4602,6.479,6.5043,6.5533,6.602,6.6445,6.674,6.7451,6.793,6.8,6.8222,6.8102,6.7702,6.7469,6.7415,6.7286,6.7175,6.7137,6.7249,6.7523,6.7826,6.8051,6.8222,6.8222,6.8358,6.8475,6.8408,6.8408,6.8475,6.8457,6.8222,5.884,5.8961,5.8944,5.8944,5.9012,5.9012,5.9012,5.9012,5.9012,5.9012,5.9012,5.9012,5.9012,5.9012,5.9012,5.9012,5.9012,5.9012,5.9012,5.9012,5.9012,5.9012,5.9012,5.9012,5.9012,5.9012,5.9012,5.9012,5.9012,5.9012,5.9012,5.9012,5.9012,5.9012,5.9012,5.9012,5.9012,5.9012,5.9012,5.9012,5.9012,5.9012,5.9012,5.9012,5.9012,5.9012,5.9012,5.9012,5.9012,5.9012,5.9012,5.9012,5.9012,5.9012,5.9012,5.9012,5.9012,5.9064,5.9392,5.9737,6.0151,6.0409,6.1116,6.1444,6.172,6.2237,6.291,6.3462,6.3565,6.3531,6.3479,6.3582,6.36,6.36,6.36,6.36,6.36,6.36,6.36,6.3729,6.393,6.4199,6.4481,6.4533,6.4567,6.4567,6.4841,6.5207,6.5689,6.6265,6.674,6.7505,6.7878,6.7773,6.7897,6.8102,6.763,6.7175,6.7249,6.7305,6.7137,6.7024,6.7137,6.7081,6.7249,6.7433,6.7702,6.793,6.7878,6.793,6.8102,6.8153,6.8,6.8051,6.8051,5.8631,5.8857,5.8857,5.8892,5.9012,5.9012,5.9012,5.9012,5.9012,5.9012,5.9012,5.9012,5.9012,5.9012,5.9012,5.9012,5.9012,5.9012,5.9012,5.9012,5.9012,5.9012,5.9012,5.9012,5.9012,5.9012,5.9012,5.9012,5.9012,5.9012,5.9012,5.9012,5.9012,5.9012,5.9012,5.9012,5.9012,5.9012,5.9012,5.9012,5.9012,5.9012,5.9012,5.9012,5.9012,5.9012,5.9012,5.9012,5.9012,5.9012,5.9012,5.9012,5.9012,5.9012,5.9012,5.9012,5.9081,5.9306,5.9875,6.022,6.0634,6.1168,6.1892,6.2255,6.2513,6.2893,6.341,6.3531,6.36,6.36,6.36,6.36,6.36,6.36,6.36,6.36,6.36,6.36,6.36,6.3802,6.4057,6.4306,6.4636,6.4618,6.4601,6.4549,6.4618,6.499,6.545,6.6038,6.6523,6.7231,6.763,6.7541,6.7506,6.7649,6.7415,6.6834,6.7063,6.7193,6.6967,6.6754,6.6595,6.6595,6.6754,6.691,6.7193,6.7286,6.7286,6.7396,6.763,6.7469,6.7231,6.7469,6.7755,5.8351,5.8909,5.8892,5.8961,5.9012,5.9012,5.9012,5.9012,5.9012,5.9012,5.9012,5.9012,5.9012,5.9012,5.9012,5.9012,5.9012,5.9012,5.9012,5.9012,5.9012,5.9012,5.9012,5.9012,5.9012,5.9012,5.9012,5.9012,5.9012,5.9012,5.9012,5.9012,5.9012,5.9012,5.9012,5.9012,5.9012,5.9012,5.9012,5.9012,5.9012,5.9012,5.9012,5.9012,5.9012,5.9012,5.9012,5.9012,5.9012,5.9012,5.9012,5.9012,5.9012,5.9012,5.9012,5.9047,5.9478,5.984,6.0185,6.0582,6.1203,6.191,6.2617,6.31,6.3186,6.3358,6.36,6.36,6.36,6.36,6.36,6.36,6.36,6.36,6.36,6.36,6.36,6.36,6.3673,6.393,6.4199,6.4584,6.4773,6.4636,6.4618,6.4636,6.4722,6.5043,6.5439,6.5887,6.638,6.6794,6.7137,6.7305,6.7193,6.7212,6.6928,6.6637,6.6949,6.6949,6.6696,6.6476,6.6355,6.6536,6.691,6.6967,6.6852,6.6949,6.7175,6.7175,6.7119,6.7006,6.6949,6.7063,6.7341,5.8317,5.9012,5.8961,5.8961,5.8961,5.8961,5.8944,5.9012,5.9012,5.9012,5.9012,5.9012,5.9012,5.9012,5.9012,5.9012,5.9012,5.9012,5.9012,5.9012,5.9012,5.9012,5.9012,5.9012,5.9012,5.9012,5.9012,5.9012,5.9012,5.9012,5.9012,5.9012,5.9012,5.9012,5.9012,5.9012,5.9012,5.9012,5.9012,5.9012,5.9012,5.9012,5.9012,5.9012,5.9012,5.9012,5.9012,5.9012,5.9012,5.9012,5.9012,5.9012,5.9012,5.9012,5.9012,5.9168,5.9633,6.0237,6.0668,6.1203,6.1944,6.2651,6.3151,6.3496,6.3531,6.36,6.36,6.36,6.36,6.36,6.36,6.36,6.36,6.36,6.36,6.36,6.3673,6.3729,6.3875,6.4002,6.4393,6.4944,6.4993,6.4722,6.4584,6.4653,6.4808,6.5029,6.5409,6.5859,6.6172,6.6577,6.6736,6.6967,6.7081,6.6852,6.6536,6.6416,6.6736,6.6736,6.6416,6.6476,6.6536,6.6754,6.6967,6.6794,6.6577,6.6852,6.7063,6.6892,6.6794,6.6776,6.6776,6.6874,6.7006,5.8927,5.9012,5.884,5.8857,5.8857,5.8788,5.8892,5.9012,5.9012,5.9012,5.9012,5.9012,5.9012,5.9012,5.9012,5.9012,5.9012,5.9012,5.9012,5.9012,5.9012,5.9012,5.9012,5.9012,5.9012,5.9012,5.9012,5.9012,5.9012,5.9012,5.9012,5.9012,5.9012,5.9012,5.9012,5.9012,5.9012,5.9012,5.9012,5.9012,5.9012,5.9012,5.9012,5.9012,5.9012,5.9012,5.9012,5.9012,5.9012,5.9012,5.9012,5.9012,5.9012,5.9012,5.9012,5.9357,5.9944,6.0616,6.122,6.1841,6.2668,6.3255,6.3548,6.36,6.36,6.36,6.36,6.3673,6.3729,6.3729,6.3656,6.36,6.3802,6.3802,6.3947,6.3985,6.3985,6.4074,6.4145,6.4199,6.4533,6.5078,6.5344,6.5078,6.4926,6.4993,6.4926,6.5212,6.551,6.5832,6.6083,6.6312,6.6416,6.6637,6.6949,6.6794,6.6416,6.6294,6.6518,6.6416,6.6146,6.6312,6.6595,6.6577,6.6618,6.6476,6.6434,6.6794,6.6949,6.6637,6.6577,6.6718,6.6523,6.6404,6.6641,5.8031,5.7959,5.8544,5.884,5.8892,5.8892,5.8961,5.9012,5.9012,5.9012,5.9012,5.9012,5.9012,5.9012,5.9012,5.9012,5.9012,5.9012,5.9012,5.9012,5.9012,5.9012,5.9012,5.9012,5.9012,5.9012,5.9012,5.9012,5.9012,5.9012,5.9012,5.9012,5.9012,5.9012,5.9012,5.9012,5.9012,5.9012,5.9012,5.9012,5.9012,5.9012,5.9012,5.9012,5.9012,5.9012,5.9012,5.9012,5.9012,5.9012,5.9012,5.9012,5.9012,5.9012,5.9237,5.9685,6.0392,6.1151,6.1806,6.2341,6.2806,6.3393,6.36,6.36,6.3656,6.3785,6.3858,6.4002,6.4074,6.4145,6.4287,6.4287,6.4287,6.4287,6.427,6.4323,6.4446,6.4463,6.4722,6.4908,6.4926,6.5212,6.5427,6.5557,6.5427,6.5344,6.5326,6.5326,6.5575,6.5804,6.5976,6.6101,6.6146,6.6128,6.6458,6.6398,6.6294,6.6294,6.6294,6.6128,6.6039,6.633,6.6536,6.6416,6.6398,6.6458,6.6637,6.6892,6.6892,6.6736,6.6736,6.6834,6.6523,6.61,6.6362,5.7105,5.6954,5.7807,5.8514,5.8927,5.8961,5.8944,5.9012,5.9012,5.9012,5.9012,5.9012,5.9012,5.9012,5.9012,5.9012,5.9012,5.9012,5.9012,5.9012,5.9012,5.9012,5.9012,5.9012,5.9012,5.9012,5.9012,5.9012,5.9012,5.9012,5.9012,5.9012,5.9012,5.9012,5.9012,5.9012,5.9012,5.9012,5.9012,5.9012,5.9012,5.9012,5.9012,5.9012,5.9012,5.9012,5.9012,5.9012,5.9012,5.9012,5.9012,5.9012,5.9012,5.9116,5.9444,6.0133,6.0909,6.1651,6.2289,6.2789,6.3086,6.3716,6.3785,6.3875,6.393,6.4128,6.4287,6.427,6.4568,6.4706,6.4706,6.4637,6.4568,6.4498,6.4498,6.4619,6.479,6.4908,6.529,6.5615,6.576,6.5931,6.5949,6.6092,6.5814,6.5686,6.5557,6.5557,6.564,6.5804,6.5804,6.585,6.5913,6.585,6.585,6.5958,6.6083,6.6021,6.6021,6.6083,6.6083,6.6269,6.6312,6.619,6.6294,6.6518,6.6696,6.6736,6.6794,6.6852,6.6834,6.6816,6.6776,6.6422,6.6319,5.6641,5.6047,5.6692,5.7602,5.8703,5.8736,5.8806,5.8771,5.8806,5.8788,5.8754,5.8806,5.8823,5.8806,5.865,5.8702,5.8823,5.8875,5.8944,5.8978,5.9012,5.9012,5.9012,5.9012,5.9012,5.9012,5.9012,5.9012,5.9012,5.9012,5.9012,5.9012,5.9012,5.9012,5.9012,5.9012,5.9012,5.9012,5.9012,5.9012,5.9012,5.9012,5.9012,5.9012,5.9012,5.9012,5.9012,5.9012,5.9012,5.9012,5.9012,5.9012,5.9012,5.9012,5.9444,6.0271,6.0944,6.1685,6.2461,6.3151,6.3608,6.4039,6.4145,6.4217,6.4498,6.4637,6.4706,6.4688,6.4775,6.4775,6.4775,6.4775,6.4843,6.4843,6.4911,6.5029,6.526,6.5326,6.565,6.5949,6.6523,6.6931,6.6834,6.6618,6.6233,6.6021,6.585,6.5804,6.5804,6.5804,6.5804,6.5804,6.5804,6.5804,6.5804,6.5804,6.585,6.5804,6.5804,6.5913,6.5913,6.5976,6.5976,6.5976,6.6021,6.619,6.6355,6.6476,6.6595,6.6637,6.6641,6.6623,6.6641,6.6541,6.6179,5.6728,5.6488,5.6722,5.7308,5.81,5.7686,5.7497,5.7547,5.7547,5.7564,5.7547,5.7547,5.7547,5.7547,5.7685,5.7874,5.8236,5.8288,5.8392,5.8978,5.8995,5.9012,5.9012,5.9012,5.9012,5.9012,5.9012,5.9012,5.9012,5.9012,5.9012,5.9012,5.9012,5.9012,5.9012,5.9012,5.9012,5.9012,5.9012,5.9012,5.9012,5.9012,5.9012,5.9012,5.9012,5.9012,5.9012,5.9012,5.9012,5.9012,5.9012,5.9012,5.9012,5.9012,5.9616,6.0547,6.1341,6.1927,6.2824,6.357,6.3858,6.4287,6.4411,6.4498,6.4724,6.4961,6.5011,6.5078,6.518,6.5247,6.5462,6.5462,6.5462,6.5462,6.551,6.575,6.5922,6.575,6.5895,6.6048,6.6518,6.6458,6.6398,6.6637,6.6355,6.6128,6.5958,6.585,6.585,6.5786,6.5786,6.5804,6.5804,6.5804,6.5804,6.5804,6.5804,6.5804,6.5804,6.5804,6.5804,6.5804,6.5804,6.585,6.585,6.585,6.6021,6.6207,6.6312,6.6355,6.6301,6.6445,6.6505,6.6143,6.5515,5.5956,5.575,5.5947,5.6271,5.6719,5.6771,5.6805,5.6805,5.6805,5.6805,5.6822,5.6822,5.684,5.684,5.6857,5.696,5.7547,5.784,5.7995,5.8668,5.8944,5.8978,5.9012,5.8995,5.9012,5.9012,5.9012,5.9012,5.9012,5.9012,5.9012,5.9012,5.9012,5.9012,5.9012,5.9012,5.9012,5.9012,5.9012,5.9012,5.9012,5.9012,5.9012,5.9012,5.9012,5.9012,5.9012,5.9012,5.9012,5.9012,5.9012,5.9012,5.9012,5.9185,5.9823,6.0823,6.1996,6.262,6.3508,6.3768,6.4145,6.4585,6.4568,6.4568,6.4637,6.4825,6.4961,6.5096,6.5445,6.551,6.5593,6.564,6.5786,6.5786,6.585,6.6003,6.6021,6.5913,6.6021,6.6251,6.6355,6.6251,6.6146,6.6312,6.6476,6.6251,6.6083,6.6021,6.5976,6.5913,6.585,6.5804,6.5804,6.5804,6.5804,6.5804,6.5804,6.5804,6.5804,6.5804,6.5804,6.5804,6.5804,6.5804,6.5804,6.5804,6.5804,6.5913,6.6021,6.6003,6.5967,6.6118,6.6344,6.5958,6.545,5.4346,5.3817,5.4303,5.4615,5.4856,5.615,5.6684,5.6684,5.6719,5.6719,5.6719,5.6736,5.6719,5.6719,5.6719,5.6788,5.6891,5.746,5.7771,5.8099,5.8564,5.8754,5.8892,5.8961,5.8995,5.9012,5.9012,5.9012,5.9012,5.9012,5.9012,5.9012,5.9012,5.9012,5.9012,5.9012,5.9012,5.9012,5.9012,5.9012,5.9012,5.9012,5.9012,5.9012,5.9012,5.9012,5.9012,5.9012,5.9012,5.9012,5.9012,5.9012,5.9012,5.9012,5.9978,6.1116,6.2513,6.3335,6.3705,6.3739,6.4074,6.4358,6.427,6.4411,6.4637,6.4843,6.4961,6.5029,6.5229,6.5278,6.5344,6.5622,6.585,6.585,6.585,6.5895,6.5913,6.6039,6.6207,6.6434,6.6577,6.6577,6.6458,6.6577,6.6476,6.6476,6.6312,6.6294,6.6251,6.6146,6.6021,6.5804,6.5804,6.5804,6.5804,6.5804,6.5804,6.5804,6.5804,6.5804,6.5804,6.5804,6.5804,6.5804,6.5804,6.5804,6.5804,6.5804,6.5867,6.5768,6.5732,6.5824,6.61,6.6222,6.5896,5.4428,5.4303,5.4448,5.4805,5.5322,5.577,5.5667,5.527,5.5684,5.596,5.5995,5.6564,5.6391,5.5995,5.596,5.6305,5.6477,5.6633,5.7133,5.7598,5.8081,5.8185,5.8409,5.8702,5.8909,5.9012,5.9012,5.9012,5.9012,5.9012,5.9012,5.9012,5.9012,5.9012,5.9012,5.9012,5.9012,5.9012,5.9012,5.9012,5.9012,5.9012,5.9012,5.9012,5.9012,5.9012,5.9012,5.9012,5.9012,5.9012,5.9012,5.9012,5.9012,5.9047,5.9582,6.0478,6.1789,6.2862,6.3021,6.3435,6.3875,6.4074,6.4057,6.434,6.4637,6.4843,6.4961,6.5029,6.5229,6.5361,6.5539,6.5814,6.5895,6.585,6.5958,6.6083,6.6083,6.6021,6.6269,6.6416,6.6577,6.6577,6.6518,6.6577,6.6476,6.6536,6.6536,6.6518,6.6416,6.6312,6.6083,6.585,6.5804,6.5804,6.5804,6.5804,6.5804,6.5804,6.5804,6.5804,6.5804,6.5804,6.5804,6.5804,6.5804,6.5804,6.5804,6.5786,6.5657,6.5704,6.575,6.5778,6.5824,6.5869,6.5914,5.4512,5.4512,5.4512,5.477,5.5132,5.5184,5.4891,5.4649,5.4994,5.5184,5.5236,5.5632,5.5632,5.5253,5.5219,5.5563,5.6219,5.6012,5.6357,5.7133,5.746,5.7719,5.8012,5.834,5.8685,5.8857,5.8995,5.9012,5.9012,5.9012,5.9012,5.9012,5.9012,5.9012,5.9012,5.9012,5.9012,5.9012,5.9012,5.9012,5.9012,5.9012,5.9012,5.9012,5.9012,5.9012,5.9012,5.9012,5.9012,5.9012,5.9012,5.9012,5.9116,5.9271,5.9564,6.0496,6.1651,6.241,6.2741,6.3293,6.3535,6.3785,6.3967,6.4287,6.4568,6.4843,6.4894,6.4961,6.5295,6.5557,6.5796,6.5985,6.5958,6.585,6.6083,6.6312,6.6251,6.6146,6.619,6.6294,6.6355,6.6355,6.6373,6.6476,6.6476,6.6536,6.6476,6.6355,6.6373,6.6269,6.6101,6.5867,6.5804,6.5804,6.5804,6.5804,6.5804,6.5804,6.5804,6.5804,6.5804,6.5804,6.5804,6.5804,6.5804,6.5722,6.564,6.5575,6.5492,6.5492,6.5492,6.5457,6.5374,6.5225,6.5273,5.4512,5.4512,5.4512,5.4529,5.4512,5.4563,5.4529,5.4512,5.4563,5.4581,5.4684,5.477,5.496,5.4994,5.496,5.5201,5.5581,5.5546,5.577,5.6684,5.6702,5.6926,5.734,5.7874,5.8323,5.8737,5.8978,5.9012,5.9012,5.9012,5.9012,5.9012,5.9012,5.9012,5.9012,5.9012,5.9012,5.9012,5.9012,5.9012,5.9012,5.9012,5.9012,5.9012,5.9012,5.9012,5.9012,5.9012,5.9012,5.9012,5.9012,5.9012,5.9219,5.9478,5.9875,6.0393,6.1325,6.1863,6.2383,6.2972,6.3566,6.3883,6.4147,6.4463,6.4757,6.4894,6.4961,6.5029,6.5361,6.551,6.575,6.611,6.619,6.6083,6.6146,6.6373,6.6373,6.6416,6.6577,6.6677,6.6618,6.6637,6.6677,6.6794,6.6736,6.6637,6.6595,6.6476,6.6416,6.6434,6.6146,6.5976,6.5867,6.5804,6.5804,6.5804,6.5804,6.5804,6.5804,6.5804,6.5804,6.5804,6.5804,6.5804,6.5804,6.5575,6.5427,6.5361,6.5229,6.5029,6.5029,6.5061,6.4976,6.4704,6.4941,5.4512,5.4512,5.4512,5.4512,5.4512,5.4512,5.4512,5.4512,5.4512,5.4805,5.5374,5.5839,5.5788,5.5201,5.5167,5.5374,5.546,5.5167,5.5322,5.5736,5.5943,5.6098,5.646,5.7253,5.7857,5.8288,5.8616,5.8944,5.9012,5.9012,5.9012,5.9012,5.9012,5.9012,5.9012,5.9012,5.9012,5.9012,5.9012,5.9012,5.9012,5.9012,5.9012,5.9012,5.9012,5.9012,5.9012,5.9012,5.9012,5.9012,5.9012,5.9012,5.903,5.9237,5.9306,5.9564,6.0532,6.1172,6.1693,6.2544,6.3345,6.3867,6.4248,6.4785,6.5078,6.5061,6.5127,6.5194,6.5361,6.551,6.5768,6.6128,6.6373,6.6269,6.6207,6.6373,6.6536,6.6754,6.6967,6.7006,6.6949,6.7006,6.7045,6.7063,6.6949,6.6949,6.6949,6.6892,6.691,6.6794,6.6476,6.619,6.5931,6.5867,6.5867,6.5804,6.5804,6.5804,6.5804,6.5804,6.5804,6.5804,6.5804,6.5804,6.5722,6.5575,6.5361,6.5278,6.5096,6.4688,6.4568,6.4602,6.4446,6.4164,6.4669,5.4367,5.4175,5.4385,5.4512,5.4512,5.4512,5.4512,5.4512,5.4512,5.4736,5.5098,5.5529,5.5529,5.5132,5.5132,5.5408,5.5391,5.4839,5.5132,5.5408,5.5322,5.5426,5.5926,5.6546,5.6978,5.746,5.815,5.8581,5.8892,5.9012,5.9012,5.9012,5.9012,5.9012,5.9012,5.9012,5.9012,5.9012,5.9012,5.9012,5.9012,5.9012,5.9012,5.9012,5.9012,5.9012,5.9012,5.9012,5.9012,5.9012,5.9012,5.9012,5.9012,5.9064,5.9047,5.9323,6.0012,6.0734,6.1115,6.1978,6.3035,6.3481,6.3652,6.3978,6.4166,6.4184,6.4888,6.5041,6.5504,6.5722,6.585,6.6146,6.6146,6.6083,6.6269,6.6434,6.6772,6.7043,6.7137,6.7063,6.7063,6.7063,6.7063,6.7063,6.7063,6.7119,6.7175,6.7175,6.7175,6.6973,6.6627,6.6313,6.5938,6.5994,6.619,6.6021,6.5804,6.5804,6.5804,6.5804,6.5804,6.5804,6.5804,6.5804,6.5722,6.5575,6.5427,6.5105,6.4773,6.4393,6.427,6.4128,6.3895,6.3806,6.4147,5.4257,5.3898,5.4303,5.4512,5.4512,5.4512,5.4512,5.4512,5.4512,5.4512,5.4563,5.4598,5.4512,5.4512,5.4546,5.4977,5.5098,5.4718,5.4994,5.5063,5.4822,5.496,5.5253,5.5684,5.6305,5.6891,5.7512,5.8185,5.8719,5.8737,5.8754,5.8944,5.9012,5.9012,5.9012,5.9012,5.9012,5.9012,5.9012,5.9012,5.9012,5.9012,5.9012,5.9012,5.9012,5.9012,5.9012,5.9012,5.9012,5.9012,5.9012,5.9012,5.9012,5.9012,5.9081,5.939,5.9954,6.0503,6.0915,6.177,6.2417,6.2804,6.2822,6.302,6.3351,6.3734,6.4376,6.4733,6.5197,6.5546,6.5672,6.5806,6.5743,6.5905,6.6197,6.6313,6.6631,6.7066,6.7102,6.7028,6.701,6.701,6.7063,6.7063,6.7139,6.7213,6.7268,6.7268,6.7158,6.6828,6.6476,6.6102,6.5723,6.5898,6.6271,6.6197,6.5841,6.5804,6.5804,6.5804,6.5804,6.5804,6.5804,6.5804,6.5722,6.5486,6.5131,6.4707,6.4408,6.3921,6.3797,6.3639,6.3491,6.3435,6.3733,5.4448,5.4385,5.4431,5.4512,5.4512,5.4512,5.4512,5.4512,5.4512,5.4512,5.4512,5.4512,5.4512,5.4512,5.4512,5.4701,5.4787,5.4546,5.4546,5.4598,5.4598,5.4667,5.4856,5.5288,5.6046,5.6564,5.696,5.7443,5.8219,5.8271,5.8461,5.8978,5.9012,5.9012,5.9012,5.9012,5.9012,5.9012,5.9012,5.9012,5.9012,5.9012,5.9012,5.9012,5.9012,5.9012,5.9012,5.9012,5.9012,5.9012,5.9012,5.9012,5.9012,5.9081,5.9217,5.9453,6.008,6.0358,6.0931,6.151,6.2062,6.2231,6.2453,6.2844,6.3048,6.3145,6.352,6.352,6.393,6.4367,6.4554,6.4946,6.5072,6.5537,6.5902,6.5664,6.5746,6.631,6.6662,6.6607,6.6609,6.6697,6.6949,6.6933,6.6919,6.6956,6.7012,6.7012,6.7049,6.6683,6.6263,6.5933,6.5529,6.5764,6.6169,6.6157,6.5966,6.5887,6.5804,6.5804,6.5804,6.5804,6.5804,6.5804,6.5561,6.5355,6.49,6.4385,6.3562,6.3117,6.3171,6.3082,6.3058,6.3017,6.3121]}]]